[[{"header":{"parameterUnit":"m.s-1","parameterCategory":1,"la1":31.0,"la2":29.5877,"lo1":-88.7671,"lo2":-86.6584,"dy":0.0162,"dx":0.0185,"nx":115,"ny":88,"refTime":"2023-06-06T12:00:00:Z","depth":0,"parameterNumber":2,"parameterNumberName":"U-component_of_WINDS"},"data":[0.0,0.0,0.0,0.0,0.0,0.0,0.0,0.0,0.0,0.0,0.0,0.0,0.0,0.0,0.0,0.0,0.0,0.0,0.0,0.0,0.0,0.0,0.0,0.0,0.0,0.0,0.0,0.0,0.0,0.0,0.0,0.0,0.0,0.0,0.0,0.0,0.0,0.0,0.0,0.0,0.0,0.0,0.0,0.0,0.0,0.0,0.0,0.0,0.0,0.0,0.0,0.0,0.0,0.0,0.0,0.0,0.0,0.0,0.0,0.0,0.0,0.0,0.0,0.0,0.0,0.0,0.0,0.0,0.0,0.0,0.0,0.0,0.0,0.0,0.0,0.0,0.0,0.0,0.0,0.0,0.0,0.0,0.0,0.0,0.0,0.0,0.0,0.0,0.0,0.0,0.0,0.0,0.0,0.0,0.0,0.0,0.0,0.0,0.0,0.0,0.0,0.0,0.0,0.0,0.0,0.0,0.0,0.0,0.0,0.0,0.0,0.0,0.0,0.0,0.0,0.0,0.0,0.0,0.0,0.0,0.0,0.0,0.0,0.0,0.0,0.0,0.0,0.0,0.0,0.0,0.0,0.0,0.0,0.0,0.0,0.0,0.0,0.0,0.0,0.0,0.0,0.0,0.0,0.0,0.0,0.0,0.0,0.0,0.0,0.0,0.0,0.0,0.0,0.0,0.0,0.0,0.0,0.0,0.0,0.0,0.0,0.0,0.0,0.0,0.0,0.0,0.0,0.0,0.0,0.0,0.0,0.0,0.0,0.0,0.0,0.0,0.0,0.0,0.0,0.0,0.0,0.0,0.0,0.0,0.0,0.0,0.0,0.0,0.0,0.0,0.0,0.0,0.0,0.0,0.0,0.0,0.0,0.0,0.0,0.0,0.0,0.0,0.0,0.0,0.0,0.0,0.0,0.0,0.0,0.0,0.0,0.0,0.0,0.0,0.0,0.0,0.0,0.0,0.0,0.0,0.0,0.0,0.0,0.0,0.0,0.0,0.0,0.0,0.0,0.0,0.0,0.0,0.0,0.0,0.0,0.0,0.0,0.0,0.0,0.0,0.0,0.0,0.0,0.0,0.0,0.0,0.0,0.0,0.0,0.0,0.0,0.0,0.0,0.0,0.0,0.0,0.0,0.0,0.0,0.0,0.0,0.0,0.0,0.0,0.0,0.0,0.0,0.0,0.0,0.0,0.0,0.0,0.0,0.0,0.0,0.0,0.0,0.0,0.0,0.0,0.0,0.0,0.0,0.0,0.0,0.0,0.0,0.0,0.0,0.0,0.0,0.0,0.0,0.0,0.0,0.0,0.0,0.0,0.0,0.0,0.0,0.0,0.0,0.0,0.0,0.0,0.0,0.0,0.0,0.0,0.0,0.0,0.0,0.0,0.0,0.0,0.0,0.0,0.0,0.0,0.0,0.0,0.0,0.0,0.0,0.0,0.0,0.0,0.0,0.0,0.0,0.0,0.0,0.0,0.0,0.0,0.0,0.0,0.0,0.0,0.0,0.0,0.0,0.0,0.0,0.0,0.0,0.0,0.0,0.0,0.0,0.0,0.0,0.0,0.0,0.0,0.0,0.0,0.0,0.0,0.0,0.0,0.0,0.0,0.0,0.0,0.0,0.0,0.0,0.0,0.0,0.0,0.0,0.0,0.0,0.0,0.0,0.0,0.0,0.0,0.0,0.0,0.0,0.0,0.0,0.0,0.0,0.0,0.0,0.0,0.0,0.0,0.0,0.0,0.0,0.0,0.0,0.0,0.0,0.0,0.0,0.0,0.0,0.0,0.0,0.0,0.0,0.0,0.0,0.0,0.0,0.0,0.0,0.0,0.0,0.0,0.0,0.0,0.0,0.0,0.0,0.0,0.0,0.0,0.0,0.0,0.0,0.0,0.0,0.0,0.0,0.0,0.0,0.0,0.0,0.0,0.0,0.0,0.0,0.0,0.0,0.0,0.0,0.0,0.0,0.0,0.0,0.0,0.0,0.0,0.0,0.0,0.0,0.0,0.0,0.0,0.0,0.0,0.0,0.0,0.0,0.0,0.0,0.0,0.0,0.0,0.0,0.0,0.0,0.0,0.0,0.0,0.0,0.0,0.0,0.0,0.0,0.0,0.0,0.0,0.0,0.0,0.0,0.0,0.0,0.0,0.0,0.0,0.0,0.0,0.0,0.0,0.0,0.0,0.0,0.0,0.0,0.0,0.0,0.0,0.0,0.0,0.0,0.0,0.0,0.0,0.0,0.0,0.0,0.0,0.0,0.0,0.0,0.0,0.0,0.0,0.0,0.0,0.0,0.0,0.0,0.0,0.0,0.0,0.0,0.0,0.0,0.0,0.0,0.0,0.0,0.0,0.0,0.0,0.0,0.0,0.0,0.0,0.0,0.0,0.0,0.0,0.0,0.0,0.0,0.0,0.0,0.0,0.0,0.0,0.0,0.0,0.0,0.0,0.0,0.0,0.0,0.0,0.0,0.0,0.0,0.0,0.0,0.0,0.0,0.0,0.0,0.0,0.0,0.0,0.0,0.0,0.0,0.0,0.0,0.0,0.0,0.0,0.0,0.0,0.0,0.0,0.0,0.0,0.0,0.0,0.0,0.0,0.0,0.0,0.0,0.0,0.0,0.0,0.0,0.0,0.0,0.0,0.0,0.0,0.0,0.0,0.0,0.0,0.0,0.0,0.0,0.0,0.0,0.0,0.0,0.0,0.0,0.0,0.0,0.0,0.0,0.0,0.0,0.0,0.0,0.0,0.0,0.0,0.0,0.0,0.0,0.0,0.0,0.0,0.0,0.0,0.0,0.0,0.0,0.0,0.0,0.0,0.0,0.0,0.0,0.0,0.0,0.0,0.0,0.0,0.0,0.0,0.0,0.0,0.0,0.0,0.0,0.0,0.0,0.0,0.0,0.0,0.0,0.0,0.0,0.0,0.0,0.0,0.0,0.0,0.0,0.0,0.0,0.0,0.0,0.0,0.0,0.0,0.0,0.0,0.0,0.0,0.0,0.0,0.0,0.0,0.0,0.0,0.0,0.0,0.0,0.0,0.0,0.0,0.0,0.0,0.0,0.0,0.0,0.0,0.0,0.0,0.0,0.0,0.0,0.0,0.0,0.0,0.0,0.0,0.0,0.0,0.0,0.0,0.0,0.0,0.0,0.0,0.0,0.0,0.0,0.0,0.0,0.0,0.0,0.0,0.0,0.0,0.0,0.0,0.0,0.0,0.0,0.0,0.0,0.0,0.0,0.0,0.0,0.0,0.0,0.0,0.0,0.0,0.0,0.0,0.0,0.0,0.0,0.0,0.0,0.0,0.0,0.0,0.0,0.0,0.0,0.0,0.0,0.0,0.0,0.0,0.0,0.0,0.0,0.0,0.0,0.0,0.0,0.0,0.0,0.0,0.0,0.0,0.0,0.0,0.0,0.0,0.0,0.0,0.0,0.0,0.0,0.0,0.0,0.0,0.0,0.0,0.0,0.0,0.0,0.0,0.0,0.0,0.0,0.0,0.0,0.0,0.0,0.0,0.0,0.0,0.0,0.0,0.0,0.0,0.0,0.0,0.0,0.0,0.0,0.0,0.0,0.0,0.0,0.0,0.0,0.0,0.0,0.0,0.0,0.0,0.0,0.0,0.0,0.0,0.0,0.0,0.0,0.0,0.0,0.0,0.0,0.0,0.0,0.0,0.0,0.0,0.0,0.0,0.0,0.0,0.0,0.0,0.0,0.0,0.0,0.0,0.0,0.0,0.0,0.0,0.0,0.0,0.0,0.0,0.0,0.0,0.0,0.0,0.0,0.0,0.0,0.0,0.0,0.0,0.0,0.0,0.0,0.0,0.0,0.0,0.0,0.0,0.0,0.0,0.0,0.0,0.0,0.0,0.0,0.0,0.0,0.0,0.0,0.0,0.0,0.0,0.0,0.0,0.0,0.0,0.0,0.0,0.0,0.0,0.0,0.0,0.0,0.0,0.0,0.0,0.0,0.0,0.0,0.0,0.0,0.0,0.0,0.0,0.0,0.0,0.0,0.0,0.0,0.0,0.0,0.0,0.0,0.0,0.0,0.0,0.0,0.0,0.0,0.0,0.0,0.0,0.0,0.0,0.0,0.0,0.0,0.0,0.0,0.0,0.0,0.0,0.0,0.0,0.0,0.0,0.0,0.0,0.0,0.0,0.0,0.0,0.0,0.0,0.0,0.0,0.0,0.0,0.0,0.0,0.0,0.0,0.0,0.0,0.0,0.0,0.0,0.0,0.0,0.0,0.0,0.0,0.0,0.0,-1.3847,0.0,0.0,0.0,0.0,0.0,0.0,0.0,0.0,0.0,0.0,0.0,0.0,0.0,0.0,0.0,0.0,0.0,0.0,0.0,0.0,0.0,0.0,0.0,0.0,0.0,0.0,0.0,0.0,0.0,0.0,0.0,0.0,0.0,0.0,0.0,0.0,0.0,0.0,0.0,0.0,0.0,0.0,0.0,0.0,0.0,0.0,0.0,0.0,0.0,0.0,0.0,0.0,0.0,0.0,0.0,0.0,0.0,0.0,0.0,0.0,0.0,0.0,0.0,0.0,0.0,0.0,0.0,0.0,0.0,0.0,0.0,0.0,0.0,0.0,0.0,0.0,0.0,0.0,0.0,0.0,0.0,0.0,0.0,0.0,0.0,0.0,0.0,0.0,0.0,0.0,0.0,0.0,0.0,0.0,0.0,0.0,0.0,0.0,0.0,0.0,0.0,0.0,0.0,0.0,0.0,0.0,0.0,0.0,0.0,0.0,-1.119,-1.2074,-1.2175,-1.281,-1.4038,0.0,0.0,0.0,0.0,0.0,0.0,0.0,0.0,0.0,0.0,0.0,0.0,0.0,0.0,0.0,0.0,0.0,0.0,0.0,0.0,0.0,0.0,0.0,0.0,0.0,0.0,0.0,0.0,0.0,0.0,0.0,0.0,0.0,0.0,0.0,0.0,0.0,0.0,0.0,0.0,0.0,0.0,0.0,0.0,0.0,0.0,0.0,0.0,0.0,0.0,0.0,0.0,0.0,0.0,0.0,0.0,0.0,0.0,0.0,0.0,0.0,0.0,0.0,0.0,0.0,0.0,0.0,0.0,0.0,0.0,0.0,0.0,0.0,0.0,0.0,0.0,0.0,0.0,0.0,0.0,0.0,0.0,0.0,0.0,0.0,0.0,0.0,0.0,0.0,0.0,0.0,0.0,0.0,0.0,0.0,0.0,0.0,0.0,0.0,0.0,0.0,0.0,0.0,0.0,0.0,0.0,0.0,0.0,0.0,0.0,0.0,0.0,-1.3066,-1.3516,-1.4329,0.0,0.0,0.0,0.0,0.0,0.0,0.0,0.0,0.0,0.0,0.0,0.0,0.0,0.0,0.0,0.0,0.0,0.0,0.0,0.0,0.0,0.0,0.0,0.0,0.0,0.0,0.0,0.0,0.0,0.0,0.0,0.0,0.0,0.0,0.0,0.0,0.0,0.0,0.0,0.0,0.0,0.0,0.0,0.0,0.0,0.0,0.0,0.0,0.0,0.0,0.0,0.0,0.0,0.0,0.0,0.0,0.0,0.0,0.0,0.0,0.0,0.0,0.0,0.0,0.0,0.0,0.0,0.0,0.0,0.0,0.0,0.0,0.0,0.0,0.0,0.0,0.0,0.0,0.0,0.0,0.0,0.0,0.0,0.0,0.0,0.0,0.0,0.0,0.0,0.0,0.0,0.0,0.0,0.0,0.0,0.0,0.0,0.0,0.0,0.0,0.0,0.0,0.0,0.0,0.0,0.0,0.0,0.0,0.0,0.0,-1.3021,-1.3932,-1.398,0.0,-1.5121,0.0,0.0,0.0,0.0,0.0,0.0,0.0,0.0,0.0,0.0,0.0,0.0,0.0,0.0,0.0,0.0,0.0,0.0,0.0,0.0,0.0,0.0,0.0,0.0,0.0,0.0,0.0,0.0,0.0,0.0,0.0,0.0,0.0,0.0,0.0,0.0,0.0,0.0,0.0,0.0,0.0,0.0,0.0,0.0,0.0,0.0,0.0,0.0,0.0,0.0,0.0,0.0,0.0,0.0,0.0,0.0,0.0,0.0,0.0,0.0,0.0,0.0,0.0,0.0,0.0,0.0,0.0,0.0,0.0,0.0,0.0,0.0,0.0,0.0,0.0,0.0,0.0,0.0,0.0,0.0,0.0,0.0,0.0,0.0,0.0,0.0,0.0,0.0,0.0,0.0,0.0,0.0,0.0,0.0,0.0,0.0,0.0,0.0,0.0,0.0,0.0,0.0,0.0,0.0,0.0,0.0,0.0,0.0,0.0,0.0,-1.3959,-1.485,-1.4835,-1.4942,0.0,0.0,0.0,0.0,0.0,0.0,0.0,0.0,0.0,0.0,0.0,0.0,0.0,0.0,0.0,0.0,0.0,0.0,0.0,0.0,0.0,0.0,0.0,0.0,0.0,0.0,0.0,0.0,0.0,0.0,0.0,0.0,0.0,0.0,0.0,0.0,0.0,0.0,0.0,0.0,0.0,0.0,0.0,0.0,0.0,0.0,0.0,0.0,0.0,0.0,0.0,0.0,0.0,0.0,0.0,0.0,0.0,0.0,0.0,0.0,0.0,0.0,0.0,0.0,0.0,0.0,0.0,0.0,0.0,0.0,0.0,0.0,0.0,0.0,0.0,0.0,0.0,0.0,0.0,0.0,0.0,0.0,0.0,0.0,0.0,0.0,0.0,0.0,0.0,0.0,0.0,0.0,0.0,0.0,0.0,0.0,0.0,0.0,0.0,0.0,0.0,0.0,0.0,0.0,0.0,0.0,0.0,0.0,0.0,0.0,-1.4722,-1.475,-1.5332,-1.5296,-1.5222,-1.5168,0.0,0.0,0.0,0.0,0.0,0.0,0.0,0.0,0.0,0.0,0.0,0.0,0.0,0.0,0.0,0.0,0.0,0.0,0.0,0.0,0.0,0.0,0.0,0.0,0.0,0.0,0.0,0.0,0.0,0.0,0.0,0.0,0.0,0.0,0.0,0.0,0.0,0.0,0.0,0.0,0.0,0.0,0.0,0.0,0.0,0.0,0.0,0.0,0.0,0.0,0.0,0.0,0.0,0.0,0.0,0.0,0.0,0.0,0.0,0.0,0.0,0.0,0.0,0.0,0.0,0.0,0.0,0.0,0.0,0.0,0.0,0.0,0.0,0.0,0.0,0.0,0.0,0.0,0.0,0.0,0.0,0.0,0.0,0.0,0.0,0.0,0.0,0.0,0.0,0.0,0.0,0.0,0.0,0.0,0.0,0.0,0.0,0.0,0.0,0.0,0.0,0.0,0.0,0.0,0.0,0.0,0.0,0.0,-1.5264,-1.5298,-1.5331,-1.532,-1.5239,-1.5177,0.0,0.0,0.0,0.0,0.0,0.0,0.0,0.0,0.0,0.0,0.0,0.0,0.0,0.0,0.0,0.0,0.0,0.0,0.0,0.0,0.0,0.0,0.0,0.0,0.0,0.0,0.0,0.0,0.0,0.0,0.0,0.0,0.0,0.0,0.0,0.0,0.0,0.0,0.0,0.0,0.0,0.0,0.0,0.0,0.0,0.0,0.0,0.0,0.0,0.0,0.0,0.0,0.0,0.0,0.0,0.0,0.0,0.0,0.0,0.0,0.0,0.0,0.0,0.0,0.0,0.0,0.0,0.0,0.0,0.0,0.0,0.0,0.0,0.0,0.0,0.0,0.0,0.0,0.0,0.0,0.0,0.0,0.0,0.0,0.0,0.0,0.0,0.0,0.0,0.0,0.0,0.0,0.0,0.0,0.0,0.0,0.0,0.0,0.0,0.0,0.0,0.0,0.0,0.0,0.0,0.0,0.0,0.0,0.0,-1.5338,-1.5387,-1.536,-1.5307,-1.5193,-1.5117,0.0,0.0,0.0,0.0,0.0,0.0,0.0,0.0,0.0,0.0,0.0,0.0,0.0,0.0,0.0,0.0,0.0,0.0,0.0,0.0,0.0,0.0,0.0,0.0,0.0,0.0,0.0,0.0,0.0,0.0,0.0,0.0,0.0,0.0,0.0,0.0,0.0,0.0,0.0,0.0,0.0,0.0,0.0,0.0,0.0,0.0,0.0,0.0,0.0,0.0,0.0,0.0,0.0,0.0,0.0,0.0,0.0,0.0,0.0,0.0,0.0,0.0,0.0,0.0,0.0,0.0,0.0,0.0,0.0,0.0,0.0,0.0,0.0,0.0,0.0,0.0,0.0,0.0,0.0,0.0,0.0,0.0,0.0,0.0,0.0,0.0,0.0,0.0,0.0,0.0,0.0,0.0,0.0,0.0,0.0,0.0,0.0,0.0,0.0,0.0,0.0,0.0,0.0,0.0,0.0,0.0,0.0,0.0,0.0,-1.5385,0.0,-1.5379,0.0,-1.5168,-1.5066,0.0,0.0,0.0,0.0,0.0,0.0,0.0,0.0,0.0,0.0,0.0,0.0,0.0,0.0,0.0,0.0,0.0,0.0,0.0,0.0,0.0,0.0,0.0,0.0,0.0,0.0,0.0,0.0,0.0,0.0,0.0,0.0,0.0,0.0,0.0,0.0,0.0,0.0,0.0,0.0,0.0,0.0,0.0,0.0,0.0,0.0,0.0,0.0,0.0,0.0,0.0,0.0,0.0,0.0,0.0,0.0,0.0,0.0,0.0,0.0,0.0,0.0,0.0,0.0,0.0,0.0,0.0,0.0,0.0,0.0,0.0,0.0,0.0,0.0,0.0,0.0,0.0,0.0,0.0,0.0,0.0,0.0,0.0,0.0,0.0,0.0,0.0,0.0,0.0,0.0,0.0,0.0,0.0,0.0,0.0,0.0,0.0,0.0,0.0,0.0,0.0,0.0,0.0,0.0,0.0,0.0,0.0,0.0,-1.5132,-1.5386,-1.5406,-1.5363,-1.5299,-1.5173,-1.504,0.0,0.0,0.0,0.0,0.0,0.0,0.0,0.0,0.0,0.0,0.0,0.0,0.0,0.0,0.0,0.0,0.0,0.0,0.0,0.0,0.0,0.0,0.0,0.0,0.0,0.0,0.0,0.0,0.0,0.0,0.0,0.0,0.0,0.0,0.0,0.0,0.0,0.0,0.0,0.0,0.0,0.0,0.0,0.0,0.0,0.0,0.0,0.0,0.0,0.0,0.0,0.0,0.0,0.0,0.0,0.0,0.0,0.0,0.0,0.0,0.0,0.0,0.0,0.0,0.0,0.0,0.0,0.0,0.0,0.0,0.0,0.0,0.0,0.0,0.0,0.0,0.0,0.0,0.0,0.0,0.0,0.0,0.0,0.0,0.0,0.0,0.0,0.0,0.0,0.0,0.0,0.0,0.0,0.0,0.0,0.0,0.0,0.0,0.0,0.0,0.0,0.0,0.0,0.0,0.0,0.0,0.0,0.0,0.0,-1.5395,-1.541,-1.5379,-1.5303,-1.5185,-1.505,0.0,0.0,0.0,0.0,0.0,0.0,0.0,0.0,0.0,0.0,0.0,0.0,0.0,0.0,0.0,0.0,0.0,0.0,0.0,0.0,0.0,0.0,0.0,0.0,0.0,0.0,0.0,0.0,0.0,0.0,0.0,0.0,0.0,0.0,0.0,0.0,0.0,0.0,0.0,0.0,0.0,0.0,0.0,0.0,0.0,0.0,0.0,0.0,0.0,0.0,0.0,0.0,0.0,0.0,0.0,0.0,0.0,0.0,0.0,0.0,0.0,0.0,0.0,0.0,0.0,0.0,0.0,0.0,0.0,0.0,0.0,0.0,0.0,0.0,0.0,0.0,0.0,0.0,0.0,0.0,0.0,0.0,0.0,0.0,0.0,0.0,0.0,0.0,0.0,0.0,0.0,0.0,0.0,0.0,0.0,0.0,0.0,0.0,0.0,0.0,0.0,0.0,0.0,0.0,0.0,0.0,0.0,0.0,0.0,-1.5741,-1.5809,-1.5819,-1.578,-1.5674,-1.5429,-1.5015,0.0,0.0,0.0,0.0,0.0,0.0,0.0,0.0,0.0,0.0,0.0,0.0,0.0,0.0,0.0,0.0,0.0,0.0,0.0,0.0,0.0,0.0,0.0,0.0,0.0,0.0,0.0,0.0,0.0,0.0,0.0,0.0,0.0,0.0,0.0,0.0,0.0,0.0,0.0,0.0,0.0,0.0,0.0,0.0,0.0,0.0,0.0,0.0,0.0,0.0,0.0,0.0,0.0,0.0,0.0,0.0,0.0,0.0,0.0,0.0,0.0,0.0,0.0,0.0,0.0,0.0,0.0,0.0,0.0,0.0,0.0,0.0,0.0,0.0,0.0,0.0,0.0,0.0,0.0,0.0,0.0,0.0,0.0,0.0,0.0,0.0,0.0,0.0,0.0,0.0,0.0,0.0,0.0,0.0,0.0,0.0,0.0,0.0,0.0,0.0,0.0,0.0,0.0,0.0,0.0,0.0,0.0,0.0,-1.6436,-1.6643,-1.6736,-1.6656,-1.6555,-1.6064,0.0,0.0,0.0,0.0,0.0,0.0,0.0,0.0,0.0,0.0,0.0,0.0,0.0,0.0,0.0,0.0,0.0,0.0,0.0,0.0,0.0,0.0,0.0,0.0,0.0,0.0,0.0,0.0,0.0,0.0,0.0,0.0,0.0,0.0,0.0,0.0,0.0,0.0,0.0,0.0,0.0,0.0,0.0,0.0,0.0,0.0,0.0,0.0,0.0,0.0,0.0,0.0,0.0,0.0,0.0,0.0,0.0,0.0,0.0,0.0,0.0,0.0,0.0,0.0,0.0,0.0,0.0,0.0,0.0,0.0,0.0,0.0,0.0,0.0,0.0,0.0,0.0,0.0,0.0,0.0,0.0,0.0,0.0,0.0,0.0,0.0,0.0,0.0,0.0,0.0,0.0,0.0,0.0,0.0,0.0,0.0,0.0,0.0,0.0,0.0,0.0,0.0,0.0,0.0,0.0,0.0,0.0,0.0,0.0,-1.7248,-1.8055,-1.8164,-1.7559,-1.6875,-1.6343,0.0,0.0,0.0,0.0,0.0,0.0,0.0,0.0,0.0,0.0,0.0,0.0,0.0,0.0,0.0,0.0,0.0,0.0,0.0,0.0,0.0,0.0,0.0,0.0,0.0,0.0,0.0,0.0,0.0,0.0,0.0,0.0,0.0,0.0,0.0,0.0,0.0,0.0,0.0,0.0,0.0,0.0,0.0,0.0,0.0,0.0,0.0,0.0,0.0,0.0,0.0,0.0,0.0,0.0,0.0,0.0,0.0,0.0,0.0,0.0,0.0,0.0,0.0,0.0,0.0,0.0,0.0,0.0,0.0,0.0,0.0,0.0,0.0,0.0,0.0,0.0,0.0,0.0,0.0,0.0,0.0,0.0,0.0,0.0,0.0,0.0,0.0,0.0,0.0,0.0,0.0,0.0,0.0,0.0,0.0,0.0,0.0,0.0,0.0,0.0,0.0,0.0,0.0,0.0,0.0,0.0,0.0,0.0,-1.6455,-1.7589,-1.8592,-1.9071,-1.9001,-1.7753,-1.6883,0.0,0.0,0.0,0.0,0.0,0.0,0.0,0.0,0.0,0.0,0.0,0.0,0.0,0.0,0.0,0.0,0.0,0.0,0.0,0.0,0.0,0.0,0.0,0.0,0.0,0.0,0.0,0.0,0.0,0.0,0.0,0.0,0.0,0.0,0.0,0.0,0.0,0.0,0.0,0.0,0.0,0.0,0.0,0.0,0.0,0.0,0.0,0.0,0.0,0.0,0.0,0.0,0.0,0.0,0.0,0.0,0.0,0.0,0.0,0.0,0.0,0.0,0.0,0.0,0.0,0.0,0.0,0.0,0.0,0.0,0.0,0.0,0.0,0.0,0.0,0.0,0.0,0.0,0.0,0.0,0.0,0.0,0.0,0.0,0.0,0.0,0.0,0.0,0.0,0.0,0.0,0.0,0.0,0.0,0.0,0.0,0.0,0.0,0.0,0.0,0.0,0.0,0.0,0.0,0.0,0.0,0.0,0.0,-1.6545,-1.7585,-1.8663,-1.9587,-2.0266,-1.8759,-1.7474,0.0,0.0,0.0,0.0,0.0,0.0,0.0,0.0,0.0,0.0,0.0,0.0,0.0,0.0,0.0,0.0,0.0,0.0,0.0,0.0,0.0,0.0,0.0,0.0,0.0,0.0,0.0,0.0,0.0,0.0,0.0,0.0,0.0,0.0,0.0,0.0,0.0,0.0,0.0,0.0,0.0,0.0,0.0,0.0,0.0,0.0,0.0,0.0,0.0,0.0,0.0,0.0,0.0,0.0,0.0,0.0,0.0,0.0,0.0,0.0,0.0,0.0,0.0,0.0,0.0,0.0,0.0,0.0,0.0,0.0,0.0,0.0,0.0,0.0,0.0,0.0,0.0,0.0,0.0,0.0,0.0,0.0,0.0,0.0,0.0,0.0,0.0,0.0,0.0,0.0,0.0,0.0,0.0,0.0,0.0,0.0,0.0,0.0,0.0,0.0,0.0,0.0,0.0,0.0,0.0,0.0,0.0,0.0,-1.7198,-1.7619,-1.9206,-1.9864,-1.9482,-1.8453,-1.7792,0.0,0.0,0.0,0.0,0.0,0.0,0.0,0.0,0.0,0.0,0.0,0.0,0.0,0.0,0.0,0.0,0.0,0.0,0.0,0.0,0.0,0.0,0.0,0.0,0.0,0.0,0.0,0.0,0.0,0.0,0.0,0.0,0.0,0.0,0.0,0.0,0.0,0.0,0.0,0.0,0.0,0.0,0.0,0.0,0.0,0.0,0.0,0.0,-1.0008,0.0,0.0,0.0,0.0,0.0,0.0,0.0,0.0,0.0,0.0,0.0,0.0,0.0,0.0,0.0,0.0,0.0,0.0,0.0,0.0,0.0,0.0,0.0,0.0,0.0,0.0,0.0,0.0,0.0,0.0,0.0,0.0,0.0,0.0,0.0,0.0,0.0,0.0,0.0,0.0,0.0,0.0,0.0,0.0,0.0,0.0,0.0,0.0,0.0,0.0,0.0,0.0,0.0,0.0,0.0,0.0,0.0,0.0,0.0,-1.7031,-1.7631,-1.8631,-1.9176,-1.9154,-1.7945,-1.7251,0.0,0.0,0.0,0.0,0.0,0.0,0.0,0.0,0.0,0.0,0.0,0.0,0.0,0.0,0.0,0.0,0.0,0.0,0.0,0.0,0.0,0.0,0.0,0.0,0.0,0.0,0.0,0.0,0.0,0.0,0.0,0.0,0.0,0.0,0.0,0.0,0.0,0.0,0.0,0.0,0.0,0.0,0.0,0.0,0.0,0.0,0.0,0.0,0.0,0.0,0.0,0.0,0.0,0.0,0.0,0.0,0.0,0.0,0.0,0.0,0.0,0.0,0.0,0.0,0.0,0.0,0.0,0.0,0.0,0.0,0.0,0.0,0.0,0.0,0.0,0.0,0.0,0.0,0.0,0.0,0.0,0.0,0.0,0.0,0.0,0.0,0.0,0.0,0.0,0.0,0.0,0.0,0.0,0.0,0.0,0.0,0.0,0.0,0.0,0.0,0.0,0.0,0.0,0.0,0.0,0.0,0.0,-1.5617,-1.6574,-1.748,-1.7773,-1.8199,-1.8768,-1.7375,-1.6504,-1.6297,0.0,0.0,0.0,0.0,0.0,0.0,0.0,0.0,0.0,0.0,0.0,0.0,0.0,0.0,0.0,0.0,0.0,0.0,0.0,0.0,0.0,0.0,0.0,0.0,0.0,0.0,0.0,0.0,0.0,0.0,0.0,0.0,0.0,0.0,0.0,0.0,0.0,0.0,-1.1293,-1.0678,0.0,0.0,0.0,0.0,0.0,0.0,0.0,0.0,-1.2086,0.0,0.0,0.0,0.0,0.0,0.0,0.0,0.0,0.0,0.0,0.0,0.0,0.0,0.0,0.0,0.0,0.0,0.0,0.0,0.0,0.0,0.0,0.0,0.0,0.0,0.0,0.0,0.0,0.0,0.0,0.0,0.0,0.0,0.0,0.0,0.0,0.0,0.0,0.0,0.0,0.0,0.0,0.0,0.0,0.0,0.0,0.0,0.0,0.0,0.0,0.0,0.0,0.0,0.0,0.0,0.0,-1.4771,-1.5753,-1.6397,-1.6703,-1.7497,-1.7653,-1.7129,-1.6778,-1.6233,-1.5475,0.0,0.0,0.0,0.0,0.0,0.0,0.0,0.0,0.0,0.0,0.0,0.0,0.0,0.0,0.0,0.0,0.0,0.0,0.0,0.0,0.0,0.0,0.0,0.0,0.0,0.0,0.0,0.0,0.0,0.0,0.0,0.0,0.0,0.0,0.0,0.0,0.0,0.0,0.0,-1.1547,-1.1069,0.0,0.0,0.0,0.0,0.0,0.0,0.0,0.0,-1.2908,0.0,0.0,0.0,0.0,0.0,0.0,0.0,0.0,0.0,0.0,0.0,0.0,0.0,0.0,0.0,0.0,0.0,0.0,0.0,0.0,0.0,0.0,0.0,0.0,0.0,0.0,0.0,0.0,0.0,0.0,0.0,0.0,0.0,0.0,0.0,0.0,0.0,0.0,0.0,0.0,0.0,0.0,0.0,0.0,0.0,0.0,0.0,0.0,0.0,0.0,0.0,0.0,0.0,0.0,0.0,-1.4923,-1.5418,-1.5974,-1.6519,-1.6589,-1.663,-1.6679,-1.6186,-1.5697,0.0,0.0,0.0,0.0,0.0,0.0,0.0,0.0,0.0,0.0,0.0,0.0,0.0,0.0,0.0,0.0,0.0,0.0,0.0,0.0,0.0,0.0,0.0,0.0,0.0,0.0,0.0,0.0,0.0,0.0,0.0,0.0,0.0,0.0,0.0,0.0,0.0,0.0,0.0,0.0,-1.2119,-1.1765,-1.1357,0.0,0.0,0.0,0.0,0.0,0.0,-1.347,-1.4219,0.0,0.0,0.0,0.0,0.0,0.0,0.0,0.0,0.0,0.0,0.0,0.0,0.0,0.0,0.0,0.0,0.0,0.0,0.0,0.0,0.0,0.0,0.0,0.0,0.0,0.0,0.0,0.0,0.0,0.0,0.0,0.0,0.0,0.0,0.0,0.0,0.0,0.0,0.0,0.0,0.0,0.0,0.0,0.0,0.0,0.0,0.0,0.0,0.0,0.0,0.0,0.0,0.0,0.0,0.0,-1.5052,-1.5094,-1.5446,-1.6052,-1.548,-1.5388,-1.5875,-1.5182,-1.4775,0.0,0.0,0.0,0.0,0.0,0.0,0.0,0.0,0.0,0.0,0.0,0.0,0.0,0.0,0.0,0.0,0.0,0.0,0.0,0.0,0.0,0.0,0.0,0.0,0.0,0.0,0.0,0.0,0.0,0.0,0.0,0.0,0.0,0.0,0.0,0.0,0.0,0.0,0.0,0.0,0.0,-1.2525,-1.1898,-1.1659,0.0,0.0,0.0,0.0,-1.3906,-1.4737,0.0,0.0,0.0,0.0,0.0,0.0,0.0,0.0,0.0,0.0,0.0,0.0,0.0,0.0,0.0,0.0,0.0,0.0,0.0,0.0,0.0,0.0,0.0,0.0,0.0,0.0,0.0,0.0,0.0,0.0,0.0,0.0,0.0,0.0,0.0,0.0,0.0,0.0,0.0,0.0,0.0,0.0,0.0,0.0,0.0,0.0,0.0,0.0,0.0,0.0,0.0,0.0,0.0,0.0,0.0,0.0,-1.5185,-1.5253,-1.4997,-1.4419,-1.4304,-1.3926,-1.3269,-1.3138,-1.3045,0.0,0.0,0.0,0.0,0.0,0.0,0.0,0.0,0.0,0.0,0.0,0.0,0.0,0.0,0.0,0.0,0.0,0.0,0.0,0.0,0.0,0.0,0.0,0.0,0.0,0.0,0.0,0.0,0.0,0.0,0.0,0.0,0.0,0.0,0.0,0.0,0.0,0.0,0.0,0.0,0.0,-1.3545,-1.3519,-1.29,-1.2488,0.0,0.0,0.0,-1.3969,-1.4736,0.0,0.0,0.0,0.0,0.0,0.0,0.0,0.0,0.0,0.0,0.0,0.0,0.0,0.0,0.0,0.0,0.0,0.0,0.0,0.0,0.0,0.0,0.0,0.0,0.0,0.0,0.0,0.0,0.0,0.0,0.0,0.0,0.0,0.0,0.0,0.0,0.0,0.0,0.0,0.0,0.0,0.0,0.0,0.0,0.0,0.0,0.0,0.0,0.0,0.0,0.0,0.0,0.0,0.0,0.0,-1.4987,-1.4538,-1.4588,-1.4217,-1.339,-1.3355,-1.3182,-1.281,-1.2755,-1.2722,0.0,0.0,0.0,0.0,0.0,0.0,0.0,0.0,0.0,0.0,0.0,0.0,0.0,0.0,0.0,0.0,0.0,0.0,0.0,0.0,0.0,0.0,0.0,0.0,0.0,0.0,0.0,0.0,0.0,0.0,0.0,0.0,0.0,0.0,0.0,0.0,0.0,0.0,0.0,0.0,0.0,0.0,-1.3868,-1.3534,0.0,0.0,0.0,-1.4166,-1.4663,0.0,0.0,0.0,0.0,0.0,0.0,0.0,0.0,0.0,0.0,0.0,0.0,0.0,0.0,0.0,0.0,0.0,0.0,0.0,0.0,0.0,0.0,0.0,0.0,0.0,0.0,0.0,0.0,0.0,0.0,0.0,0.0,0.0,0.0,0.0,0.0,0.0,0.0,0.0,0.0,0.0,0.0,0.0,0.0,0.0,0.0,0.0,0.0,0.0,0.0,0.0,0.0,0.0,0.0,0.0,0.0,0.0,-1.4035,-1.3855,-1.3351,-1.2509,-1.248,-1.2377,-1.2172,-1.2098,0.0,0.0,0.0,0.0,0.0,0.0,0.0,0.0,0.0,0.0,0.0,0.0,0.0,0.0,0.0,0.0,0.0,0.0,0.0,0.0,0.0,0.0,0.0,0.0,0.0,0.0,0.0,-1.0191,0.0,0.0,0.0,0.0,0.0,0.0,0.0,0.0,0.0,0.0,0.0,0.0,0.0,0.0,-1.4791,-1.419,-1.4191,-1.4247,0.0,0.0,-1.4551,-1.5177,-1.5345,-1.5408,0.0,0.0,0.0,0.0,0.0,0.0,0.0,0.0,0.0,0.0,0.0,0.0,0.0,0.0,0.0,0.0,0.0,0.0,0.0,0.0,0.0,0.0,0.0,0.0,0.0,0.0,0.0,0.0,0.0,0.0,0.0,0.0,0.0,0.0,0.0,0.0,0.0,0.0,0.0,0.0,0.0,0.0,0.0,0.0,0.0,0.0,0.0,0.0,0.0,0.0,0.0,0.0,0.0,0.0,0.0,-1.4076,-1.3304,-1.2453,-1.1619,-1.1639,-1.1255,-1.0402,-1.0364,-1.0356,0.0,0.0,0.0,0.0,0.0,0.0,0.0,0.0,0.0,0.0,0.0,0.0,0.0,0.0,0.0,0.0,0.0,0.0,0.0,0.0,0.0,0.0,0.0,0.0,0.0,0.0,0.0,0.0,0.0,0.0,0.0,0.0,0.0,0.0,0.0,0.0,0.0,0.0,0.0,0.0,0.0,-1.4988,-1.5007,-1.506,-1.5108,0.0,0.0,-1.5239,-1.5295,-1.5344,-1.5408,-1.5421,0.0,0.0,0.0,0.0,0.0,0.0,0.0,0.0,0.0,0.0,0.0,0.0,0.0,0.0,0.0,0.0,0.0,0.0,0.0,0.0,0.0,0.0,0.0,0.0,0.0,0.0,0.0,0.0,0.0,0.0,0.0,0.0,0.0,0.0,0.0,0.0,0.0,0.0,0.0,0.0,0.0,0.0,0.0,0.0,0.0,0.0,0.0,0.0,0.0,0.0,0.0,0.0,0.0,-1.384,-1.3294,-1.2477,-1.164,-1.08,-1.0773,-1.0597,-1.0207,-1.0129,-1.0065,0.0,0.0,0.0,0.0,0.0,0.0,0.0,0.0,0.0,0.0,0.0,0.0,0.0,0.0,0.0,0.0,0.0,0.0,0.0,0.0,0.0,0.0,0.0,0.0,0.0,0.0,0.0,0.0,-1.0197,-1.0435,-1.1018,0.0,0.0,0.0,0.0,0.0,0.0,0.0,0.0,0.0,0.0,-1.5066,-1.5111,-1.5164,0.0,0.0,-1.5289,-1.5299,-1.5299,-1.5349,-1.5405,-1.5414,-1.5405,0.0,0.0,0.0,0.0,0.0,0.0,0.0,0.0,0.0,0.0,0.0,0.0,0.0,0.0,0.0,0.0,0.0,0.0,0.0,0.0,0.0,0.0,0.0,0.0,0.0,0.0,0.0,0.0,0.0,0.0,0.0,0.0,0.0,0.0,0.0,0.0,0.0,0.0,0.0,0.0,0.0,0.0,0.0,0.0,0.0,0.0,0.0,0.0,0.0,0.0,0.0,0.0,-1.3672,-1.2832,-1.2031,-1.1191,-1.0306,-1.0293,-1.0109,-0.9807,-0.9823,-0.9732,0.0,0.0,0.0,0.0,0.0,0.0,0.0,0.0,0.0,0.0,0.0,0.0,0.0,0.0,0.0,0.0,0.0,0.0,0.0,0.0,0.0,0.0,0.0,0.0,0.0,0.0,0.0,0.0,-1.0445,-1.0878,-1.1534,0.0,0.0,0.0,0.0,0.0,0.0,0.0,0.0,0.0,0.0,-1.5133,-1.5143,-1.5165,-1.522,-1.5282,-1.5293,-1.5282,-1.5282,-1.5342,-1.5474,-1.5714,0.0,0.0,0.0,0.0,0.0,0.0,0.0,0.0,0.0,0.0,0.0,0.0,0.0,0.0,0.0,0.0,0.0,0.0,0.0,0.0,0.0,0.0,0.0,0.0,0.0,0.0,0.0,0.0,0.0,0.0,0.0,0.0,0.0,0.0,0.0,0.0,0.0,0.0,0.0,0.0,0.0,0.0,0.0,0.0,0.0,0.0,0.0,0.0,0.0,0.0,0.0,0.0,0.0,-1.3688,-1.2909,-1.2027,-1.1164,-1.032,-1.0241,-0.9757,-0.8898,-0.9268,-0.9148,-0.8374,0.0,0.0,0.0,0.0,0.0,0.0,0.0,0.0,0.0,0.0,0.0,0.0,0.0,0.0,0.0,0.0,0.0,0.0,0.0,0.0,0.0,0.0,0.0,0.0,0.0,0.0,-1.0233,-1.1034,-1.1576,0.0,0.0,0.0,0.0,0.0,0.0,0.0,0.0,0.0,0.0,-1.5165,-1.5197,-1.5189,-1.5202,-1.5236,-1.5282,-1.5302,-1.5319,-1.5332,-1.5387,-1.5671,0.0,0.0,0.0,0.0,0.0,0.0,0.0,0.0,0.0,0.0,0.0,0.0,0.0,0.0,0.0,0.0,0.0,0.0,0.0,0.0,0.0,0.0,0.0,0.0,0.0,0.0,0.0,0.0,-1.3136,0.0,0.0,0.0,0.0,0.0,0.0,0.0,0.0,0.0,0.0,0.0,-1.5056,-1.5077,0.0,0.0,0.0,0.0,0.0,0.0,0.0,0.0,0.0,0.0,0.0,0.0,-1.3678,-1.284,-1.1978,-1.1113,-1.0264,-1.0223,-0.9665,-0.8572,-0.8658,-0.8394,-0.7731,0.0,0.0,0.0,0.0,0.0,0.0,0.0,0.0,0.0,0.0,0.0,0.0,0.0,0.0,0.0,0.0,0.0,0.0,0.0,0.0,0.0,0.0,0.0,0.0,0.0,-1.0455,0.0,0.0,0.0,0.0,0.0,0.0,0.0,0.0,0.0,0.0,0.0,-1.5262,-1.5246,-1.5202,-1.5204,-1.5256,-1.5263,-1.5284,0.0,0.0,0.0,0.0,0.0,0.0,0.0,0.0,0.0,0.0,0.0,0.0,0.0,0.0,-1.6575,-1.7931,-1.8152,-1.8151,-1.8317,0.0,0.0,0.0,0.0,0.0,0.0,0.0,0.0,0.0,0.0,0.0,0.0,0.0,0.0,0.0,0.0,-1.498,0.0,0.0,0.0,0.0,0.0,0.0,0.0,0.0,-1.5991,-1.6013,-1.6003,-1.6006,-1.5992,0.0,-1.6009,-1.6001,0.0,0.0,0.0,0.0,0.0,0.0,0.0,0.0,-1.4132,-1.3256,-1.2393,-1.1527,-1.068,-1.0366,-0.9563,-0.8244,-0.7806,-0.7459,-0.7136,-0.7989,-0.8621,0.0,0.0,0.0,0.0,0.0,0.0,0.0,0.0,0.0,0.0,0.0,0.0,0.0,0.0,0.0,0.0,0.0,0.0,0.0,0.0,0.0,0.0,0.0,-1.0596,0.0,0.0,0.0,0.0,0.0,0.0,0.0,0.0,0.0,-1.54,-1.5298,-1.5282,-1.5289,-1.5265,-1.5364,-1.57,0.0,0.0,0.0,0.0,0.0,0.0,0.0,-1.801,-1.8298,-1.836,-1.8341,-1.8351,-1.7626,-1.6763,-1.5905,0.0,0.0,-1.7103,-1.7334,-1.7344,-1.7536,-1.7496,-1.742,-1.737,-1.7108,-1.6881,0.0,0.0,0.0,0.0,0.0,0.0,0.0,0.0,-1.6656,-1.6608,0.0,-1.6627,0.0,0.0,0.0,0.0,0.0,0.0,0.0,0.0,-1.7647,-1.7689,-1.7668,-1.7664,-1.768,-1.7707,-1.7665,-1.7665,-1.7588,-1.6011,0.0,0.0,0.0,0.0,0.0,0.0,-1.4976,-1.4083,-1.3251,-1.2385,-1.1489,-1.0672,-0.947,-0.7853,-0.6843,-0.6394,-0.6562,-0.7253,-0.7904,-0.8471,-0.8752,0.0,0.0,0.0,0.0,0.0,0.0,0.0,0.0,0.0,0.0,0.0,0.0,0.0,0.0,0.0,0.0,0.0,0.0,0.0,0.0,-1.0329,0.0,0.0,0.0,0.0,0.0,0.0,0.0,0.0,0.0,0.0,-1.5659,-1.5435,-1.5365,-1.5409,0.0,0.0,0.0,0.0,-1.6936,-1.7742,-1.7923,-1.793,-1.7943,-1.7964,-1.8291,-1.9097,0.0,0.0,-1.9195,-1.8511,-1.7635,-1.6746,-1.5924,-1.5594,-1.6343,-1.6449,-1.6663,-1.7386,-1.7384,-1.7391,-1.734,-1.6616,-1.6074,-1.7417,0.0,0.0,0.0,0.0,-1.6604,-1.6641,-1.6704,-1.6686,-1.6729,-1.6737,-1.6773,0.0,0.0,0.0,0.0,0.0,0.0,-1.7643,-1.7703,-1.7708,-1.7696,-1.7708,-1.7708,-1.7698,-1.7699,-1.7699,-1.7699,-1.768,-1.7212,-1.6676,-1.6143,0.0,0.0,0.0,0.0,-1.4929,-1.4134,-1.3856,-1.2993,-1.1527,-1.1242,-0.9966,-0.7572,-0.6816,-0.6095,-0.5345,-0.6105,-0.6552,-0.6546,-0.6961,0.0,0.0,0.0,0.0,0.0,0.0,0.0,0.0,0.0,0.0,0.0,0.0,0.0,0.0,0.0,0.0,0.0,0.0,0.0,-1.0312,-1.0858,-1.156,0.0,0.0,0.0,0.0,0.0,0.0,0.0,0.0,0.0,-1.7305,-1.7188,-1.7151,0.0,0.0,-1.7251,-1.7484,-1.7517,-1.7602,-1.7849,0.0,0.0,0.0,-1.936,-1.9848,-2.0076,-2.0128,-1.9925,-1.9305,-1.8986,-1.8339,-1.6903,-1.641,-1.6124,-1.5707,-1.5601,-1.5675,-1.5811,-1.5817,-1.5762,-1.5687,-1.5477,-1.5327,-1.9273,-1.8341,-1.7739,-1.7519,-1.7599,-1.7605,-1.761,-1.7659,-1.7674,-1.77,-1.7707,-1.7752,-1.7866,-1.7967,-1.813,0.0,0.0,0.0,-1.8616,-1.8689,-1.8681,-1.8708,-1.8715,-1.8734,-1.8727,-1.8735,-1.8712,-1.8732,-1.8735,-1.8732,-1.8304,-1.7485,0.0,0.0,-1.5801,-1.5786,-1.5408,-1.4612,-1.4242,-1.3558,-1.2502,-1.1569,-1.0014,-0.7889,-0.7072,-0.6288,-0.5436,-0.5656,-0.5813,-0.5817,-0.6115,-0.6576,0.0,0.0,0.0,0.0,0.0,0.0,0.0,0.0,0.0,0.0,0.0,-1.2772,-1.1596,0.0,0.0,0.0,-1.0315,-1.0415,-1.075,-1.1258,0.0,0.0,0.0,0.0,0.0,0.0,0.0,-1.8453,-1.88,-1.9031,-1.9027,-1.8998,-1.8711,-1.8003,-1.7918,-1.8012,-1.8358,0.0,-1.853,-1.8873,-1.9386,-1.9722,-1.9721,-2.0151,-2.0499,-2.0515,-2.05,-2.0355,-1.983,-1.9452,-1.8846,-1.7878,-1.7344,-1.6831,-1.5982,-1.5791,-1.5608,-1.5242,-1.514,-1.5129,-1.5072,-1.5023,-1.5007,-2.1363,-2.1267,-1.9822,-1.9234,-1.9295,-1.93,-1.9281,-1.9307,-1.9376,-1.9358,-1.9324,-1.9433,-1.9543,-1.9634,-1.9939,0.0,0.0,-2.026,-2.0345,-2.0399,-2.0403,-2.045,-2.05,-2.05,-2.05,-2.0481,-2.05,-2.0462,-2.0385,-2.0385,-1.995,-1.9106,-1.8365,-1.7537,-1.6656,-1.6665,-1.6253,-1.5405,-1.4605,-1.414,-1.3964,-1.1707,-0.9866,-0.8604,-0.765,-0.6894,-0.6324,-0.5769,-0.5593,-0.5843,-0.5797,-0.5978,-0.6389,0.0,0.0,0.0,0.0,0.0,0.0,0.0,0.0,0.0,0.0,0.0,0.0,0.0,0.0,0.0,-1.0362,0.0,-1.1436,-1.1634,0.0,0.0,0.0,-1.5885,-1.6791,-1.8319,-1.9316,-1.9394,0.0,0.0,0.0,0.0,-1.9969,-1.8342,-1.8113,-1.8395,-1.9188,-1.9314,-1.9573,-2.0291,-2.0474,-2.0498,-2.0419,-2.0477,-2.0515,-2.0506,-2.0508,-2.0493,-2.0415,-1.9884,-1.9357,-1.9093,-1.8522,-1.768,-1.679,-1.6559,-1.6297,-1.5379,-1.5193,-1.5184,-1.5113,-1.5068,-1.5011,-2.1467,-2.145,-2.1061,-2.0916,-2.0934,-2.0944,-2.0934,-2.0934,-2.0997,-2.106,-2.1076,-2.1103,-2.1211,-2.1391,-2.1566,-2.1727,-2.1817,-2.194,-2.2043,-2.212,-2.2157,-2.2199,-2.222,-2.2201,-2.2197,-2.2197,-2.2197,-2.187,-2.1235,-2.1216,-2.0792,-2.0008,-1.9803,-1.8969,-1.7555,-1.752,-1.7087,-1.6217,-1.601,-1.5279,-1.4005,-1.2136,-1.076,-0.9945,-0.9014,-0.7874,-0.6523,-0.6175,-0.558,-0.4686,-0.4759,-0.5019,-0.5428,-0.6566,0.0,0.0,0.0,0.0,0.0,0.0,0.0,0.0,0.0,-1.2567,-1.1578,0.0,-1.1226,0.0,-1.0828,-1.1284,-1.1484,-1.2696,0.0,0.0,-1.5888,-1.6992,-1.8502,-1.9059,-1.9551,-2.0215,-2.0467,-2.0601,-2.0601,-2.06,-2.0442,-2.0008,-1.9902,-1.9951,-2.0178,-2.0178,-2.0255,-2.0444,-2.0503,-2.0503,-2.05,-2.0498,-2.0498,-2.0515,-2.0505,-2.0515,-2.0515,-2.0352,-1.9994,-1.9356,-1.9062,-1.8323,-1.6984,-1.6643,-1.6295,-1.5493,-1.5234,-1.5171,-1.5114,-1.5097,-1.5063,-2.3389,-2.3111,-2.3113,-2.2905,-2.257,-2.1852,-2.1543,-2.1543,-2.1616,-2.167,-2.1706,-2.1749,-2.1859,-2.197,-2.2129,-2.2252,-2.2357,-2.2492,-2.2593,-2.2705,-2.2729,-2.2766,-2.2797,-2.2797,-2.2797,-2.2797,-2.2797,-2.2562,-2.21,-2.2081,-2.1639,-2.0846,-2.0843,-2.0196,-1.8948,-1.8535,-1.793,-1.7097,-1.6687,-1.5688,-1.405,-1.306,-1.2012,-1.087,-1.002,-0.8961,-0.7644,-0.6958,-0.6252,-0.5554,-0.5504,-0.5615,-0.5871,-0.6912,-0.7755,0.0,0.0,0.0,0.0,0.0,0.0,0.0,0.0,0.0,0.0,0.0,-1.0894,0.0,-1.1337,0.0,-1.2593,-1.3871,-1.5029,-1.5905,-1.711,-1.8256,-1.9201,-1.964,-2.0056,-2.0546,-2.0605,-2.0605,-2.0605,-2.0605,-2.0605,-2.0605,-2.0563,-2.0537,-2.0506,-2.0503,-2.0499,-2.0509,-2.0504,-2.0504,-2.05,-2.0498,-2.0498,-2.0498,-2.051,-2.0505,-2.0505,-2.0515,-2.0334,-1.9891,-1.977,-1.9381,-1.8103,-1.7453,-1.6916,-1.6105,-1.5534,-1.5255,-1.5152,-1.5133,-1.5136,-2.5862,-2.527,-2.527,-2.4913,-2.4207,-2.272,-2.2027,-2.1936,-2.1981,-2.2017,-2.2026,-2.2147,-2.2196,-2.2237,-2.2421,-2.256,-2.2639,-2.276,-2.2898,-2.3029,-2.3016,-2.3055,-2.312,-2.3124,-2.312,-2.312,-2.3124,-2.3081,-2.297,-2.297,-2.2528,-2.1696,-2.1677,-2.1269,-2.0446,-1.971,-1.8876,-1.7963,-1.6998,-1.5777,-1.4369,-1.4116,-1.3272,-1.1786,-1.0995,-1.0163,-0.9226,-0.8114,-0.7397,-0.7177,-0.6997,-0.6896,-0.6875,-0.7781,-0.8345,0.0,-0.918,0.0,0.0,0.0,0.0,0.0,0.0,0.0,0.0,-1.0184,-1.0574,-1.1316,-1.1861,-1.2753,-1.4131,-1.5048,-1.5938,-1.6932,-1.8372,-1.9323,-1.9472,-2.0121,-2.0595,-2.06,-2.0601,-2.0601,-2.0601,-2.0601,-2.0602,-2.0604,-2.0605,-2.0566,-2.0518,-2.0512,-2.0525,-2.0512,-2.0509,-2.0506,-2.0504,-2.0503,-2.0503,-2.0501,-2.0515,-2.0508,-2.0508,-2.0499,-2.0496,-2.0483,-2.0441,-2.0145,-1.9354,-1.8454,-1.7626,-1.6725,-1.588,-1.5313,-1.5229,-1.5224,-1.5186,-2.6271,-2.6166,-2.6198,-2.6158,-2.5949,-2.5067,-2.4288,-2.3627,-2.3702,-2.3712,-2.3749,-2.3768,-2.3814,-2.393,-2.4083,-2.4226,-2.433,-2.4466,-2.4612,-2.4714,-2.4722,-2.4758,-2.4827,-2.4827,-2.4827,-2.4827,-2.4827,-2.4485,-2.386,-2.386,-2.3413,-2.2566,-2.2547,-2.212,0.0,0.0,0.0,0.0,-1.7278,-1.6342,-1.5998,-1.4697,-1.3817,-1.3433,-1.2601,0.0,-1.0367,-0.9901,-0.9042,-0.7679,-0.7548,0.0,0.0,0.0,0.0,0.0,0.0,0.0,0.0,0.0,0.0,0.0,-0.9573,-0.9531,-0.936,-1.0037,-1.0599,-1.0797,-1.2476,-1.3998,-1.4985,-1.5857,-1.6997,-1.8542,-1.9028,-1.9489,-2.016,-2.0425,-2.0529,-2.0531,-2.0573,-2.0595,-2.0595,-2.0595,-2.0595,-2.0596,-2.0599,-2.0603,-2.0586,-2.0583,-2.0577,-2.059,-2.0522,-2.0515,-2.0514,-2.0515,-2.0515,-2.0514,-2.0507,-2.0503,-2.0501,-2.0516,-2.0513,-2.0516,-2.0513,-2.0221,-1.9386,-1.8544,-1.7761,-1.6859,-1.6,-1.5363,-1.5304,-1.5268,-1.527,-2.7392,0.0,-2.7072,-2.6885,0.0,-2.6143,-2.5739,-2.5269,-2.4529,-2.4199,-2.4199,-2.4201,-2.4257,-2.4358,-2.4488,-2.4629,-2.4749,-2.4886,-2.5038,-2.5141,-2.5185,-2.5233,-2.5307,-2.5303,-2.5308,-2.5308,-2.5308,-2.5077,-2.4697,-2.4702,-2.4255,-2.3456,-2.3432,-2.3009,-2.2158,-2.1716,-2.0666,-1.9009,-1.8172,-1.733,-1.6521,-1.5667,-1.4808,-1.3948,0.0,0.0,0.0,0.0,0.0,0.0,0.0,0.0,0.0,0.0,0.0,-1.0483,-1.0857,-1.1093,-1.108,-1.1052,-1.0846,-1.0401,-0.9641,-0.9062,-0.8774,-0.93,-1.0085,-1.1143,-1.3236,-1.4922,-1.5873,-1.7117,-1.822,-1.9101,-1.9581,-2.0041,-2.0398,-2.0503,-2.051,-2.0514,-2.0537,-2.0559,-2.054,-2.0559,-2.054,-2.0542,-2.0548,-2.0554,-2.0581,-2.0605,-2.0603,-2.0595,-2.0549,-2.0504,-2.0504,-2.0525,-2.0566,-2.0546,-2.0522,-2.0499,-2.0517,-2.051,-2.0503,-2.0503,-2.0503,-2.0326,-1.9915,-1.9194,-1.8376,-1.7512,-1.6651,-1.588,-1.5474,-1.5328,-1.5272,-2.8602,-2.7935,-2.7917,-2.7574,-2.7024,-2.6877,-2.6722,-2.651,0.0,0.0,0.0,-2.4632,-2.457,-2.4524,-2.4649,-2.4702,-2.4707,-2.4844,-2.4967,-2.5082,-2.531,-2.5447,-2.5542,-2.5677,-2.5668,-2.5538,-2.5519,-2.5442,-2.5308,-2.5308,-2.4966,-2.4375,-2.4317,-2.3875,-2.3028,-2.2158,-2.097,-1.9503,-1.9137,-1.8348,-1.6984,-1.6788,-1.5955,-1.4398,-1.4341,-1.3871,-1.2862,-1.2834,-1.2726,-1.2535,-1.2522,-1.2512,-1.2512,-1.2471,-1.243,-1.2433,-1.2418,-1.2416,-1.2439,-1.2395,-1.2071,-1.1433,-1.0105,-0.9048,-0.8473,-0.8765,-0.9825,-1.182,-1.3898,-1.5621,-1.6919,-1.8295,-1.9264,-1.9426,-2.0072,-2.0508,-2.0499,-2.0501,-2.0506,-2.0513,-2.0515,-2.0513,-2.0515,-2.0515,-2.0516,-2.0501,-2.0511,-2.0521,-2.0573,-2.0604,-2.0605,-2.0598,-2.0555,-2.0533,-2.0513,-2.0557,-2.0597,-2.0598,-2.0555,-2.0531,-2.0509,-2.052,-2.051,-2.0507,-2.0507,-2.0488,-2.0426,-1.9785,-1.9104,-1.8374,-1.7395,-1.6493,-1.5832,-1.5594,-1.5483,-2.9532,-2.8828,-2.8817,-2.8755,-2.862,-2.7934,-2.7255,-2.6583,-2.6345,-2.6264,-2.6272,-2.6264,-2.5921,-2.5337,-2.5458,-2.5211,-2.4717,-2.4853,-2.4953,0.0,-2.5849,-2.6315,-2.6444,-2.7135,-2.7089,-2.6462,-2.6423,-2.6019,-2.5365,-2.5308,-2.5231,-2.5135,-2.5135,-2.4716,-2.3913,-2.3047,-2.2143,-2.1143,-1.9746,-1.888,-1.8645,-1.7918,-1.7103,-1.6195,-1.6051,-1.5315,-1.378,-1.3717,-1.3368,-1.2637,-1.2598,-1.2593,-1.2578,-1.2613,-1.2581,-1.2571,-1.2576,-1.2579,-1.2601,-1.2562,-1.2317,-1.1718,-1.0474,-0.9379,-0.8588,-0.9475,-1.0826,-1.2602,-1.4243,-1.6111,-1.8366,-1.9015,-1.9536,-2.0176,-2.0413,-2.0517,-2.0508,-2.0508,-2.0509,-2.0511,-2.0511,-2.0511,-2.0511,-2.0511,-2.0517,-2.0506,-2.0518,-2.0512,-2.0572,-2.0603,-2.0605,-2.0603,-2.0602,-2.0603,-2.0584,-2.0585,-2.0605,-2.0605,-2.0584,-2.058,-2.0579,-2.0534,-2.0524,-2.0517,-2.0516,-2.0516,-2.0476,-1.9834,-1.9344,-1.9006,-1.7893,-1.6816,-1.6564,-1.6468,-1.6212,-3.0399,-2.9743,-2.9671,-2.939,-2.8968,-2.8601,-2.8235,-2.7904,-2.7904,-2.7402,-2.662,-2.6602,-2.6423,-2.6174,-2.6245,-2.6163,-2.5959,-2.6131,-2.6249,-2.6407,-2.6861,-2.7152,-2.7261,-2.7624,-2.7627,-2.7313,-2.7313,-2.6851,-2.6058,-2.6005,-2.575,-2.5327,-2.5308,-2.4909,-2.411,-2.3701,-2.3086,-2.2197,-2.0989,-1.9912,-1.9011,-1.861,-1.8007,-1.718,-1.7115,-1.6558,-1.5368,-1.5315,-1.4896,-1.404,-1.4005,-1.4002,-1.4009,-1.4009,-1.4012,-1.4018,-1.4002,-1.4008,-1.4008,-1.4148,-1.4028,-1.3614,-1.3145,-1.2605,-1.2081,-1.1334,-1.167,-1.3501,-1.5381,-1.7207,-1.8921,-1.9563,-2.0002,-2.0393,-2.0451,-2.0458,-2.0487,-2.0506,-2.0506,-2.0506,-2.0506,-2.0506,-2.0506,-2.0506,-2.0513,-2.0513,-2.051,-2.0511,-2.0529,-2.0578,-2.0604,-2.0605,-2.0605,-2.0605,-2.0605,-2.0604,-2.0603,-2.0602,-2.0605,-2.0605,-2.0605,-2.0563,-2.0537,-2.055,-2.0548,-2.0545,-2.052,-2.0268,-1.9875,-1.9282,-1.8792,-1.8026,-1.7545,-1.7328,-1.7288,-3.1238,-3.0538,-3.0491,-3.0008,-2.9244,-2.906,-2.8987,-2.8987,-2.8987,-2.829,-2.7226,-2.7134,-2.7093,-2.6962,-2.7056,-2.7036,-2.7036,-2.7184,-2.733,-2.7497,-2.78,-2.7982,-2.8069,-2.8253,-2.8288,-2.8187,-2.8159,-2.7741,-2.6967,-2.6717,-2.6154,-2.5385,-2.5308,-2.4986,-2.4394,-2.4375,-2.3952,-2.3124,-2.2427,-2.1273,-1.9627,-1.9396,-1.8892,-1.8058,-1.8,-1.7612,-1.6836,-1.6779,-1.6465,-1.5824,-1.5773,-1.5757,-1.577,-1.577,-1.577,-1.5757,-1.5782,-1.5792,-1.5792,-1.5968,-1.5993,-1.5733,-1.5648,-1.5623,-1.5482,-1.3799,-1.3288,-1.4968,-1.6645,-1.8118,-1.9256,-1.9976,-2.0474,-2.0642,-2.0681,-2.0878,-2.1019,-2.106,-2.0963,-2.0827,-2.0772,-2.0738,-2.0524,-2.0485,-2.0499,-2.0506,-2.051,-2.0511,-2.0504,-2.055,-2.0596,-2.0601,-2.0603,-2.0582,-2.058,-2.0578,-2.0575,-2.059,-2.0576,-2.0581,-2.0584,-2.0605,-2.0602,-2.0598,-2.0595,-2.0573,-2.0525,-2.0545,-2.031,-1.9755,-1.9341,-1.8984,-1.8361,-1.8199,-1.8327,-3.2027,-3.1342,-3.1305,-3.0815,-3.0044,-2.9354,-2.906,-2.906,-2.9005,-2.895,-2.8785,-2.8803,-2.8415,-2.7856,-2.7869,-2.761,-2.7103,-2.715,-2.7339,-2.7566,-2.83,-2.8736,-2.8874,-2.9621,-2.9698,-2.9062,-2.8994,-2.8569,-2.778,-2.7024,-2.6173,-2.5385,-2.5308,-2.5269,-2.5173,-2.5173,-2.4788,-2.4014,-2.3898,-2.3009,-2.135,-2.0558,-1.9765,-1.8904,-1.8881,-1.8467,-1.7635,-1.7574,-1.7543,-1.7473,-1.7419,-1.7446,-1.7434,-1.7434,-1.7444,-1.7426,-1.7494,-1.7564,-1.7529,-1.7597,-1.7538,-1.7504,-1.6824,-1.6742,-1.7428,-1.6776,-1.6568,-1.7322,-1.7605,-1.8545,-2.0041,-2.041,-2.0803,-2.1496,-2.1573,-2.1883,-2.2484,-2.2772,-2.2465,-2.167,-2.1585,-2.1327,-2.0764,-2.0675,-2.0633,-2.0795,-2.0722,-2.0663,-2.0635,-2.0583,-2.0587,-2.059,-2.0592,-2.0573,-2.053,-2.0524,-2.0522,-2.0501,-2.0506,-2.0533,-2.0559,-2.0583,-2.0605,-2.0603,-2.06,-2.0578,-2.0574,-2.0592,-2.0551,-2.0266,-1.9812,-1.93,-1.9117,-1.9072,-1.9173,-3.2847,-3.2169,-3.2113,-3.1641,-3.0889,-3.0558,-3.0411,-3.043,-3.043,-3.043,-3.043,-3.043,-2.9726,-2.8573,-2.8658,-2.8571,-2.8377,-2.8586,-2.8738,-2.8901,-2.9376,-2.9594,-2.9715,-3.0075,-3.0126,-2.988,-2.9865,-2.9429,-2.8607,-2.778,-2.6928,-2.6154,-2.6063,-2.5808,-2.5346,-2.5308,-2.513,-2.4807,-2.4293,-2.3683,-2.294,-2.1681,-2.0595,-1.9803,-1.9715,-1.93,-1.8536,-1.8398,-1.8187,-1.775,-1.7707,-1.7699,-1.7703,-1.7698,-1.7708,-1.7699,-1.7751,-1.7795,-1.7794,-1.8272,-1.8567,-1.8565,-1.8666,-1.8878,-1.9214,-1.9011,-1.9168,-1.9787,-1.9564,-1.9827,-2.0982,-2.1172,-2.1507,-2.2217,-2.2414,-2.2588,-2.2943,-2.2992,-2.2772,-2.2443,-2.2391,-2.2301,-2.1997,-2.1942,-2.1993,-2.1943,-2.1654,-2.1278,-2.1252,-2.0869,-2.054,-2.0542,-2.0544,-2.0522,-2.0517,-2.0514,-2.0511,-2.0509,-2.0511,-2.052,-2.0528,-2.0576,-2.0602,-2.0605,-2.0604,-2.0602,-2.0598,-2.0594,-2.0572,-2.0444,-2.0393,-1.9995,-1.9976,-1.9974,-1.9949,-3.349,-3.2996,-3.2737,-3.2271,-3.1715,-3.1488,-3.1403,-3.1403,-3.1403,-3.1403,-3.1403,-3.1403,-3.0779,-2.9763,-2.9576,-2.9447,-2.9361,-2.9579,-2.9765,-2.9912,-3.0041,-3.0128,-3.02,-3.0247,-3.0318,-3.0367,-3.0359,-2.9942,-2.9127,-2.8549,-2.7799,-2.7063,-2.6731,-2.6278,-2.5682,-2.5442,-2.5259,-2.5224,-2.4624,-2.423,-2.3865,-2.2796,-2.1631,-2.0647,-2.0534,-2.0114,-1.9273,-1.9235,-1.8967,-1.8416,-1.8355,-1.8352,-1.8386,-1.8386,-1.84,-1.843,-1.8458,-1.8484,-1.848,-1.9075,-1.9432,-1.9487,-2.0002,-2.0302,-2.0292,-2.0288,-2.0706,-2.1402,-2.1671,-2.1987,-2.191,-2.2033,-2.2388,-2.3114,-2.3246,-2.3324,-2.3637,-2.3623,-2.3535,-2.3283,-2.3244,-2.3139,-2.2959,-2.2897,-2.2899,-2.2872,-2.2501,-2.2167,-2.2046,-2.145,-2.0888,-2.0828,-2.0693,-2.0515,-2.0507,-2.0506,-2.0503,-2.0501,-2.0504,-2.0507,-2.0514,-2.0546,-2.0595,-2.0584,-2.0586,-2.0604,-2.06,-2.0596,-2.0591,-2.054,-2.0489,-2.0459,-2.0388,-2.0469,-2.0474,-3.3721,-3.3623,-3.2913,-3.2632,-3.2491,-3.1788,-3.147,-3.158,-3.1507,-3.1439,-3.1525,-3.1494,-3.1397,-3.1213,-3.0671,-2.9984,-2.9425,-2.9654,-2.9802,-2.9912,-3.0041,-3.014,-3.0211,-3.026,-3.0311,-3.0316,-3.0373,-2.9981,-2.9184,-2.9083,-2.864,-2.7852,-2.7113,-2.6642,-2.6425,-2.5688,-2.5231,-2.5258,-2.5149,-2.4765,-2.4123,-2.387,-2.2974,-2.1579,-2.1354,-2.0929,-2.016,-2.0036,-1.9993,-1.9964,-1.9888,-1.9934,-2.0012,-2.0024,-2.0003,-2.0092,-2.0115,-2.0129,-2.0083,-2.0128,-2.017,-2.0209,-2.0241,-2.0327,-2.0404,-2.0318,-2.0758,-2.1594,-2.3576,-2.4233,-2.3153,-2.2909,-2.3229,-2.4002,-2.4142,-2.4482,-2.5116,-2.5022,-2.4855,-2.4257,-2.4091,-2.3879,-2.3123,-2.2966,-2.3176,-2.3208,-2.31,-2.3042,-2.2941,-2.2306,-2.1822,-2.1607,-2.1159,-2.0533,-2.0546,-2.0717,-2.0656,-2.0752,-2.089,-2.0656,-2.0549,-2.052,-2.0591,-2.058,-2.0585,-2.0605,-2.0602,-2.0578,-2.0552,-2.0523,-2.0511,-2.05,-2.051,-2.0506,-2.0511,-3.3629,-3.3703,-3.3482,-3.3366,-3.3348,-3.3036,-3.2926,-3.2939,-3.2926,-3.2926,-3.2944,-3.2939,-3.2669,-3.2155,-3.2004,-3.1249,-3.0166,-3.0355,-3.0283,-2.996,-3.0041,-3.0128,-3.0213,-3.0273,-3.0318,-3.0367,-3.0398,-3.025,-2.9981,-2.9892,-2.9458,-2.876,-2.8309,-2.7857,-2.7246,-2.6449,-2.5985,-2.5867,-2.5428,-2.4996,-2.473,-2.4668,-2.4085,-2.2949,-2.2364,-2.1706,-2.0823,-2.0839,-2.062,-2.0063,-2.0084,-2.0122,-2.014,-2.0176,-2.0197,-2.0233,-2.0285,-2.0289,-2.0284,-2.029,-2.0301,-2.0287,-2.0292,-2.0558,-2.0787,-2.0614,-2.0994,-2.2839,-2.4327,-2.4894,-2.4561,-2.4029,-2.408,-2.4776,-2.4961,-2.5061,-2.5305,-2.5374,-2.5202,-2.4951,-2.4898,-2.4771,-2.4536,-2.4551,-2.4613,-2.4608,-2.4204,-2.3936,-2.3784,-2.3175,-2.2636,-2.2597,-2.2384,-2.2168,-2.2146,-2.1633,-2.1375,-2.1549,-2.1625,-2.1664,-2.1612,-2.1381,-2.1415,-2.0982,-2.0854,-2.0898,-2.0995,-2.085,-2.0766,-2.064,-2.0628,-2.0506,-2.0516,-2.0511,-2.0499,-3.3605,-3.3698,-3.378,-3.3807,-3.3807,-3.3807,-3.3807,-3.3807,-3.3807,-3.3807,-3.3807,-3.3807,-3.3476,-3.3067,-3.3123,-3.2526,-3.1363,-3.13,-3.1064,-3.0743,-3.0836,-3.0825,-3.0661,-3.0695,-3.0605,-3.0436,-3.0404,-3.0404,-3.0379,-3.0336,-3.0022,-2.9517,-2.9174,-2.867,-2.8033,-2.7243,-2.6676,-2.6237,-2.5729,-2.5349,-2.5107,-2.5037,-2.474,-2.4132,-2.3531,-2.2716,-2.1642,-2.1633,-2.1411,-2.0847,-2.0567,-2.036,-2.0136,-2.0144,-2.019,-2.0203,-2.0233,-2.0407,-2.0646,-2.0693,-2.0816,-2.1047,-2.1103,-2.1318,-2.1694,-2.1436,-2.2206,-2.3607,-2.4678,-2.5243,-2.5207,-2.483,-2.4793,-2.5288,-2.5389,-2.5391,-2.5346,-2.5308,-2.5259,-2.5186,-2.5191,-2.5264,-2.5364,-2.5408,-2.543,-2.5557,-2.5018,-2.4754,-2.4668,-2.4084,-2.353,-2.3472,-2.3181,-2.2986,-2.2983,-2.2705,-2.2388,-2.2504,-2.2521,-2.2598,-2.2541,-2.2307,-2.2005,-2.1518,-2.1338,-2.1385,-2.1328,-2.1163,-2.1037,-2.0911,-2.0652,-2.0509,-2.0501,-2.0515,-2.0503,-3.3647,-3.3698,-3.3762,-3.3807,-3.3807,-3.3807,-3.3807,-3.3807,-3.3807,-3.3807,-3.3807,-3.3807,-3.377,-3.376,-3.3805,-3.3543,-3.2897,-3.2422,-3.2184,-3.217,-3.2325,-3.208,-3.1607,-3.1584,-3.12,-3.0538,-3.0423,-3.0404,-3.0385,-3.0336,-3.024,-3.01,-2.9398,-2.902,-2.8893,-2.7994,-2.7113,-2.6529,-2.6254,-2.5747,-2.5028,-2.495,-2.4879,-2.4809,-2.4679,-2.3948,-2.2526,-2.2445,-2.2338,-2.2198,-2.1585,-2.088,-2.0397,-2.0322,-2.0255,-2.0398,-2.0329,-2.0696,-2.137,-2.1509,-2.1835,-2.2282,-2.2566,-2.2469,-2.2609,-2.2895,-2.3322,-2.395,-2.4614,-2.5162,-2.5271,-2.5216,-2.524,-2.5402,-2.5387,-2.536,-2.5308,-2.5257,-2.519,-2.5132,-2.5162,-2.5234,-2.5311,-2.5365,-2.5448,-2.5482,-2.5453,-2.5412,-2.5345,-2.482,-2.4463,-2.4269,-2.4014,-2.38,-2.3759,-2.3719,-2.3559,-2.3458,-2.3418,-2.3416,-2.3283,-2.3109,-2.2905,-2.2494,-2.2316,-2.2343,-2.2264,-2.2079,-2.1738,-2.1535,-2.1082,-2.0628,-2.0503,-2.0515,-2.0506,-3.352,-3.3629,-3.3698,-3.3748,-3.3807,-3.3807,-3.3807,-3.3807,-3.3807,-3.3807,-3.3807,-3.3807,-3.3807,-3.3847,-3.3934,-3.3919,-3.3765,-3.3706,-3.3283,-3.2552,-3.2524,-3.2526,-3.2385,-3.2387,-3.2026,-3.1302,-3.0654,-3.0404,-3.0411,-3.0349,-3.0311,-3.0216,-2.9912,-2.9713,-2.9574,-2.8795,-2.8127,-2.777,-2.6696,-2.5978,-2.5676,-2.5132,-2.4853,-2.4843,-2.4802,-2.4493,-2.4001,-2.3486,-2.2966,-2.2412,-2.2136,-2.1946,-2.1783,-2.176,-2.1798,-2.184,-2.1855,-2.1943,-2.224,-2.2312,-2.2427,-2.2661,-2.2689,-2.2928,-2.3298,-2.3372,-2.3758,-2.4448,-2.4898,-2.5081,-2.5195,-2.5231,-2.5269,-2.5398,-2.5365,-2.5308,-2.5236,-2.5134,-2.5094,-2.5107,-2.513,-2.5168,-2.5247,-2.5317,-2.5419,-2.5476,-2.5525,-2.5549,-2.5527,-2.5373,-2.5268,-2.5214,-2.4904,-2.4652,-2.467,-2.4689,-2.461,-2.447,-2.439,-2.4234,-2.4082,-2.3968,-2.3766,-2.359,-2.3411,-2.3301,-2.3219,-2.2957,-2.2616,-2.2139,-2.1684,-2.1189,-2.0677,-2.0593,-2.0722,-3.3676,-3.3534,-3.3661,-3.3726,-3.3766,-3.3775,-3.3807,-3.3807,-3.3807,-3.3807,-3.3807,-3.3807,-3.3807,-3.3834,-3.3908,-3.4011,-3.4124,-3.4305,-3.3955,-3.3326,-3.3363,-3.3344,-3.311,-3.2828,-3.2574,-3.2109,-3.1559,-3.1136,-3.0842,-3.0746,-3.056,-3.029,-3.0101,-2.9992,-2.9937,-2.9393,-2.8931,-2.8428,-2.7497,-2.6661,-2.604,-2.5529,-2.5088,-2.4821,-2.4757,-2.4742,-2.4673,-2.4249,-2.379,-2.3263,-2.3009,-2.2748,-2.2501,-2.2436,-2.2485,-2.2549,-2.2615,-2.2718,-2.3064,-2.3143,-2.3325,-2.3525,-2.3577,-2.3728,-2.4138,-2.4037,-2.4308,-2.4801,-2.4999,-2.5025,-2.5107,-2.5184,-2.5231,-2.5331,-2.5317,-2.5271,-2.517,-2.5075,-2.5019,-2.507,-2.5101,-2.5116,-2.5168,-2.5273,-2.5398,-2.5452,-2.5478,-2.5525,-2.5565,-2.5593,-2.5624,-2.5654,-2.5483,-2.5407,-2.5582,-2.5621,-2.5621,-2.5502,-2.5383,-2.5149,-2.4939,-2.4882,-2.4753,-2.4647,-2.4486,-2.4531,-2.4448,-2.3912,-2.3471,-2.2918,-2.2401,-2.1911,-2.1495,-2.1182,-2.1136,-3.4083,-3.3571,-3.3751,-3.3853,-3.3858,-3.3913,-3.3885,-3.3807,-3.3807,-3.3807,-3.3807,-3.3807,-3.3807,-3.382,-3.39,-3.3972,-3.4086,-3.4173,-3.4291,-3.4395,-3.4545,-3.4395,-3.3875,-3.3226,-3.2893,-3.284,-3.2694,-3.2292,-3.1672,-3.1532,-3.1057,-3.0412,-3.0228,-2.9953,-2.9901,-2.9736,-2.9269,-2.866,-2.838,-2.7519,-2.6264,-2.607,-2.5681,-2.4933,-2.4876,-2.4823,-2.4687,-2.4612,-2.4654,-2.464,-2.3969,-2.3383,-2.2754,-2.2546,-2.2741,-2.2871,-2.2759,-2.3239,-2.3784,-2.3959,-2.4249,-2.4828,-2.4865,-2.5082,-2.4937,-2.4782,-2.4721,-2.4886,-2.4938,-2.4972,-2.5018,-2.5095,-2.5185,-2.5206,-2.5239,-2.5212,-2.5119,-2.5038,-2.5012,-2.5018,-2.5044,-2.5088,-2.5106,-2.5228,-2.5327,-2.541,-2.5449,-2.5518,-2.5582,-2.5615,-2.5598,-2.5626,-2.5654,-2.5675,-2.5677,-2.5699,-2.5699,-2.5697,-2.5675,-2.558,-2.5467,-2.5451,-2.5442,-2.5392,-2.5348,-2.5488,-2.5403,-2.4768,-2.4305,-2.3865,-2.3332,-2.2786,-2.2354,-2.2,-2.1622,-3.5024,-3.5098,-3.5141,-3.4935,-3.4617,-3.4609,-3.4303,-3.3844,-3.3825,-3.3862,-3.3807,-3.3807,-3.3807,-3.382,-3.3887,-3.3921,-3.3985,-3.4074,-3.4154,-3.4316,-3.4476,-3.4686,-3.4564,-3.3911,-3.3549,-3.3555,-3.3123,-3.2615,-3.2416,-3.2325,-3.1836,-3.1039,-3.0845,-3.0469,-2.9947,-2.9775,-2.9589,-2.9233,-2.8661,-2.8259,-2.7716,-2.7122,-2.6499,-2.5775,-2.5635,-2.5308,-2.4778,-2.4679,-2.4709,-2.4732,-2.4595,-2.4402,-2.4106,-2.4102,-2.4111,-2.4189,-2.429,-2.4435,-2.4662,-2.4732,-2.4908,-2.5122,-2.5145,-2.5082,-2.5095,-2.4938,-2.487,-2.487,-2.4875,-2.4894,-2.4977,-2.5024,-2.507,-2.512,-2.5137,-2.5112,-2.5063,-2.5024,-2.4998,-2.4991,-2.505,-2.5076,-2.5131,-2.5212,-2.5317,-2.5393,-2.5456,-2.551,-2.5557,-2.561,-2.5612,-2.5598,-2.5628,-2.5652,-2.5675,-2.5697,-2.5699,-2.5699,-2.5697,-2.5677,-2.5607,-2.5614,-2.5633,-2.5632,-2.5544,-2.5625,-2.5636,-2.5368,-2.5023,-2.4617,-2.4282,-2.3735,-2.315,-2.2718,-2.2319,-3.5627,-3.5504,-3.565,-3.552,-3.5275,-3.5341,-3.4975,-3.4358,-3.4289,-3.4082,-3.388,-3.3807,-3.3807,-3.382,-3.3829,-3.3868,-3.3908,-3.3985,-3.4074,-3.4173,-3.4305,-3.4556,-3.4727,-3.4396,-3.4252,-3.4293,-3.3845,-3.3464,-3.317,-3.3061,-3.2552,-3.1777,-3.1321,-3.0835,-3.0357,-2.9814,-2.9607,-2.9485,-2.9055,-2.8736,-2.8334,-2.7949,-2.7317,-2.6593,-2.6199,-2.559,-2.481,-2.4647,-2.4666,-2.4709,-2.4729,-2.4757,-2.4809,-2.4839,-2.4889,-2.4965,-2.4985,-2.5025,-2.5095,-2.5095,-2.5125,-2.5168,-2.5145,-2.5089,-2.5057,-2.4931,-2.4816,-2.4849,-2.4817,-2.485,-2.4894,-2.4936,-2.4977,-2.5018,-2.505,-2.5038,-2.4993,-2.5004,-2.4991,-2.5011,-2.505,-2.512,-2.5125,-2.5217,-2.5278,-2.5346,-2.5423,-2.548,-2.5527,-2.5577,-2.5607,-2.5615,-2.5598,-2.5624,-2.5648,-2.5652,-2.5677,-2.5677,-2.5699,-2.5699,-2.5705,-2.5696,-2.5694,-2.569,-2.5701,-2.5703,-2.5695,-2.568,-2.5489,-2.5164,-2.4982,-2.4627,-2.4004,-2.3634,-2.3196,-3.6079,-3.5471,-3.5771,-3.5881,-3.589,-3.607,-3.5736,-3.5125,-3.4911,-3.455,-3.4082,-3.3862,-3.3807,-3.3807,-3.382,-3.3829,-3.39,-3.3881,-3.4089,-3.4222,-3.4339,-3.4465,-3.487,-3.472,-3.4659,-3.4708,-3.4841,-3.4396,-3.3895,-3.3724,-3.3233,-3.2477,-3.1695,-3.1148,-3.0744,-3.0066,-2.9642,-2.9511,-2.9446,-2.911,-2.8708,-2.8521,-2.8134,-2.7336,-2.6349,-2.567,-2.4995,-2.47,-2.4642,-2.4666,-2.4674,-2.4722,-2.4783,-2.4791,-2.4836,-2.4896,-2.4945,-2.5011,-2.5082,-2.507,-2.5132,-2.515,-2.5107,-2.5095,-2.5044,-2.4917,-2.4813,-2.4813,-2.4795,-2.4787,-2.4828,-2.4861,-2.4896,-2.4924,-2.4964,-2.4991,-2.4999,-2.5004,-2.4998,-2.5012,-2.5044,-2.5126,-2.518,-2.5217,-2.5238,-2.5322,-2.5378,-2.5464,-2.5491,-2.5543,-2.5577,-2.5607,-2.5609,-2.561,-2.5617,-2.5607,-2.5652,-2.5677,-2.5699,-2.5699,-2.5705,-2.5696,-2.5692,-2.5687,-2.57,-2.5703,-2.5696,-2.5683,-2.5648,-2.5614,-2.5352,-2.5077,-2.4744,-2.4608,-2.429,-3.6982,-3.7095,-3.7219,-3.7015,-3.6727,-3.6817,-3.6486,-3.5806,-3.518,-3.493,-3.4605,-3.41,-3.3844,-3.3807,-3.3807,-3.382,-3.3907,-3.3962,-3.4186,-3.4855,-3.4282,-3.4556,-3.497,-3.488,-3.465,-3.4647,-3.4658,-3.4545,-3.4365,-3.4223,-3.3947,-3.3135,-3.272,-3.2127,-3.0934,-3.0603,-3.0075,-2.9582,-2.9491,-2.9418,-2.9297,-2.9242,-2.8913,-2.805,-2.6791,-2.5943,-2.5502,-2.4924,-2.4609,-2.4582,-2.4607,-2.4674,-2.4718,-2.4715,-2.4753,-2.4832,-2.4896,-2.4957,-2.5004,-2.5037,-2.507,-2.5101,-2.5057,-2.5018,-2.5023,-2.4896,-2.4824,-2.4795,-2.4757,-2.4749,-2.478,-2.4805,-2.4827,-2.4834,-2.4877,-2.4938,-2.4991,-2.4992,-2.5005,-2.5031,-2.5114,-2.5193,-2.5216,-2.5264,-2.5292,-2.5303,-2.5346,-2.5434,-2.5472,-2.5507,-2.5547,-2.5583,-2.5604,-2.5609,-2.5595,-2.5624,-2.5652,-2.5677,-2.5679,-2.5699,-2.5703,-2.5694,-2.5689,-2.5705,-2.5698,-2.5703,-2.5698,-2.5686,-2.5672,-2.5697,-2.5703,-2.5467,-2.529,-2.529,-2.5167,-3.7166,-3.7392,-3.7577,-3.7506,-3.732,-3.7469,-3.7194,-3.6641,-3.6211,-3.563,-3.5009,-3.4509,-3.416,-3.3807,-3.3825,-3.3972,-3.4417,-3.4816,-3.5234,-3.5602,-3.5321,-3.5417,-3.5673,-3.5478,-3.5199,-3.461,-3.4416,-3.4416,-3.4416,-3.4397,-3.415,-3.3698,-3.3411,-3.2776,-3.1747,-3.1107,-3.0493,-3.0046,-2.9619,-2.9453,-2.9472,-2.9531,-2.9205,-2.8484,-2.749,-2.6798,-2.5814,-2.5405,-2.494,-2.4625,-2.4541,-2.4582,-2.4647,-2.4653,-2.4692,-2.4753,-2.4783,-2.4868,-2.4924,-2.4991,-2.5024,-2.5057,-2.5018,-2.5012,-2.4972,-2.4877,-2.4813,-2.4802,-2.4764,-2.4734,-2.4749,-2.4749,-2.4746,-2.4776,-2.482,-2.4896,-2.4938,-2.4999,-2.5057,-2.5095,-2.5166,-2.5206,-2.5245,-2.5306,-2.5302,-2.5298,-2.5337,-2.5421,-2.5427,-2.5464,-2.5506,-2.5538,-2.5577,-2.5607,-2.5608,-2.5624,-2.5673,-2.5697,-2.5699,-2.5699,-2.5701,-2.5692,-2.5705,-2.5702,-2.5694,-2.5703,-2.57,-2.5692,-2.5697,-2.5699,-2.5707,-2.5701,-2.566,-2.5524,-2.5416,-3.7009,-3.7127,-3.7448,-3.7631,-3.7739,-3.7948,-3.782,-3.7434,-3.7296,-3.6494,-3.554,-3.5279,-3.4876,-3.4376,-3.4321,-3.4651,-3.5206,-3.5807,-3.617,-3.6442,-3.6227,-3.6311,-3.6449,-3.6279,-3.58,-3.4612,-3.4538,-3.4463,-3.4241,-3.4173,-3.4141,-3.4018,-3.3596,-3.3136,-3.272,-3.1689,-3.0778,-3.0509,-2.9775,-2.9412,-2.9423,-2.9472,-2.9147,-2.8708,-2.8241,-2.7615,-2.6561,-2.5938,-2.5445,-2.4741,-2.4555,-2.4534,-2.4566,-2.4599,-2.4639,-2.4692,-2.4707,-2.4768,-2.4868,-2.4917,-2.4959,-2.4973,-2.4966,-2.496,-2.4933,-2.4863,-2.4813,-2.4768,-2.473,-2.4692,-2.4692,-2.4703,-2.4722,-2.4734,-2.4757,-2.4816,-2.4912,-2.5018,-2.5126,-2.5185,-2.5223,-2.5266,-2.5297,-2.5332,-2.5317,-2.5303,-2.5365,-2.5388,-2.5415,-2.5425,-2.5468,-2.5505,-2.5548,-2.5582,-2.5603,-2.5602,-2.5652,-2.5697,-2.5699,-2.5699,-2.5699,-2.5707,-2.5699,-2.5694,-2.5689,-2.5701,-2.5703,-2.5698,-2.5706,-2.5704,-2.5689,-2.5705,-2.5701,-2.5699,-2.5589,-3.693,-3.7127,-3.7337,-3.754,-3.7721,-3.7932,-3.808,-3.8093,-3.7523,-3.7195,-3.6982,-3.6376,-3.5991,-3.5789,-3.5862,-3.5973,-3.6083,-3.6468,-3.6813,-3.7107,-3.6864,-3.6769,-3.722,-3.6914,-3.6385,-3.5975,-3.5494,-3.4905,-3.4239,-3.4018,-3.4036,-3.3999,-3.3882,-3.3574,-3.2919,-3.2004,-3.124,-3.0756,-2.9959,-2.9522,-2.9431,-2.9434,-2.9445,-2.9099,-2.8708,-2.8156,-2.755,-2.6488,-2.5697,-2.5448,-2.4853,-2.4582,-2.4525,-2.4541,-2.459,-2.4655,-2.4668,-2.4715,-2.4795,-2.482,-2.4856,-2.4884,-2.4884,-2.4856,-2.4842,-2.4805,-2.4768,-2.4723,-2.4703,-2.469,-2.4698,-2.4682,-2.4722,-2.4776,-2.4809,-2.4863,-2.4966,-2.5063,-2.5147,-2.5223,-2.5257,-2.5303,-2.5327,-2.5351,-2.5355,-2.534,-2.5369,-2.5387,-2.5408,-2.541,-2.5434,-2.5471,-2.5518,-2.5559,-2.5581,-2.5598,-2.563,-2.5677,-2.5699,-2.5699,-2.5699,-2.5699,-2.5691,-2.5704,-2.5698,-2.5694,-2.5702,-2.5702,-2.5694,-2.5699,-2.5705,-2.5689,-2.5705,-2.5701,-2.5669,-3.6869,-3.7068,-3.726,-3.7429,-3.7577,-3.7846,-3.8105,-3.8265,-3.7965,-3.7708,-3.7444,-3.707,-3.6666,-3.6395,-3.6285,-3.6486,-3.6909,-3.7404,-3.7753,-3.7973,-3.7753,-3.7709,-3.8121,-3.7724,-3.7403,-3.71,-3.663,-3.5781,-3.4666,-3.4092,-3.3963,-3.3895,-3.3921,-3.3764,-3.3383,-3.2735,-3.1948,-3.1188,-3.0421,-2.9781,-2.9438,-2.9423,-2.9461,-2.9311,-2.9078,-2.8649,-2.8061,-2.7567,-2.6544,-2.5838,-2.5336,-2.4927,-2.4657,-2.4535,-2.4541,-2.4599,-2.4604,-2.4629,-2.4695,-2.4723,-2.4749,-2.4798,-2.4805,-2.4813,-2.4805,-2.4802,-2.4757,-2.4676,-2.4655,-2.4658,-2.4682,-2.4685,-2.4706,-2.4791,-2.4869,-2.4981,-2.5006,-2.5112,-2.5206,-2.5296,-2.5317,-2.5351,-2.5364,-2.5382,-2.5395,-2.5395,-2.5391,-2.5404,-2.5401,-2.5418,-2.5434,-2.5478,-2.5528,-2.5565,-2.5578,-2.5593,-2.5628,-2.5675,-2.5699,-2.5699,-2.5699,-2.5699,-2.5699,-2.5687,-2.5687,-2.5703,-2.5697,-2.5703,-2.5701,-2.5691,-2.5697,-2.5702,-2.5691,-2.5681,-2.565,-3.6806,-3.7027,-3.7201,-3.7334,-3.7448,-3.7739,-3.8003,-3.8239,-3.835,-3.8131,-3.7756,-3.7698,-3.7419,-3.6945,-3.689,-3.7165,-3.7804,-3.8414,-3.8579,-3.8597,-3.856,-3.868,-3.8758,-3.8748,-3.8442,-3.7983,-3.7572,-3.6846,-3.5311,-3.4571,-3.4094,-3.3937,-3.3926,-3.3959,-3.3802,-3.3161,-3.2541,-3.179,-3.0995,-3.0214,-2.9593,-2.939,-2.939,-2.9388,-2.939,-2.9037,-2.8533,-2.8077,-2.7418,-2.6619,-2.6042,-2.5578,-2.4908,-2.476,-2.4657,-2.4542,-2.4513,-2.4539,-2.4615,-2.4671,-2.4707,-2.4723,-2.4742,-2.4783,-2.4791,-2.4768,-2.4723,-2.4637,-2.4596,-2.4607,-2.4661,-2.4802,-2.4952,-2.5141,-2.5333,-2.5425,-2.5457,-2.5479,-2.5461,-2.5495,-2.5441,-2.5434,-2.5481,-2.5432,-2.5444,-2.544,-2.5436,-2.544,-2.5452,-2.5441,-2.5464,-2.5511,-2.5547,-2.5577,-2.5598,-2.5591,-2.5626,-2.5677,-2.5699,-2.5699,-2.5699,-2.5699,-2.5699,-2.5701,-2.5689,-2.569,-2.5688,-2.5699,-2.5703,-2.57,-2.5687,-2.5693,-2.5702,-2.5689,-2.5658,-3.6806,-3.7007,-3.7069,-3.7223,-3.7429,-3.7631,-3.788,-3.8136,-3.8318,-3.841,-3.8303,-3.8456,-3.8432,-3.8267,-3.8267,-3.8414,-3.8542,-3.8597,-3.8707,-3.8707,-3.8689,-3.8735,-3.8807,-3.8881,-3.8851,-3.8608,-3.8104,-3.6855,-3.5687,-3.5185,-3.4618,-3.4138,-3.3972,-3.4023,-3.3981,-3.3432,-3.2541,-3.1808,-3.1032,-3.0225,-2.9556,-2.9388,-2.9388,-2.9388,-2.937,-2.9324,-2.9035,-2.8597,-2.7947,-2.7724,-2.7055,-2.6396,-2.5726,-2.5578,-2.515,-2.4759,-2.4524,-2.4539,-2.4628,-2.4639,-2.4679,-2.4695,-2.4764,-2.4757,-2.4941,-2.4964,-2.489,-2.4615,-2.4673,-2.4796,-2.4993,-2.5291,-2.5618,-2.6016,-2.6355,-2.6418,-2.6383,-2.6243,-2.6195,-2.6029,-2.6106,-2.5799,-2.5669,-2.5557,-2.5488,-2.5484,-2.548,-2.5484,-2.5488,-2.548,-2.5499,-2.5541,-2.557,-2.5596,-2.5598,-2.561,-2.5643,-2.5697,-2.5699,-2.5699,-2.5699,-2.5699,-2.5699,-2.5701,-2.5707,-2.5694,-2.5696,-2.5692,-2.57,-2.5703,-2.5699,-2.5687,-2.5692,-2.568,-2.5668,-3.6826,-3.7027,-3.7087,-3.7185,-3.7354,-3.7613,-3.7827,-3.8069,-3.8302,-3.843,-3.851,-3.8643,-3.8707,-3.8707,-3.8707,-3.8689,-3.8707,-3.8707,-3.8707,-3.8707,-3.8707,-3.8765,-3.8837,-3.8896,-3.8935,-3.8924,-3.8595,-3.771,-3.6464,-3.5491,-3.4861,-3.414,-3.4011,-3.4018,-3.4099,-3.3765,-3.319,-3.2365,-3.131,-3.0243,-2.9611,-2.9388,-2.9388,-2.9388,-2.9388,-2.9388,-2.9285,-2.9118,-2.8542,-2.8226,-2.7668,-2.7204,-2.6591,-2.6377,-2.6191,-2.5987,-2.5884,-2.5474,-2.4718,-2.4657,-2.4717,-2.4843,-2.5083,-2.5509,-2.5617,-2.5665,-2.5926,-2.6421,-2.5834,-2.5639,-2.5808,-2.6254,-2.6473,-2.681,-2.7256,-2.7237,-2.7207,-2.7217,-2.7098,-2.6918,-2.6728,-2.6483,-2.6188,-2.5948,-2.5762,-2.5499,-2.5488,-2.5499,-2.5511,-2.5506,-2.5527,-2.559,-2.5592,-2.5613,-2.5615,-2.561,-2.5641,-2.5673,-2.5699,-2.5699,-2.5699,-2.5699,-2.5699,-2.5699,-2.5701,-2.5692,-2.5705,-2.5698,-2.5692,-2.5701,-2.5703,-2.5698,-2.5706,-2.569,-2.5675,-3.6806,-3.6968,-3.7031,-3.7164,-3.7316,-3.754,-3.7757,-3.8002,-3.8219,-3.8385,-3.8481,-3.8578,-3.8658,-3.8707,-3.8707,-3.8707,-3.8707,-3.8707,-3.8707,-3.8707,-3.8723,-3.878,-3.8851,-3.8925,-3.8946,-3.9101,-3.9013,-3.8214,-3.7143,-3.6125,-3.5203,-3.4104,-3.4074,-3.4068,-3.4093,-3.4006,-3.366,-3.2841,-3.1366,-3.0381,-2.9834,-2.9508,-2.9415,-2.9388,-2.9388,-2.9388,-2.9388,-2.937,-2.8951,-2.8653,-2.8467,-2.8059,-2.7352,-2.7185,-2.6981,-2.6776,-2.6637,-2.6303,-2.5614,-2.5343,-2.5145,-2.5366,-2.5643,-2.6257,-2.6441,-2.658,-2.6696,-2.7242,-2.6786,-2.6627,-2.6888,-2.7084,-2.7363,-2.7564,-2.7863,-2.785,-2.7863,-2.7962,-2.7826,-2.7467,-2.733,-2.7404,-2.7047,-2.6568,-2.6133,-2.564,-2.5517,-2.5541,-2.5549,-2.5563,-2.5541,-2.5599,-2.5615,-2.5613,-2.5595,-2.5612,-2.5643,-2.5671,-2.5697,-2.5699,-2.5699,-2.5699,-2.5699,-2.5699,-2.5699,-2.5703,-2.5694,-2.5707,-2.5698,-2.5694,-2.5702,-2.5703,-2.5697,-2.5704,-2.5683,-3.6745,-3.6811,-3.695,-3.7106,-3.7297,-3.7392,-3.7613,-3.7898,-3.8052,-3.8221,-3.8336,-3.8465,-3.8593,-3.8658,-3.8673,-3.8692,-3.8707,-3.8707,-3.8707,-3.8707,-3.8723,-3.878,-3.8851,-3.8906,-3.8964,-3.9073,-3.9082,-3.8581,-3.7745,-3.6729,-3.5583,-3.4408,-3.4185,-3.4173,-3.4197,-3.4172,-3.3782,-3.295,-3.1649,-3.0868,-3.0384,-2.9956,-2.951,-2.9463,-2.9425,-2.9388,-2.9388,-2.9399,-2.9343,-2.9138,-2.913,-2.8868,-2.819,-2.805,-2.779,-2.7464,-2.7315,-2.7111,-2.6823,-2.6535,-2.6711,-2.6804,-2.6906,-2.7054,-2.7278,-2.7073,-2.7112,-2.7382,-2.7363,-2.7196,-2.7372,-2.7568,-2.811,-2.8362,-2.861,-2.8757,-2.8776,-2.8807,-2.8619,-2.8088,-2.8029,-2.8274,-2.8128,-2.7687,-2.7004,-2.6514,-2.5912,-2.5917,-2.5714,-2.5686,-2.559,-2.5586,-2.5595,-2.5596,-2.56,-2.5615,-2.5639,-2.5669,-2.5697,-2.5699,-2.5699,-2.5699,-2.5699,-2.5697,-2.5697,-2.5699,-2.5701,-2.5669,-2.5663,-2.5683,-2.5697,-2.5703,-2.57,-2.5687,-2.5689,-3.6643,-3.6745,-3.6829,-3.6989,-3.7166,-3.7336,-3.7522,-3.7739,-3.7984,-3.8203,-3.8352,-3.8415,-3.8478,-3.8578,-3.8593,-3.8643,-3.8692,-3.8707,-3.8707,-3.8707,-3.8723,-3.8765,-3.8822,-3.8896,-3.895,-3.9036,-3.9017,-3.8339,-3.7132,-3.6835,-3.5733,-3.4711,-3.4271,-3.4252,-3.4245,-3.4255,-3.3839,-3.3254,-3.2519,-3.2027,-3.1318,-3.0673,-3.0197,-3.0197,-2.9592,-2.9499,-2.9461,-2.948,-2.9461,-2.9451,-2.9451,-2.917,-2.8908,-2.8842,-2.8646,-2.8329,-2.8273,-2.8282,-2.8059,-2.7613,-2.7168,-2.768,-2.7793,-2.7951,-2.8259,-2.8455,-2.8483,-2.8528,-2.8387,-2.8227,-2.8506,-2.8729,-2.8984,-2.9157,-2.9289,-2.9461,-2.9545,-2.947,-2.9493,-2.901,-2.9181,-2.9463,-2.9208,-2.8865,-2.8124,-2.742,-2.6798,-2.6276,-2.619,-2.6042,-2.6039,-2.6016,-2.6064,-2.5965,-2.5972,-2.5844,-2.5695,-2.5784,-2.5855,-2.5835,-2.5894,-2.5699,-2.5699,-2.5697,-2.5675,-2.5654,-2.5652,-2.5648,-2.5664,-2.5687,-2.5687,-2.5699,-2.5703,-2.5692,-2.5796,-3.6582,-3.6643,-3.6745,-3.6908,-3.7087,-3.7242,-3.7411,-3.7577,-3.7827,-3.8086,-3.8285,-3.8302,-3.835,-3.843,-3.8494,-3.8559,-3.8643,-3.8673,-3.8692,-3.8707,-3.8707,-3.875,-3.8792,-3.8848,-3.8906,-3.8997,-3.8938,-3.8298,-3.7262,-3.6853,-3.5937,-3.499,-3.4351,-3.4276,-3.4311,-3.4333,-3.4098,-3.3687,-3.322,-3.3026,-3.2267,-3.1557,-3.0808,-3.0696,-3.0136,-2.9744,-2.9594,-2.9501,-2.9501,-2.9501,-2.9501,-2.9491,-2.9424,-2.9412,-2.9392,-2.939,-2.9388,-2.9388,-2.9043,-2.8579,-2.793,-2.8452,-2.8583,-2.8911,-2.9285,-2.9453,-2.9189,-2.9243,-2.9287,-2.9388,-2.9388,-2.9295,-2.9309,-2.9371,-2.9438,-2.9588,-2.9771,-2.9798,-2.9994,-2.9966,-3.0144,-3.01,-3.0049,-2.9648,-2.8888,-2.818,-2.7561,-2.7182,-2.7131,-2.6964,-2.6754,-2.6731,-2.6705,-2.659,-2.6456,-2.6678,-2.688,-2.6762,-2.6712,-2.6283,-2.6186,-2.5972,-2.5738,-2.5699,-2.5673,-2.5626,-2.5604,-2.5622,-2.5652,-2.5687,-2.5696,-2.5696,-2.5702,-2.5739,-2.5984,-3.6623,-3.6523,-3.6661,-3.6806,-3.697,-3.7069,-3.7223,-3.7411,-3.7577,-3.7792,-3.8018,-3.8086,-3.8186,-3.8287,-3.8399,-3.8478,-3.8559,-3.8624,-3.8673,-3.8707,-3.8673,-3.8735,-3.8762,-3.8807,-3.8851,-3.8968,-3.8915,-3.8517,-3.7634,-3.697,-3.6147,-3.5293,-3.4536,-3.4305,-3.4305,-3.4363,-3.4367,-3.4266,-3.3586,-3.3336,-3.3085,-3.243,-3.1709,-3.126,-3.0671,-3.0232,-2.9914,-2.9606,-2.9569,-2.955,-2.9531,-2.9512,-2.9492,-2.9453,-2.9423,-2.9392,-2.938,-2.9388,-2.9351,-2.9304,-2.9202,-2.9157,-2.9111,-2.926,-2.9361,-2.9399,-2.9409,-2.938,-2.9388,-2.9388,-2.9388,-2.9388,-2.945,-2.9491,-2.9569,-2.9645,-2.9834,-2.9991,-3.0123,-3.0254,-3.0359,-3.0422,-3.0539,-3.0351,-2.9594,-2.8899,-2.8322,-2.8066,-2.8034,-2.7708,-2.7397,-2.7256,-2.723,-2.7267,-2.7268,-2.7821,-2.8026,-2.787,-2.7509,-2.7002,-2.6554,-2.6283,-2.605,-2.5816,-2.5652,-2.5622,-2.5598,-2.5598,-2.5645,-2.5654,-2.5692,-2.5692,-2.57,-2.5859,-2.6227,-3.6561,-3.6502,-3.6544,-3.6606,-3.669,-3.693,-3.7106,-3.7223,-3.7411,-3.7595,-3.7774,-3.7827,-3.7984,-3.8136,-3.8218,-3.835,-3.8494,-3.8525,-3.859,-3.8692,-3.8627,-3.859,-3.8621,-3.8686,-3.8732,-3.8825,-3.8789,-3.8155,-3.6978,-3.6626,-3.5756,-3.4841,-3.4528,-3.4412,-3.445,-3.4495,-3.4528,-3.4491,-3.4258,-3.4127,-3.4022,-3.3347,-3.2747,-3.2373,-3.1463,-3.0807,-3.0395,-3.0067,-2.9767,-2.9711,-2.9683,-2.9589,-2.9569,-2.9531,-2.9491,-2.9423,-2.9392,-2.939,-2.9399,-2.937,-2.9388,-2.9388,-2.9388,-2.9388,-2.9388,-2.9388,-2.9388,-2.9388,-2.9388,-2.9388,-2.9388,-2.9388,-2.9429,-2.9491,-2.956,-2.9645,-2.978,-2.9943,-3.0091,-3.0214,-3.0329,-3.0458,-3.0554,-3.0625,-3.0048,-2.9753,-2.9241,-2.9004,-2.893,-2.8313,-2.787,-2.7705,-2.766,-2.7815,-2.8062,-2.866,-2.8771,-2.8515,-2.8093,-2.7569,-2.7141,-2.6827,-2.6318,-2.6044,-2.5819,-2.5615,-2.5608,-2.5603,-2.5605,-2.5624,-2.5775,-2.5855,-2.5907,-2.6228,-2.6699,-3.6386,-3.6588,-3.6523,-3.6506,-3.6585,-3.6809,-3.6948,-3.7029,-3.7145,-3.7299,-3.7467,-3.7541,-3.7685,-3.7897,-3.8052,-3.8135,-3.8366,-3.8446,-3.8478,-3.8596,-3.8512,-3.8478,-3.8512,-3.8525,-3.8609,-3.8582,-3.8272,-3.7657,-3.6597,-3.6268,-3.5458,-3.4617,-3.434,-3.4427,-3.4495,-3.4558,-3.4602,-3.4572,-3.4478,-3.4508,-3.4395,-3.4068,-3.3665,-3.3168,-3.2483,-3.1722,-3.1252,-3.0716,-3.0171,-3.0105,-2.9898,-2.973,-2.9655,-2.9598,-2.9569,-2.9491,-2.9423,-2.9411,-2.9399,-2.9388,-2.9388,-2.9388,-2.9388,-2.9388,-2.9388,-2.9388,-2.9388,-2.9388,-2.9388,-2.9388,-2.9388,-2.9388,-2.9419,-2.9471,-2.9522,-2.9608,-2.9737,-2.9885,-3.0022,-3.0152,-3.0292,-3.0425,-3.055,-3.0591,-3.0424,-3.0323,-3.0199,-2.9985,-2.9753,-2.9229,-2.8747,-2.866,-2.8693,-2.8978,-2.9252,-2.9561,-2.9518,-2.9162,-2.8756,-2.8346,-2.8089,-2.7833,-2.7052,-2.6366,-2.6313,-2.6162,-2.5726,-2.5607,-2.5748,-2.5895,-2.6054,-2.6125,-2.6127,-2.6631,-2.7225,-3.6155,-3.6701,-3.6533,-3.655,-3.6702,-3.6722,-3.6745,-3.6791,-3.6809,-3.693,-3.711,-3.726,-3.7429,-3.7649,-3.7862,-3.8035,-3.8136,-3.8302,-3.8259,-3.8346,-3.8277,-3.8241,-3.8132,-3.8129,-3.8,-3.7951,-3.761,-3.6897,-3.6205,-3.5573,-3.4852,-3.4462,-3.437,-3.4439,-3.4495,-3.4569,-3.4602,-3.4612,-3.4612,-3.4612,-3.4518,-3.4561,-3.4177,-3.3717,-3.3239,-3.2778,-3.2251,-3.1535,-3.1139,-3.0782,-3.0302,-2.9964,-2.9748,-2.9673,-2.9626,-2.9569,-2.9471,-2.9411,-2.9388,-2.9388,-2.9388,-2.9388,-2.9388,-2.9388,-2.9388,-2.9388,-2.9388,-2.9388,-2.9388,-2.9388,-2.9388,-2.9388,-2.938,-2.9441,-2.9472,-2.9589,-2.9701,-2.9835,-2.9951,-3.0106,-3.0246,-3.0398,-3.053,-3.0582,-3.0593,-3.056,-3.0459,-3.0455,-3.028,-3.0342,-2.9996,-3.0026,-3.0114,-3.0358,-3.0513,-3.0317,-3.0253,-2.9896,-2.9706,-2.9355,-2.9116,-2.8664,-2.7941,-2.7347,-2.7076,-2.681,-2.6568,-2.6276,-2.6046,-2.6237,-2.6722,-2.6591,-2.6679,-2.7263,-2.7921,-3.5518,-3.605,-3.5913,-3.6165,-3.665,-3.6702,-3.6722,-3.6725,-3.6725,-3.6829,-3.7029,-3.7085,-3.7278,-3.7595,-3.7685,-3.7827,-3.7966,-3.8013,-3.7736,-3.7698,-3.77,-3.7267,-3.7033,-3.6997,-3.6902,-3.666,-3.6303,-3.5939,-3.5282,-3.4678,-3.4468,-3.4277,-3.4316,-3.4397,-3.4484,-3.4569,-3.4591,-3.4612,-3.4602,-3.4612,-3.4623,-3.4666,-3.4442,-3.4275,-3.3806,-3.3459,-3.3081,-3.2355,-3.1996,-3.177,-3.1064,-3.0641,-3.0594,-3.0058,-2.9664,-2.954,-2.9443,-2.9382,-2.9388,-2.9407,-2.95,-2.9593,-2.9556,-2.9407,-2.9388,-2.9463,-2.9463,-2.9399,-2.9388,-2.9388,-2.9388,-2.9399,-2.938,-2.9421,-2.9453,-2.956,-2.9664,-2.9782,-2.9926,-3.0083,-3.0226,-3.0361,-3.0514,-3.054,-3.0549,-3.0613,-3.0641,-3.0661,-3.0676,-3.0695,-3.0703,-3.071,-3.0694,-3.0704,-3.0695,-3.0532,-3.065,-3.0645,-3.0377,-3.0049,-2.9635,-2.9162,-2.8671,-2.8212,-2.7765,-2.7634,-2.7582,-2.7255,-2.6853,-2.7301,-2.7729,-2.7439,-2.7346,-2.7953,-2.8577,-3.5013,-3.5488,-3.5301,-3.5427,-3.5745,-3.5794,-3.5794,-3.5881,-3.6383,-3.6728,-3.6908,-3.6888,-3.7085,-3.7337,-3.743,-3.7434,-3.7307,-3.7252,-3.6962,-3.6562,-3.6835,-3.6334,-3.5975,-3.592,-3.5972,-3.5625,-3.5275,-3.5025,-3.4553,-3.4193,-3.3947,-3.4074,-3.4233,-3.4347,-3.4393,-3.4461,-3.4528,-3.455,-3.4591,-3.4602,-3.4634,-3.4676,-3.4737,-3.4663,-3.4167,-3.4083,-3.3932,-3.3233,-3.2883,-3.2685,-3.1968,-3.1487,-3.1327,-3.0688,-3.0161,-3.0054,-3.0004,-3.0222,-3.0421,-3.0485,-3.0381,-3.0336,-3.031,-3.0443,-3.0116,-2.9986,-2.969,-2.944,-2.9409,-2.9388,-2.9388,-2.9399,-2.938,-2.939,-2.9471,-2.954,-2.9655,-2.9764,-2.9907,-3.0064,-3.0207,-3.0336,-3.0422,-3.0465,-3.0516,-3.0591,-3.0629,-3.0645,-3.0668,-3.0703,-3.0706,-3.071,-3.0694,-3.0697,-3.0707,-3.0698,-3.0733,-3.0748,-3.0656,-3.0325,-3.0011,-2.9808,-2.9488,-2.8951,-2.8359,-2.8269,-2.8181,-2.8045,-2.7861,-2.8293,-2.8607,-2.853,-2.8452,-2.8707,-2.9334,-3.4502,-3.5063,-3.4746,-3.4647,-3.4478,-3.4565,-3.4546,-3.4542,-3.5734,-3.6455,-3.6631,-3.6728,-3.6818,-3.6935,-3.6995,-3.6717,-3.6471,-3.631,-3.5934,-3.5321,-3.5593,-3.5309,-3.497,-3.5114,-3.4968,-3.4857,-3.4582,-3.4121,-3.415,-3.3913,-3.3766,-3.3881,-3.4086,-3.4197,-3.4233,-3.4351,-3.4439,-3.4495,-3.4528,-3.458,-3.4634,-3.4716,-3.4798,-3.4809,-3.4793,-3.4804,-3.4643,-3.4226,-3.3696,-3.3412,-3.2949,-3.2373,-3.1826,-3.1458,-3.1013,-3.0849,-3.0808,-3.0988,-3.1269,-3.1366,-3.1507,-3.1622,-3.1842,-3.1632,-3.111,-3.0102,-2.9582,-2.9695,-2.9731,-2.9506,-2.9421,-2.9401,-2.939,-2.9402,-2.9453,-2.9531,-2.9598,-2.9746,-2.9907,-3.0057,-3.0199,-3.0324,-3.0394,-3.0444,-3.051,-3.0573,-3.0617,-3.0637,-3.0661,-3.0699,-3.071,-3.0694,-3.0694,-3.0697,-3.0704,-3.0691,-3.0704,-3.0713,-3.0697,-3.0658,-3.0383,-3.0351,-3.0377,-2.981,-2.9243,-2.8851,-2.867,-2.8751,-2.89,-2.8966,-2.9277,-2.9543,-2.9641,-2.9643,-2.9877,-3.3856,-3.4331,-3.4677,-3.4781,-3.4707,-3.4707,-3.4634,-3.4631,-3.4833,-3.5355,-3.597,-3.6442,-3.654,-3.6277,-3.628,-3.5968,-3.5456,-3.5261,-3.4853,-3.4604,-3.4623,-3.4215,-3.3664,-3.3948,-3.3859,-3.3396,-3.3158,-3.3305,-3.3471,-3.3531,-3.3591,-3.3684,-3.3895,-3.403,-3.4111,-3.4252,-3.4335,-3.4416,-3.4439,-3.4506,-3.4583,-3.4697,-3.4798,-3.48,-3.4859,-3.4898,-3.4804,-3.4747,-3.4567,-3.4444,-3.3658,-3.291,-3.2153,-3.1946,-3.18,-3.1717,-3.1696,-3.1848,-3.198,-3.2113,-3.2143,-3.2046,-3.2042,-3.2022,-3.1472,-3.0219,-2.9734,-3.0044,-3.0073,-2.9781,-2.9602,-2.9561,-2.956,-2.9572,-2.9519,-2.9577,-2.9616,-2.9746,-2.9926,-3.0053,-3.0171,-3.0273,-3.0354,-3.0422,-3.0495,-3.055,-3.06,-3.0633,-3.0677,-3.0699,-3.071,-3.0694,-3.0694,-3.0697,-3.0701,-3.0704,-3.0695,-3.0698,-3.0701,-3.0698,-3.0695,-3.063,-3.0545,-3.0542,-3.0228,-2.9761,-2.9648,-3.0047,-3.014,-2.9891,-2.9885,-3.0132,-3.0273,-3.0313,-3.0484,-3.3542,-3.3725,-3.3906,-3.3932,-3.3846,-3.3794,-3.3741,-3.3776,-3.3931,-3.4297,-3.477,-3.5416,-3.563,-3.543,-3.5412,-3.5063,-3.45,-3.4323,-3.3829,-3.3565,-3.3512,-3.3143,-3.2949,-3.2983,-3.2963,-3.2627,-3.2657,-3.2838,-3.3008,-3.3162,-3.3327,-3.3506,-3.3707,-3.3868,-3.3978,-3.4074,-3.4197,-3.4305,-3.4305,-3.4386,-3.4487,-3.4634,-3.4718,-3.4749,-3.481,-3.4869,-3.4888,-3.4917,-3.4908,-3.4832,-3.431,-3.3626,-3.2999,-3.2705,-3.2635,-3.2601,-3.2625,-3.2686,-3.2806,-3.284,-3.2851,-3.2866,-3.3004,-3.3283,-3.3331,-3.2254,-3.1611,-3.1781,-3.1285,-3.0956,-3.0942,-3.093,-3.0891,-3.0901,-3.0419,-3.015,-2.9936,-2.9773,-2.9891,-3.0003,-3.0128,-3.0213,-3.0299,-3.0394,-3.0469,-3.0511,-3.0563,-3.0602,-3.0649,-3.0695,-3.0706,-3.0694,-3.0694,-3.0694,-3.0697,-3.0697,-3.0701,-3.0704,-3.0707,-3.0704,-3.0704,-3.0697,-3.0674,-3.0639,-3.0639,-3.0561,-3.0587,-3.0717,-3.0736,-3.0445,-3.0514,-3.0701,-3.0784,-3.0786,-3.08,-3.3317,-3.3277,-3.3046,-3.2838,-3.2639,-3.2609,-3.2611,-3.2648,-3.3108,-3.3371,-3.3494,-3.4036,-3.4317,-3.4511,-3.4531,-3.4075,-3.3688,-3.3406,-3.2862,-3.2599,-3.2424,-3.2459,-3.2459,-3.2406,-3.2475,-3.2542,-3.2574,-3.2688,-3.285,-3.2993,-3.3147,-3.3331,-3.3477,-3.3633,-3.3739,-3.386,-3.3959,-3.4111,-3.4173,-3.4239,-3.4374,-3.4517,-3.4623,-3.4706,-3.4776,-3.4838,-3.4896,-3.4916,-3.4907,-3.485,-3.4735,-3.4247,-3.3836,-3.3531,-3.3489,-3.3446,-3.3443,-3.3691,-3.3975,-3.4027,-3.4143,-3.4278,-3.4473,-3.4469,-3.4405,-3.4081,-3.3438,-3.3006,-3.2499,-3.2084,-3.2052,-3.2002,-3.1963,-3.1869,-3.1255,-3.0696,-3.0349,-3.0015,-3.008,-3.014,-3.0129,-3.0216,-3.0299,-3.0398,-3.0447,-3.051,-3.0544,-3.058,-3.0633,-3.0668,-3.071,-3.0694,-3.0694,-3.0694,-3.0694,-3.0694,-3.0694,-3.0694,-3.0697,-3.0697,-3.0697,-3.0707,-3.0707,-3.0707,-3.0688,-3.0753,-3.074,-3.0752,-3.077,-3.092,-3.0791,-3.0801,-3.0802,-3.0804,-3.082,-3.2842,-3.3295,-3.3075,-3.2916,-3.2836,-3.2773,-3.2673,-3.2608,-3.2665,-3.2685,-3.2773,-3.2774,-3.3108,-3.3739,-3.3722,-3.3407,-3.2915,-3.2616,-3.2476,-3.2249,-3.2197,-3.2197,-3.2249,-3.2336,-3.2388,-3.2457,-3.2507,-3.2574,-3.2688,-3.2834,-3.2963,-3.3088,-3.3277,-3.3422,-3.3549,-3.3661,-3.3766,-3.3908,-3.4036,-3.4093,-3.4269,-3.4427,-3.4591,-3.4655,-3.4737,-3.4827,-3.4896,-3.4906,-3.4907,-3.4879,-3.483,-3.4586,-3.44,-3.4207,-3.4156,-3.4097,-3.4113,-3.4184,-3.4394,-3.442,-3.4431,-3.4484,-3.4517,-3.4528,-3.4505,-3.4569,-3.4118,-3.3993,-3.3448,-3.2722,-3.255,-3.2408,-3.2331,-3.2229,-3.1839,-3.1411,-3.1016,-3.0814,-3.0749,-3.0538,-3.0293,-3.0369,-3.0426,-3.0495,-3.0508,-3.0558,-3.0597,-3.0671,-3.106,-3.0936,-3.081,-3.0927,-3.1005,-3.0694,-3.0694,-3.0694,-3.0694,-3.0694,-3.0694,-3.0701,-3.0711,-3.0707,-3.0707,-3.0704,-3.0788,-3.0856,-3.0842,-3.1137,-3.1151,-3.1281,-3.0933,-3.0786,-3.0882,-3.1092,-3.1379]},{"header":{"parameterUnit":"m.s-1","parameterCategory":1,"la1":31.0,"la2":29.5877,"lo1":-88.7671,"lo2":-86.6584,"dy":0.0162,"dx":0.0185,"nx":115,"ny":88,"refTime":"2023-06-06T12:00:00:Z","depth":0,"parameterNumber":3,"parameterNumberName":"V-component_of_WINDS"},"data":[0.0,0.0,0.0,0.0,0.0,0.0,0.0,0.0,0.0,0.0,0.0,0.0,0.0,0.0,0.0,0.0,0.0,0.0,0.0,0.0,0.0,0.0,0.0,0.0,0.0,0.0,0.0,0.0,0.0,0.0,0.0,0.0,0.0,0.0,0.0,0.0,0.0,0.0,0.0,0.0,0.0,0.0,0.0,0.0,0.0,0.0,0.0,0.0,0.0,0.0,0.0,0.0,0.0,0.0,0.0,0.0,0.0,0.0,0.0,0.0,0.0,0.0,0.0,0.0,0.0,0.0,0.0,0.0,0.0,0.0,0.0,0.0,0.0,0.0,0.0,0.0,0.0,0.0,0.0,0.0,0.0,0.0,0.0,0.0,0.0,0.0,0.0,0.0,0.0,0.0,0.0,0.0,0.0,0.0,0.0,0.0,0.0,0.0,0.0,0.0,0.0,0.0,0.0,0.0,0.0,0.0,0.0,0.0,0.0,0.0,0.0,0.0,0.0,0.0,0.0,0.0,0.0,0.0,0.0,0.0,0.0,0.0,0.0,0.0,0.0,0.0,0.0,0.0,0.0,0.0,0.0,0.0,0.0,0.0,0.0,0.0,0.0,0.0,0.0,0.0,0.0,0.0,0.0,0.0,0.0,0.0,0.0,0.0,0.0,0.0,0.0,0.0,0.0,0.0,0.0,0.0,0.0,0.0,0.0,0.0,0.0,0.0,0.0,0.0,0.0,0.0,0.0,0.0,0.0,0.0,0.0,0.0,0.0,0.0,0.0,0.0,0.0,0.0,0.0,0.0,0.0,0.0,0.0,0.0,0.0,0.0,0.0,0.0,0.0,0.0,0.0,0.0,0.0,0.0,0.0,0.0,0.0,0.0,0.0,0.0,0.0,0.0,0.0,0.0,0.0,0.0,0.0,0.0,0.0,0.0,0.0,0.0,0.0,0.0,0.0,0.0,0.0,0.0,0.0,0.0,0.0,0.0,0.0,0.0,0.0,0.0,0.0,0.0,0.0,0.0,0.0,0.0,0.0,0.0,0.0,0.0,0.0,0.0,0.0,0.0,0.0,0.0,0.0,0.0,0.0,0.0,0.0,0.0,0.0,0.0,0.0,0.0,0.0,0.0,0.0,0.0,0.0,0.0,0.0,0.0,0.0,0.0,0.0,0.0,0.0,0.0,0.0,0.0,0.0,0.0,0.0,0.0,0.0,0.0,0.0,0.0,0.0,0.0,0.0,0.0,0.0,0.0,0.0,0.0,0.0,0.0,0.0,0.0,0.0,0.0,0.0,0.0,0.0,0.0,0.0,0.0,0.0,0.0,0.0,0.0,0.0,0.0,0.0,0.0,0.0,0.0,0.0,0.0,0.0,0.0,0.0,0.0,0.0,0.0,0.0,0.0,0.0,0.0,0.0,0.0,0.0,0.0,0.0,0.0,0.0,0.0,0.0,0.0,0.0,0.0,0.0,0.0,0.0,0.0,0.0,0.0,0.0,0.0,0.0,0.0,0.0,0.0,0.0,0.0,0.0,0.0,0.0,0.0,0.0,0.0,0.0,0.0,0.0,0.0,0.0,0.0,0.0,0.0,0.0,0.0,0.0,0.0,0.0,0.0,0.0,0.0,0.0,0.0,0.0,0.0,0.0,0.0,0.0,0.0,0.0,0.0,0.0,0.0,0.0,0.0,0.0,0.0,0.0,0.0,0.0,0.0,0.0,0.0,0.0,0.0,0.0,0.0,0.0,0.0,0.0,0.0,0.0,0.0,0.0,0.0,0.0,0.0,0.0,0.0,0.0,0.0,0.0,0.0,0.0,0.0,0.0,0.0,0.0,0.0,0.0,0.0,0.0,0.0,0.0,0.0,0.0,0.0,0.0,0.0,0.0,0.0,0.0,0.0,0.0,0.0,0.0,0.0,0.0,0.0,0.0,0.0,0.0,0.0,0.0,0.0,0.0,0.0,0.0,0.0,0.0,0.0,0.0,0.0,0.0,0.0,0.0,0.0,0.0,0.0,0.0,0.0,0.0,0.0,0.0,0.0,0.0,0.0,0.0,0.0,0.0,0.0,0.0,0.0,0.0,0.0,0.0,0.0,0.0,0.0,0.0,0.0,0.0,0.0,0.0,0.0,0.0,0.0,0.0,0.0,0.0,0.0,0.0,0.0,0.0,0.0,0.0,0.0,0.0,0.0,0.0,0.0,0.0,0.0,0.0,0.0,0.0,0.0,0.0,0.0,0.0,0.0,0.0,0.0,0.0,0.0,0.0,0.0,0.0,0.0,0.0,0.0,0.0,0.0,0.0,0.0,0.0,0.0,0.0,0.0,0.0,0.0,0.0,0.0,0.0,0.0,0.0,0.0,0.0,0.0,0.0,0.0,0.0,0.0,0.0,0.0,0.0,0.0,0.0,0.0,0.0,0.0,0.0,0.0,0.0,0.0,0.0,0.0,0.0,0.0,0.0,0.0,0.0,0.0,0.0,0.0,0.0,0.0,0.0,0.0,0.0,0.0,0.0,0.0,0.0,0.0,0.0,0.0,0.0,0.0,0.0,0.0,0.0,0.0,0.0,0.0,0.0,0.0,0.0,0.0,0.0,0.0,0.0,0.0,0.0,0.0,0.0,0.0,0.0,0.0,0.0,0.0,0.0,0.0,0.0,0.0,0.0,0.0,0.0,0.0,0.0,0.0,0.0,0.0,0.0,0.0,0.0,0.0,0.0,0.0,0.0,0.0,0.0,0.0,0.0,0.0,0.0,0.0,0.0,0.0,0.0,0.0,0.0,0.0,0.0,0.0,0.0,0.0,0.0,0.0,0.0,0.0,0.0,0.0,0.0,0.0,0.0,0.0,0.0,0.0,0.0,0.0,0.0,0.0,0.0,0.0,0.0,0.0,0.0,0.0,0.0,0.0,0.0,0.0,0.0,0.0,0.0,0.0,0.0,0.0,0.0,0.0,0.0,0.0,0.0,0.0,0.0,0.0,0.0,0.0,0.0,0.0,0.0,0.0,0.0,0.0,0.0,0.0,0.0,0.0,0.0,0.0,0.0,0.0,0.0,0.0,0.0,0.0,0.0,0.0,0.0,0.0,0.0,0.0,0.0,0.0,0.0,0.0,0.0,0.0,0.0,0.0,0.0,0.0,0.0,0.0,0.0,0.0,0.0,0.0,0.0,0.0,0.0,0.0,0.0,0.0,0.0,0.0,0.0,0.0,0.0,0.0,0.0,0.0,0.0,0.0,0.0,0.0,0.0,0.0,0.0,0.0,0.0,0.0,0.0,0.0,0.0,0.0,0.0,0.0,0.0,0.0,0.0,0.0,0.0,0.0,0.0,0.0,0.0,0.0,0.0,0.0,0.0,0.0,0.0,0.0,0.0,0.0,0.0,0.0,0.0,0.0,0.0,0.0,0.0,0.0,0.0,0.0,0.0,0.0,0.0,0.0,0.0,0.0,0.0,0.0,0.0,0.0,0.0,0.0,0.0,0.0,0.0,0.0,0.0,0.0,0.0,0.0,0.0,0.0,0.0,0.0,0.0,0.0,0.0,0.0,0.0,0.0,0.0,0.0,0.0,0.0,0.0,0.0,0.0,0.0,0.0,0.0,0.0,0.0,0.0,0.0,0.0,0.0,0.0,0.0,0.0,0.0,0.0,0.0,0.0,0.0,0.0,0.0,0.0,0.0,0.0,0.0,0.0,0.0,0.0,0.0,0.0,0.0,0.0,0.0,0.0,0.0,0.0,0.0,0.0,0.0,0.0,0.0,0.0,0.0,0.0,0.0,0.0,0.0,0.0,0.0,0.0,0.0,0.0,0.0,0.0,0.0,0.0,0.0,0.0,0.0,0.0,0.0,0.0,0.0,0.0,0.0,0.0,0.0,0.0,0.0,0.0,0.0,0.0,0.0,0.0,0.0,0.0,0.0,0.0,0.0,0.0,0.0,0.0,0.0,0.0,0.0,0.0,0.0,0.0,0.0,0.0,0.0,0.0,0.0,0.0,0.0,0.0,0.0,0.0,0.0,0.0,0.0,0.0,0.0,0.0,0.0,0.0,0.0,0.0,0.0,0.0,0.0,0.0,0.0,0.0,0.0,0.0,0.0,0.0,0.0,0.0,0.0,0.0,0.0,0.0,0.0,0.0,0.0,0.0,0.0,0.0,0.0,0.0,0.0,0.0,0.0,0.0,0.0,0.0,0.0,0.0,0.0,0.0,0.0,0.0,0.0,0.0,0.0,0.0,0.0,0.0,0.0,0.0,0.0,0.0,0.0,0.0,0.0,0.0,0.0,0.0091,0.0,0.0,0.0,0.0,0.0,0.0,0.0,0.0,0.0,0.0,0.0,0.0,0.0,0.0,0.0,0.0,0.0,0.0,0.0,0.0,0.0,0.0,0.0,0.0,0.0,0.0,0.0,0.0,0.0,0.0,0.0,0.0,0.0,0.0,0.0,0.0,0.0,0.0,0.0,0.0,0.0,0.0,0.0,0.0,0.0,0.0,0.0,0.0,0.0,0.0,0.0,0.0,0.0,0.0,0.0,0.0,0.0,0.0,0.0,0.0,0.0,0.0,0.0,0.0,0.0,0.0,0.0,0.0,0.0,0.0,0.0,0.0,0.0,0.0,0.0,0.0,0.0,0.0,0.0,0.0,0.0,0.0,0.0,0.0,0.0,0.0,0.0,0.0,0.0,0.0,0.0,0.0,0.0,0.0,0.0,0.0,0.0,0.0,0.0,0.0,0.0,0.0,0.0,0.0,0.0,0.0,0.0,0.0,0.0,0.0,-0.1885,-0.1509,-0.0878,-0.0252,0.0368,0.0,0.0,0.0,0.0,0.0,0.0,0.0,0.0,0.0,0.0,0.0,0.0,0.0,0.0,0.0,0.0,0.0,0.0,0.0,0.0,0.0,0.0,0.0,0.0,0.0,0.0,0.0,0.0,0.0,0.0,0.0,0.0,0.0,0.0,0.0,0.0,0.0,0.0,0.0,0.0,0.0,0.0,0.0,0.0,0.0,0.0,0.0,0.0,0.0,0.0,0.0,0.0,0.0,0.0,0.0,0.0,0.0,0.0,0.0,0.0,0.0,0.0,0.0,0.0,0.0,0.0,0.0,0.0,0.0,0.0,0.0,0.0,0.0,0.0,0.0,0.0,0.0,0.0,0.0,0.0,0.0,0.0,0.0,0.0,0.0,0.0,0.0,0.0,0.0,0.0,0.0,0.0,0.0,0.0,0.0,0.0,0.0,0.0,0.0,0.0,0.0,0.0,0.0,0.0,0.0,0.0,0.0,0.0,0.0,0.0,0.0,0.0,-0.0713,0.0015,0.0876,0.0,0.0,0.0,0.0,0.0,0.0,0.0,0.0,0.0,0.0,0.0,0.0,0.0,0.0,0.0,0.0,0.0,0.0,0.0,0.0,0.0,0.0,0.0,0.0,0.0,0.0,0.0,0.0,0.0,0.0,0.0,0.0,0.0,0.0,0.0,0.0,0.0,0.0,0.0,0.0,0.0,0.0,0.0,0.0,0.0,0.0,0.0,0.0,0.0,0.0,0.0,0.0,0.0,0.0,0.0,0.0,0.0,0.0,0.0,0.0,0.0,0.0,0.0,0.0,0.0,0.0,0.0,0.0,0.0,0.0,0.0,0.0,0.0,0.0,0.0,0.0,0.0,0.0,0.0,0.0,0.0,0.0,0.0,0.0,0.0,0.0,0.0,0.0,0.0,0.0,0.0,0.0,0.0,0.0,0.0,0.0,0.0,0.0,0.0,0.0,0.0,0.0,0.0,0.0,0.0,0.0,0.0,0.0,0.0,0.0,-0.1484,-0.0959,-0.0351,0.0,0.1689,0.0,0.0,0.0,0.0,0.0,0.0,0.0,0.0,0.0,0.0,0.0,0.0,0.0,0.0,0.0,0.0,0.0,0.0,0.0,0.0,0.0,0.0,0.0,0.0,0.0,0.0,0.0,0.0,0.0,0.0,0.0,0.0,0.0,0.0,0.0,0.0,0.0,0.0,0.0,0.0,0.0,0.0,0.0,0.0,0.0,0.0,0.0,0.0,0.0,0.0,0.0,0.0,0.0,0.0,0.0,0.0,0.0,0.0,0.0,0.0,0.0,0.0,0.0,0.0,0.0,0.0,0.0,0.0,0.0,0.0,0.0,0.0,0.0,0.0,0.0,0.0,0.0,0.0,0.0,0.0,0.0,0.0,0.0,0.0,0.0,0.0,0.0,0.0,0.0,0.0,0.0,0.0,0.0,0.0,0.0,0.0,0.0,0.0,0.0,0.0,0.0,0.0,0.0,0.0,0.0,0.0,0.0,0.0,0.0,0.0,-0.1114,-0.0616,0.0518,0.1521,0.0,0.0,0.0,0.0,0.0,0.0,0.0,0.0,0.0,0.0,0.0,0.0,0.0,0.0,0.0,0.0,0.0,0.0,0.0,0.0,0.0,0.0,0.0,0.0,0.0,0.0,0.0,0.0,0.0,0.0,0.0,0.0,0.0,0.0,0.0,0.0,0.0,0.0,0.0,0.0,0.0,0.0,0.0,0.0,0.0,0.0,0.0,0.0,0.0,0.0,0.0,0.0,0.0,0.0,0.0,0.0,0.0,0.0,0.0,0.0,0.0,0.0,0.0,0.0,0.0,0.0,0.0,0.0,0.0,0.0,0.0,0.0,0.0,0.0,0.0,0.0,0.0,0.0,0.0,0.0,0.0,0.0,0.0,0.0,0.0,0.0,0.0,0.0,0.0,0.0,0.0,0.0,0.0,0.0,0.0,0.0,0.0,0.0,0.0,0.0,0.0,0.0,0.0,0.0,0.0,0.0,0.0,0.0,0.0,0.0,-0.1369,-0.0676,0.0033,0.1305,0.2275,0.2828,0.0,0.0,0.0,0.0,0.0,0.0,0.0,0.0,0.0,0.0,0.0,0.0,0.0,0.0,0.0,0.0,0.0,0.0,0.0,0.0,0.0,0.0,0.0,0.0,0.0,0.0,0.0,0.0,0.0,0.0,0.0,0.0,0.0,0.0,0.0,0.0,0.0,0.0,0.0,0.0,0.0,0.0,0.0,0.0,0.0,0.0,0.0,0.0,0.0,0.0,0.0,0.0,0.0,0.0,0.0,0.0,0.0,0.0,0.0,0.0,0.0,0.0,0.0,0.0,0.0,0.0,0.0,0.0,0.0,0.0,0.0,0.0,0.0,0.0,0.0,0.0,0.0,0.0,0.0,0.0,0.0,0.0,0.0,0.0,0.0,0.0,0.0,0.0,0.0,0.0,0.0,0.0,0.0,0.0,0.0,0.0,0.0,0.0,0.0,0.0,0.0,0.0,0.0,0.0,0.0,0.0,0.0,0.0,-0.1638,-0.1019,-0.0151,0.0987,0.1854,0.2557,0.0,0.0,0.0,0.0,0.0,0.0,0.0,0.0,0.0,0.0,0.0,0.0,0.0,0.0,0.0,0.0,0.0,0.0,0.0,0.0,0.0,0.0,0.0,0.0,0.0,0.0,0.0,0.0,0.0,0.0,0.0,0.0,0.0,0.0,0.0,0.0,0.0,0.0,0.0,0.0,0.0,0.0,0.0,0.0,0.0,0.0,0.0,0.0,0.0,0.0,0.0,0.0,0.0,0.0,0.0,0.0,0.0,0.0,0.0,0.0,0.0,0.0,0.0,0.0,0.0,0.0,0.0,0.0,0.0,0.0,0.0,0.0,0.0,0.0,0.0,0.0,0.0,0.0,0.0,0.0,0.0,0.0,0.0,0.0,0.0,0.0,0.0,0.0,0.0,0.0,0.0,0.0,0.0,0.0,0.0,0.0,0.0,0.0,0.0,0.0,0.0,0.0,0.0,0.0,0.0,0.0,0.0,0.0,0.0,-0.1274,-0.0319,0.0587,0.1406,0.2203,0.2887,0.0,0.0,0.0,0.0,0.0,0.0,0.0,0.0,0.0,0.0,0.0,0.0,0.0,0.0,0.0,0.0,0.0,0.0,0.0,0.0,0.0,0.0,0.0,0.0,0.0,0.0,0.0,0.0,0.0,0.0,0.0,0.0,0.0,0.0,0.0,0.0,0.0,0.0,0.0,0.0,0.0,0.0,0.0,0.0,0.0,0.0,0.0,0.0,0.0,0.0,0.0,0.0,0.0,0.0,0.0,0.0,0.0,0.0,0.0,0.0,0.0,0.0,0.0,0.0,0.0,0.0,0.0,0.0,0.0,0.0,0.0,0.0,0.0,0.0,0.0,0.0,0.0,0.0,0.0,0.0,0.0,0.0,0.0,0.0,0.0,0.0,0.0,0.0,0.0,0.0,0.0,0.0,0.0,0.0,0.0,0.0,0.0,0.0,0.0,0.0,0.0,0.0,0.0,0.0,0.0,0.0,0.0,0.0,0.0,-0.0874,0.0,0.0974,0.0,0.2368,0.3048,0.0,0.0,0.0,0.0,0.0,0.0,0.0,0.0,0.0,0.0,0.0,0.0,0.0,0.0,0.0,0.0,0.0,0.0,0.0,0.0,0.0,0.0,0.0,0.0,0.0,0.0,0.0,0.0,0.0,0.0,0.0,0.0,0.0,0.0,0.0,0.0,0.0,0.0,0.0,0.0,0.0,0.0,0.0,0.0,0.0,0.0,0.0,0.0,0.0,0.0,0.0,0.0,0.0,0.0,0.0,0.0,0.0,0.0,0.0,0.0,0.0,0.0,0.0,0.0,0.0,0.0,0.0,0.0,0.0,0.0,0.0,0.0,0.0,0.0,0.0,0.0,0.0,0.0,0.0,0.0,0.0,0.0,0.0,0.0,0.0,0.0,0.0,0.0,0.0,0.0,0.0,0.0,0.0,0.0,0.0,0.0,0.0,0.0,0.0,0.0,0.0,0.0,0.0,0.0,0.0,0.0,0.0,0.0,-0.2076,-0.0386,0.0336,0.0923,0.149,0.2335,0.3077,0.0,0.0,0.0,0.0,0.0,0.0,0.0,0.0,0.0,0.0,0.0,0.0,0.0,0.0,0.0,0.0,0.0,0.0,0.0,0.0,0.0,0.0,0.0,0.0,0.0,0.0,0.0,0.0,0.0,0.0,0.0,0.0,0.0,0.0,0.0,0.0,0.0,0.0,0.0,0.0,0.0,0.0,0.0,0.0,0.0,0.0,0.0,0.0,0.0,0.0,0.0,0.0,0.0,0.0,0.0,0.0,0.0,0.0,0.0,0.0,0.0,0.0,0.0,0.0,0.0,0.0,0.0,0.0,0.0,0.0,0.0,0.0,0.0,0.0,0.0,0.0,0.0,0.0,0.0,0.0,0.0,0.0,0.0,0.0,0.0,0.0,0.0,0.0,0.0,0.0,0.0,0.0,0.0,0.0,0.0,0.0,0.0,0.0,0.0,0.0,0.0,0.0,0.0,0.0,0.0,0.0,0.0,0.0,0.0,-0.0689,-0.0034,0.0587,0.1221,0.2117,0.2925,0.0,0.0,0.0,0.0,0.0,0.0,0.0,0.0,0.0,0.0,0.0,0.0,0.0,0.0,0.0,0.0,0.0,0.0,0.0,0.0,0.0,0.0,0.0,0.0,0.0,0.0,0.0,0.0,0.0,0.0,0.0,0.0,0.0,0.0,0.0,0.0,0.0,0.0,0.0,0.0,0.0,0.0,0.0,0.0,0.0,0.0,0.0,0.0,0.0,0.0,0.0,0.0,0.0,0.0,0.0,0.0,0.0,0.0,0.0,0.0,0.0,0.0,0.0,0.0,0.0,0.0,0.0,0.0,0.0,0.0,0.0,0.0,0.0,0.0,0.0,0.0,0.0,0.0,0.0,0.0,0.0,0.0,0.0,0.0,0.0,0.0,0.0,0.0,0.0,0.0,0.0,0.0,0.0,0.0,0.0,0.0,0.0,0.0,0.0,0.0,0.0,0.0,0.0,0.0,0.0,0.0,0.0,0.0,0.0,-0.1585,-0.0604,0.019,0.081,0.1838,0.2703,0.3467,0.0,0.0,0.0,0.0,0.0,0.0,0.0,0.0,0.0,0.0,0.0,0.0,0.0,0.0,0.0,0.0,0.0,0.0,0.0,0.0,0.0,0.0,0.0,0.0,0.0,0.0,0.0,0.0,0.0,0.0,0.0,0.0,0.0,0.0,0.0,0.0,0.0,0.0,0.0,0.0,0.0,0.0,0.0,0.0,0.0,0.0,0.0,0.0,0.0,0.0,0.0,0.0,0.0,0.0,0.0,0.0,0.0,0.0,0.0,0.0,0.0,0.0,0.0,0.0,0.0,0.0,0.0,0.0,0.0,0.0,0.0,0.0,0.0,0.0,0.0,0.0,0.0,0.0,0.0,0.0,0.0,0.0,0.0,0.0,0.0,0.0,0.0,0.0,0.0,0.0,0.0,0.0,0.0,0.0,0.0,0.0,0.0,0.0,0.0,0.0,0.0,0.0,0.0,0.0,0.0,0.0,0.0,0.0,-0.2843,-0.1365,-0.0292,0.0363,0.1485,0.2454,0.0,0.0,0.0,0.0,0.0,0.0,0.0,0.0,0.0,0.0,0.0,0.0,0.0,0.0,0.0,0.0,0.0,0.0,0.0,0.0,0.0,0.0,0.0,0.0,0.0,0.0,0.0,0.0,0.0,0.0,0.0,0.0,0.0,0.0,0.0,0.0,0.0,0.0,0.0,0.0,0.0,0.0,0.0,0.0,0.0,0.0,0.0,0.0,0.0,0.0,0.0,0.0,0.0,0.0,0.0,0.0,0.0,0.0,0.0,0.0,0.0,0.0,0.0,0.0,0.0,0.0,0.0,0.0,0.0,0.0,0.0,0.0,0.0,0.0,0.0,0.0,0.0,0.0,0.0,0.0,0.0,0.0,0.0,0.0,0.0,0.0,0.0,0.0,0.0,0.0,0.0,0.0,0.0,0.0,0.0,0.0,0.0,0.0,0.0,0.0,0.0,0.0,0.0,0.0,0.0,0.0,0.0,0.0,0.0,-0.3392,-0.2317,-0.1191,0.0,0.1143,0.2152,0.0,0.0,0.0,0.0,0.0,0.0,0.0,0.0,0.0,0.0,0.0,0.0,0.0,0.0,0.0,0.0,0.0,0.0,0.0,0.0,0.0,0.0,0.0,0.0,0.0,0.0,0.0,0.0,0.0,0.0,0.0,0.0,0.0,0.0,0.0,0.0,0.0,0.0,0.0,0.0,0.0,0.0,0.0,0.0,0.0,0.0,0.0,0.0,0.0,0.0,0.0,0.0,0.0,0.0,0.0,0.0,0.0,0.0,0.0,0.0,0.0,0.0,0.0,0.0,0.0,0.0,0.0,0.0,0.0,0.0,0.0,0.0,0.0,0.0,0.0,0.0,0.0,0.0,0.0,0.0,0.0,0.0,0.0,0.0,0.0,0.0,0.0,0.0,0.0,0.0,0.0,0.0,0.0,0.0,0.0,0.0,0.0,0.0,0.0,0.0,0.0,0.0,0.0,0.0,0.0,0.0,0.0,0.0,-0.4467,-0.3578,-0.2716,-0.1627,-0.0311,0.0853,0.1924,0.0,0.0,0.0,0.0,0.0,0.0,0.0,0.0,0.0,0.0,0.0,0.0,0.0,0.0,0.0,0.0,0.0,0.0,0.0,0.0,0.0,0.0,0.0,0.0,0.0,0.0,0.0,0.0,0.0,0.0,0.0,0.0,0.0,0.0,0.0,0.0,0.0,0.0,0.0,0.0,0.0,0.0,0.0,0.0,0.0,0.0,0.0,0.0,0.0,0.0,0.0,0.0,0.0,0.0,0.0,0.0,0.0,0.0,0.0,0.0,0.0,0.0,0.0,0.0,0.0,0.0,0.0,0.0,0.0,0.0,0.0,0.0,0.0,0.0,0.0,0.0,0.0,0.0,0.0,0.0,0.0,0.0,0.0,0.0,0.0,0.0,0.0,0.0,0.0,0.0,0.0,0.0,0.0,0.0,0.0,0.0,0.0,0.0,0.0,0.0,0.0,0.0,0.0,0.0,0.0,0.0,0.0,0.0,-0.4433,-0.3498,-0.2768,-0.1778,-0.0531,0.0635,0.1721,0.0,0.0,0.0,0.0,0.0,0.0,0.0,0.0,0.0,0.0,0.0,0.0,0.0,0.0,0.0,0.0,0.0,0.0,0.0,0.0,0.0,0.0,0.0,0.0,0.0,0.0,0.0,0.0,0.0,0.0,0.0,0.0,0.0,0.0,0.0,0.0,0.0,0.0,0.0,0.0,0.0,0.0,0.0,0.0,0.0,0.0,0.0,0.0,0.0,0.0,0.0,0.0,0.0,0.0,0.0,0.0,0.0,0.0,0.0,0.0,0.0,0.0,0.0,0.0,0.0,0.0,0.0,0.0,0.0,0.0,0.0,0.0,0.0,0.0,0.0,0.0,0.0,0.0,0.0,0.0,0.0,0.0,0.0,0.0,0.0,0.0,0.0,0.0,0.0,0.0,0.0,0.0,0.0,0.0,0.0,0.0,0.0,0.0,0.0,0.0,0.0,0.0,0.0,0.0,0.0,0.0,0.0,0.0,-0.4408,-0.3425,-0.2699,-0.176,-0.0617,0.0403,0.1459,0.0,0.0,0.0,0.0,0.0,0.0,0.0,0.0,0.0,0.0,0.0,0.0,0.0,0.0,0.0,0.0,0.0,0.0,0.0,0.0,0.0,0.0,0.0,0.0,0.0,0.0,0.0,0.0,0.0,0.0,0.0,0.0,0.0,0.0,0.0,0.0,0.0,0.0,0.0,0.0,0.0,0.0,0.0,0.0,0.0,0.0,0.0,0.0,-0.223,0.0,0.0,0.0,0.0,0.0,0.0,0.0,0.0,0.0,0.0,0.0,0.0,0.0,0.0,0.0,0.0,0.0,0.0,0.0,0.0,0.0,0.0,0.0,0.0,0.0,0.0,0.0,0.0,0.0,0.0,0.0,0.0,0.0,0.0,0.0,0.0,0.0,0.0,0.0,0.0,0.0,0.0,0.0,0.0,0.0,0.0,0.0,0.0,0.0,0.0,0.0,0.0,0.0,0.0,0.0,0.0,0.0,0.0,0.0,-0.4108,-0.3149,-0.2432,-0.1551,-0.0481,0.0392,0.1358,0.0,0.0,0.0,0.0,0.0,0.0,0.0,0.0,0.0,0.0,0.0,0.0,0.0,0.0,0.0,0.0,0.0,0.0,0.0,0.0,0.0,0.0,0.0,0.0,0.0,0.0,0.0,0.0,0.0,0.0,0.0,0.0,0.0,0.0,0.0,0.0,0.0,0.0,0.0,0.0,0.0,0.0,0.0,0.0,0.0,0.0,0.0,0.0,0.0,0.0,0.0,0.0,0.0,0.0,0.0,0.0,0.0,0.0,0.0,0.0,0.0,0.0,0.0,0.0,0.0,0.0,0.0,0.0,0.0,0.0,0.0,0.0,0.0,0.0,0.0,0.0,0.0,0.0,0.0,0.0,0.0,0.0,0.0,0.0,0.0,0.0,0.0,0.0,0.0,0.0,0.0,0.0,0.0,0.0,0.0,0.0,0.0,0.0,0.0,0.0,0.0,0.0,0.0,0.0,0.0,0.0,0.0,-0.4349,-0.3655,-0.2749,-0.2045,-0.1253,-0.0266,0.0531,0.139,0.2345,0.0,0.0,0.0,0.0,0.0,0.0,0.0,0.0,0.0,0.0,0.0,0.0,0.0,0.0,0.0,0.0,0.0,0.0,0.0,0.0,0.0,0.0,0.0,0.0,0.0,0.0,0.0,0.0,0.0,0.0,0.0,0.0,0.0,0.0,0.0,0.0,0.0,0.0,-0.3132,-0.2786,0.0,0.0,0.0,0.0,0.0,0.0,0.0,0.0,-0.209,0.0,0.0,0.0,0.0,0.0,0.0,0.0,0.0,0.0,0.0,0.0,0.0,0.0,0.0,0.0,0.0,0.0,0.0,0.0,0.0,0.0,0.0,0.0,0.0,0.0,0.0,0.0,0.0,0.0,0.0,0.0,0.0,0.0,0.0,0.0,0.0,0.0,0.0,0.0,0.0,0.0,0.0,0.0,0.0,0.0,0.0,0.0,0.0,0.0,0.0,0.0,0.0,0.0,0.0,0.0,0.0,-0.4323,-0.3909,-0.3262,-0.2403,-0.1685,-0.0906,-0.0075,0.0788,0.1563,0.2296,0.0,0.0,0.0,0.0,0.0,0.0,0.0,0.0,0.0,0.0,0.0,0.0,0.0,0.0,0.0,0.0,0.0,0.0,0.0,0.0,0.0,0.0,0.0,0.0,0.0,0.0,0.0,0.0,0.0,0.0,0.0,0.0,0.0,0.0,0.0,0.0,0.0,0.0,0.0,-0.2933,-0.267,0.0,0.0,0.0,0.0,0.0,0.0,0.0,0.0,-0.1757,0.0,0.0,0.0,0.0,0.0,0.0,0.0,0.0,0.0,0.0,0.0,0.0,0.0,0.0,0.0,0.0,0.0,0.0,0.0,0.0,0.0,0.0,0.0,0.0,0.0,0.0,0.0,0.0,0.0,0.0,0.0,0.0,0.0,0.0,0.0,0.0,0.0,0.0,0.0,0.0,0.0,0.0,0.0,0.0,0.0,0.0,0.0,0.0,0.0,0.0,0.0,0.0,0.0,0.0,0.0,-0.3842,-0.3365,-0.2763,-0.201,-0.1306,-0.0599,0.0146,0.0901,0.1632,0.0,0.0,0.0,0.0,0.0,0.0,0.0,0.0,0.0,0.0,0.0,0.0,0.0,0.0,0.0,0.0,0.0,0.0,0.0,0.0,0.0,0.0,0.0,0.0,0.0,0.0,0.0,0.0,0.0,0.0,0.0,0.0,0.0,0.0,0.0,0.0,0.0,0.0,0.0,0.0,-0.3064,-0.2865,-0.2727,0.0,0.0,0.0,0.0,0.0,0.0,-0.1833,-0.1667,0.0,0.0,0.0,0.0,0.0,0.0,0.0,0.0,0.0,0.0,0.0,0.0,0.0,0.0,0.0,0.0,0.0,0.0,0.0,0.0,0.0,0.0,0.0,0.0,0.0,0.0,0.0,0.0,0.0,0.0,0.0,0.0,0.0,0.0,0.0,0.0,0.0,0.0,0.0,0.0,0.0,0.0,0.0,0.0,0.0,0.0,0.0,0.0,0.0,0.0,0.0,0.0,0.0,0.0,0.0,-0.3303,-0.2798,-0.2222,-0.1616,-0.093,-0.0285,0.0346,0.0995,0.1618,0.0,0.0,0.0,0.0,0.0,0.0,0.0,0.0,0.0,0.0,0.0,0.0,0.0,0.0,0.0,0.0,0.0,0.0,0.0,0.0,0.0,0.0,0.0,0.0,0.0,0.0,0.0,0.0,0.0,0.0,0.0,0.0,0.0,0.0,0.0,0.0,0.0,0.0,0.0,0.0,0.0,-0.305,-0.2815,-0.2545,0.0,0.0,0.0,0.0,-0.1954,-0.1777,0.0,0.0,0.0,0.0,0.0,0.0,0.0,0.0,0.0,0.0,0.0,0.0,0.0,0.0,0.0,0.0,0.0,0.0,0.0,0.0,0.0,0.0,0.0,0.0,0.0,0.0,0.0,0.0,0.0,0.0,0.0,0.0,0.0,0.0,0.0,0.0,0.0,0.0,0.0,0.0,0.0,0.0,0.0,0.0,0.0,0.0,0.0,0.0,0.0,0.0,0.0,0.0,0.0,0.0,0.0,0.0,-0.2626,-0.2195,-0.1742,-0.1246,-0.0593,0.0,0.0565,0.1092,0.1616,0.0,0.0,0.0,0.0,0.0,0.0,0.0,0.0,0.0,0.0,0.0,0.0,0.0,0.0,0.0,0.0,0.0,0.0,0.0,0.0,0.0,0.0,0.0,0.0,0.0,0.0,0.0,0.0,0.0,0.0,0.0,0.0,0.0,0.0,0.0,0.0,0.0,0.0,0.0,0.0,0.0,-0.3236,-0.309,-0.2624,-0.2286,0.0,0.0,0.0,-0.1777,-0.1614,0.0,0.0,0.0,0.0,0.0,0.0,0.0,0.0,0.0,0.0,0.0,0.0,0.0,0.0,0.0,0.0,0.0,0.0,0.0,0.0,0.0,0.0,0.0,0.0,0.0,0.0,0.0,0.0,0.0,0.0,0.0,0.0,0.0,0.0,0.0,0.0,0.0,0.0,0.0,0.0,0.0,0.0,0.0,0.0,0.0,0.0,0.0,0.0,0.0,0.0,0.0,0.0,0.0,0.0,0.0,-0.2257,-0.2092,-0.171,-0.1306,-0.0863,-0.035,0.0187,0.0755,0.1214,0.1675,0.0,0.0,0.0,0.0,0.0,0.0,0.0,0.0,0.0,0.0,0.0,0.0,0.0,0.0,0.0,0.0,0.0,0.0,0.0,0.0,0.0,0.0,0.0,0.0,0.0,0.0,0.0,0.0,0.0,0.0,0.0,0.0,0.0,0.0,0.0,0.0,0.0,0.0,0.0,0.0,0.0,0.0,-0.3138,-0.2738,0.0,0.0,0.0,-0.1928,-0.1736,0.0,0.0,0.0,0.0,0.0,0.0,0.0,0.0,0.0,0.0,0.0,0.0,0.0,0.0,0.0,0.0,0.0,0.0,0.0,0.0,0.0,0.0,0.0,0.0,0.0,0.0,0.0,0.0,0.0,0.0,0.0,0.0,0.0,0.0,0.0,0.0,0.0,0.0,0.0,0.0,0.0,0.0,0.0,0.0,0.0,0.0,0.0,0.0,0.0,0.0,0.0,0.0,0.0,0.0,0.0,0.0,0.0,-0.1553,-0.1197,-0.086,-0.0505,-0.0123,0.0378,0.0918,0.1298,0.0,0.0,0.0,0.0,0.0,0.0,0.0,0.0,0.0,0.0,0.0,0.0,0.0,0.0,0.0,0.0,0.0,0.0,0.0,0.0,0.0,0.0,0.0,0.0,0.0,0.0,0.0,-0.1444,0.0,0.0,0.0,0.0,0.0,0.0,0.0,0.0,0.0,0.0,0.0,0.0,0.0,0.0,-0.3398,-0.313,-0.2839,-0.2544,0.0,0.0,-0.1851,-0.1712,-0.141,-0.1128,0.0,0.0,0.0,0.0,0.0,0.0,0.0,0.0,0.0,0.0,0.0,0.0,0.0,0.0,0.0,0.0,0.0,0.0,0.0,0.0,0.0,0.0,0.0,0.0,0.0,0.0,0.0,0.0,0.0,0.0,0.0,0.0,0.0,0.0,0.0,0.0,0.0,0.0,0.0,0.0,0.0,0.0,0.0,0.0,0.0,0.0,0.0,0.0,0.0,0.0,0.0,0.0,0.0,0.0,0.0,-0.0846,-0.0654,-0.0435,-0.0215,0.0165,0.0578,0.099,0.133,0.1663,0.0,0.0,0.0,0.0,0.0,0.0,0.0,0.0,0.0,0.0,0.0,0.0,0.0,0.0,0.0,0.0,0.0,0.0,0.0,0.0,0.0,0.0,0.0,0.0,0.0,0.0,0.0,0.0,0.0,0.0,0.0,0.0,0.0,0.0,0.0,0.0,0.0,0.0,0.0,0.0,0.0,-0.3409,-0.3139,-0.2876,-0.2613,0.0,0.0,-0.1854,-0.1709,-0.1427,-0.1128,-0.0926,0.0,0.0,0.0,0.0,0.0,0.0,0.0,0.0,0.0,0.0,0.0,0.0,0.0,0.0,0.0,0.0,0.0,0.0,0.0,0.0,0.0,0.0,0.0,0.0,0.0,0.0,0.0,0.0,0.0,0.0,0.0,0.0,0.0,0.0,0.0,0.0,0.0,0.0,0.0,0.0,0.0,0.0,0.0,0.0,0.0,0.0,0.0,0.0,0.0,0.0,0.0,0.0,0.0,-0.0468,-0.0435,-0.0313,-0.014,0.0094,0.0423,0.0764,0.1163,0.1593,0.1957,0.0,0.0,0.0,0.0,0.0,0.0,0.0,0.0,0.0,0.0,0.0,0.0,0.0,0.0,0.0,0.0,0.0,0.0,0.0,0.0,0.0,0.0,0.0,0.0,0.0,0.0,0.0,0.0,-0.1083,-0.0844,-0.0614,0.0,0.0,0.0,0.0,0.0,0.0,0.0,0.0,0.0,0.0,-0.3237,-0.3023,-0.2742,0.0,0.0,-0.2081,-0.1845,-0.1676,-0.1377,-0.1162,-0.1044,-0.0875,0.0,0.0,0.0,0.0,0.0,0.0,0.0,0.0,0.0,0.0,0.0,0.0,0.0,0.0,0.0,0.0,0.0,0.0,0.0,0.0,0.0,0.0,0.0,0.0,0.0,0.0,0.0,0.0,0.0,0.0,0.0,0.0,0.0,0.0,0.0,0.0,0.0,0.0,0.0,0.0,0.0,0.0,0.0,0.0,0.0,0.0,0.0,0.0,0.0,0.0,0.0,0.0,-0.0075,-0.0084,0.0,0.0134,0.036,0.063,0.0973,0.1367,0.1976,0.2381,0.0,0.0,0.0,0.0,0.0,0.0,0.0,0.0,0.0,0.0,0.0,0.0,0.0,0.0,0.0,0.0,0.0,0.0,0.0,0.0,0.0,0.0,0.0,0.0,0.0,0.0,0.0,0.0,-0.0948,-0.0665,-0.0453,0.0,0.0,0.0,0.0,0.0,0.0,0.0,0.0,0.0,0.0,-0.301,-0.2858,-0.2623,-0.2411,-0.2267,-0.2047,-0.1826,-0.1657,-0.1444,-0.1286,-0.122,0.0,0.0,0.0,0.0,0.0,0.0,0.0,0.0,0.0,0.0,0.0,0.0,0.0,0.0,0.0,0.0,0.0,0.0,0.0,0.0,0.0,0.0,0.0,0.0,0.0,0.0,0.0,0.0,0.0,0.0,0.0,0.0,0.0,0.0,0.0,0.0,0.0,0.0,0.0,0.0,0.0,0.0,0.0,0.0,0.0,0.0,0.0,0.0,0.0,0.0,0.0,0.0,0.0,0.0314,0.0197,0.0328,0.0414,0.0507,0.0817,0.1144,0.1499,0.2462,0.3005,0.3089,0.0,0.0,0.0,0.0,0.0,0.0,0.0,0.0,0.0,0.0,0.0,0.0,0.0,0.0,0.0,0.0,0.0,0.0,0.0,0.0,0.0,0.0,0.0,0.0,0.0,0.0,-0.1109,-0.0675,-0.0379,0.0,0.0,0.0,0.0,0.0,0.0,0.0,0.0,0.0,0.0,-0.2845,-0.2782,-0.2712,-0.2527,-0.2311,-0.2131,-0.1981,-0.1847,-0.173,-0.1583,-0.1492,0.0,0.0,0.0,0.0,0.0,0.0,0.0,0.0,0.0,0.0,0.0,0.0,0.0,0.0,0.0,0.0,0.0,0.0,0.0,0.0,0.0,0.0,0.0,0.0,0.0,0.0,0.0,0.0,0.6213,0.0,0.0,0.0,0.0,0.0,0.0,0.0,0.0,0.0,0.0,0.0,0.3097,0.3187,0.0,0.0,0.0,0.0,0.0,0.0,0.0,0.0,0.0,0.0,0.0,0.0,0.0612,0.0533,0.0588,0.0655,0.0774,0.1018,0.1401,0.194,0.2472,0.3149,0.4014,0.0,0.0,0.0,0.0,0.0,0.0,0.0,0.0,0.0,0.0,0.0,0.0,0.0,0.0,0.0,0.0,0.0,0.0,0.0,0.0,0.0,0.0,0.0,0.0,0.0,-0.0834,0.0,0.0,0.0,0.0,0.0,0.0,0.0,0.0,0.0,0.0,0.0,-0.24,-0.25,-0.2527,-0.251,-0.2433,-0.2264,-0.2114,0.0,0.0,0.0,0.0,0.0,0.0,0.0,0.0,0.0,0.0,0.0,0.0,0.0,0.0,-0.233,-0.29,-0.3344,-0.3755,-0.4187,0.0,0.0,0.0,0.0,0.0,0.0,0.0,0.0,0.0,0.0,0.0,0.0,0.0,0.0,0.0,0.0,0.6397,0.0,0.0,0.0,0.0,0.0,0.0,0.0,0.0,0.3,0.2986,0.3038,0.3129,0.3199,0.0,0.3312,0.3347,0.0,0.0,0.0,0.0,0.0,0.0,0.0,0.0,0.0895,0.0811,0.0839,0.0907,0.0958,0.1147,0.1665,0.256,0.3404,0.4188,0.4927,0.5126,0.5028,0.0,0.0,0.0,0.0,0.0,0.0,0.0,0.0,0.0,0.0,0.0,0.0,0.0,0.0,0.0,0.0,0.0,0.0,0.0,0.0,0.0,0.0,0.0,-0.0439,0.0,0.0,0.0,0.0,0.0,0.0,0.0,0.0,0.0,-0.1823,-0.2014,-0.2131,-0.2217,-0.2247,-0.2245,-0.2241,0.0,0.0,0.0,0.0,0.0,0.0,0.0,-0.1655,-0.1722,-0.1687,-0.1685,-0.1787,-0.1775,-0.1762,-0.1707,0.0,0.0,-0.2632,-0.3037,-0.3411,-0.3828,-0.418,-0.4485,-0.4675,-0.4745,-0.4761,0.0,0.0,0.0,0.0,0.0,0.0,0.0,0.0,0.6793,0.6858,0.0,0.676,0.0,0.0,0.0,0.0,0.0,0.0,0.0,0.0,0.3171,0.3159,0.3275,0.3294,0.3317,0.3382,0.3394,0.3394,0.3379,0.3203,0.0,0.0,0.0,0.0,0.0,0.0,0.1146,0.1031,0.1145,0.1179,0.1119,0.1228,0.1948,0.3293,0.5133,0.6002,0.5818,0.6154,0.5997,0.5204,0.4715,0.0,0.0,0.0,0.0,0.0,0.0,0.0,0.0,0.0,0.0,0.0,0.0,0.0,0.0,0.0,0.0,0.0,0.0,0.0,0.0,-0.0248,0.0,0.0,0.0,0.0,0.0,0.0,0.0,0.0,0.0,0.0,-0.1611,-0.169,-0.1785,-0.2063,0.0,0.0,0.0,0.0,-0.1799,-0.1787,-0.1746,-0.1667,-0.153,-0.1512,-0.158,-0.1776,0.0,0.0,-0.1975,-0.1946,-0.1873,-0.1742,-0.1709,-0.1846,-0.2297,-0.2642,-0.3013,-0.3399,-0.3794,-0.4115,-0.4323,-0.4317,-0.4307,0.7937,0.0,0.0,0.0,0.0,0.692,0.6829,0.6728,0.672,0.6717,0.6698,0.6607,0.0,0.0,0.0,0.0,0.0,0.0,0.3509,0.3301,0.3162,0.312,0.3162,0.3162,0.322,0.332,0.332,0.332,0.3317,0.3268,0.3053,0.2701,0.0,0.0,0.0,0.0,0.1454,0.1361,0.1395,0.138,0.1313,0.1393,0.2152,0.3632,0.4941,0.5721,0.5936,0.6186,0.5887,0.4944,0.4339,0.0,0.0,0.0,0.0,0.0,0.0,0.0,0.0,0.0,0.0,0.0,0.0,0.0,0.0,0.0,0.0,0.0,0.0,0.0,0.0101,0.019,0.024,0.0,0.0,0.0,0.0,0.0,0.0,0.0,0.0,0.0,-0.1153,-0.1409,-0.1614,0.0,0.0,-0.1794,-0.1818,-0.1687,-0.1617,-0.1699,0.0,0.0,0.0,-0.1694,-0.1715,-0.1801,-0.1872,-0.1941,-0.1859,-0.1912,-0.1907,-0.1739,-0.1761,-0.1855,-0.1894,-0.2245,-0.2658,-0.3002,-0.3272,-0.353,-0.3766,-0.3805,-0.3839,0.828,0.7927,0.7644,0.7414,0.7222,0.7157,0.7092,0.7023,0.6984,0.6972,0.6953,0.6837,0.6591,0.6252,0.563,0.0,0.0,0.0,0.3724,0.3443,0.3378,0.3341,0.33,0.3303,0.3344,0.3409,0.3426,0.3429,0.3409,0.3429,0.3269,0.2965,0.0,0.0,0.208,0.1886,0.1756,0.1665,0.1638,0.1605,0.1549,0.1988,0.2543,0.3207,0.4952,0.5915,0.5907,0.6392,0.6303,0.5532,0.4639,0.4109,0.0,0.0,0.0,0.0,0.0,0.0,0.0,0.0,0.0,0.0,0.0,0.1596,0.1219,0.0,0.0,0.0,0.0586,0.0557,0.0505,0.0516,0.0,0.0,0.0,0.0,0.0,0.0,0.0,-0.0403,-0.0554,-0.0685,-0.0789,-0.0975,-0.1206,-0.1516,-0.1587,-0.1635,-0.1707,0.0,-0.154,-0.1651,-0.1611,-0.1574,-0.1595,-0.1608,-0.1658,-0.1705,-0.1884,-0.196,-0.1909,-0.1959,-0.1939,-0.18,-0.1842,-0.1862,-0.1715,-0.2009,-0.2333,-0.2636,-0.2874,-0.313,-0.3393,-0.352,-0.3586,0.8904,0.8728,0.8185,0.7869,0.7771,0.7651,0.7595,0.7581,0.7511,0.7504,0.7539,0.7363,0.7065,0.6689,0.5788,0.0,0.0,0.4445,0.4139,0.3758,0.3735,0.3698,0.3638,0.3638,0.3638,0.3634,0.3638,0.3631,0.3617,0.3617,0.3495,0.3219,0.2909,0.264,0.2452,0.225,0.2086,0.1943,0.189,0.183,0.1823,0.2689,0.2934,0.2447,0.5039,0.6208,0.5732,0.6579,0.6906,0.6461,0.5324,0.4464,0.4002,0.0,0.0,0.0,0.0,0.0,0.0,0.0,0.0,0.0,0.0,0.0,0.0,0.0,0.0,0.0,0.077,0.0,0.0812,0.0775,0.0,0.0,0.0,0.0641,0.044,0.024,0.0021,-0.0169,0.0,0.0,0.0,0.0,-0.0676,-0.1162,-0.1366,-0.1508,-0.1637,-0.1541,-0.1476,-0.1575,-0.1477,-0.1411,-0.1428,-0.1432,-0.1457,-0.1569,-0.1794,-0.1951,-0.1943,-0.1958,-0.1928,-0.1817,-0.1845,-0.1819,-0.1691,-0.1832,-0.2055,-0.2281,-0.2577,-0.2849,-0.3109,-0.3323,-0.3483,0.8755,0.8693,0.8456,0.8398,0.8458,0.8329,0.8246,0.8246,0.8139,0.8031,0.7932,0.7916,0.7563,0.6976,0.6414,0.5847,0.5339,0.499,0.461,0.4225,0.4132,0.4014,0.3893,0.389,0.3914,0.3914,0.3914,0.3856,0.3744,0.3741,0.3666,0.3505,0.3314,0.3089,0.278,0.2618,0.2477,0.2351,0.2286,0.2147,0.1953,0.2031,0.2447,0.3207,0.3955,0.4719,0.5534,0.5976,0.5932,0.532,0.477,0.4258,0.3792,0.3584,0.0,0.0,0.0,0.0,0.0,0.0,0.0,0.0,0.0,0.1934,0.1537,0.0,0.1366,0.0,0.1055,0.1,0.0954,0.0985,0.0,0.0,0.0972,0.0816,0.0707,0.0353,0.0064,-0.0022,-0.0268,-0.0405,-0.0427,-0.0472,-0.0535,-0.0677,-0.0891,-0.1089,-0.1212,-0.1212,-0.1239,-0.134,-0.1344,-0.1344,-0.1389,-0.1411,-0.1411,-0.1457,-0.1591,-0.1705,-0.1705,-0.1781,-0.1837,-0.1736,-0.1731,-0.1663,-0.1505,-0.1584,-0.1731,-0.1868,-0.2192,-0.259,-0.2904,-0.3089,-0.3253,0.942,0.922,0.9163,0.9051,0.889,0.858,0.8405,0.8405,0.8271,0.8183,0.8089,0.7916,0.7607,0.7218,0.6713,0.6223,0.5756,0.5374,0.4931,0.449,0.4367,0.4168,0.3994,0.3994,0.3994,0.3994,0.3994,0.3978,0.3897,0.3894,0.3816,0.3699,0.3605,0.3448,0.3213,0.2956,0.278,0.267,0.2512,0.2327,0.2053,0.1937,0.2172,0.2824,0.3353,0.3978,0.4684,0.5044,0.5097,0.4775,0.4185,0.3761,0.3502,0.3427,0.3422,0.0,0.0,0.0,0.0,0.0,0.0,0.0,0.0,0.0,0.0,0.0,0.1495,0.0,0.1254,0.0,0.1268,0.1229,0.1216,0.1287,0.114,0.0957,0.0817,0.0557,0.0306,0.0179,0.0045,-0.0045,-0.0045,-0.0067,-0.0112,-0.018,-0.0359,-0.0627,-0.094,-0.1007,-0.1074,-0.1254,-0.1321,-0.1321,-0.1389,-0.1411,-0.1411,-0.1411,-0.1524,-0.1591,-0.1591,-0.1705,-0.1757,-0.1675,-0.1708,-0.1674,-0.1484,-0.1527,-0.161,-0.1675,-0.1856,-0.2178,-0.2587,-0.2805,-0.2994,1.0285,0.9922,0.9922,0.9657,0.9262,0.8665,0.84,0.8365,0.8246,0.8204,0.818,0.7788,0.7588,0.7467,0.6962,0.6496,0.6066,0.5675,0.5181,0.4659,0.4526,0.4325,0.4077,0.4051,0.4077,0.4077,0.4051,0.407,0.4024,0.4024,0.3947,0.3826,0.3822,0.3774,0.3605,0.3276,0.3053,0.2946,0.2673,0.2393,0.2164,0.2141,0.2102,0.2105,0.3036,0.3599,0.3704,0.4123,0.4412,0.4474,0.373,0.3234,0.3142,0.3263,0.3277,0.0,0.3387,0.0,0.0,0.0,0.0,0.0,0.0,0.0,0.0,0.1853,0.1781,0.1716,0.1483,0.1425,0.1579,0.1449,0.1359,0.1426,0.1305,0.1118,0.0893,0.0791,0.0652,0.0472,0.045,0.0427,0.0427,0.045,0.0382,0.027,0.0135,-0.0135,-0.0627,-0.0784,-0.0941,-0.1187,-0.1254,-0.1299,-0.1321,-0.1344,-0.1344,-0.1366,-0.1457,-0.1547,-0.1547,-0.1658,-0.1703,-0.1612,-0.1654,-0.1674,-0.1523,-0.1513,-0.1561,-0.1555,-0.1564,-0.1728,-0.2225,-0.2513,-0.2729,1.015,1.0044,0.9958,0.9845,0.9734,0.9248,0.899,0.8863,0.8715,0.8689,0.8644,0.8475,0.8287,0.8007,0.7536,0.7061,0.6548,0.61,0.5569,0.5,0.4861,0.4673,0.4406,0.4406,0.4406,0.4406,0.4406,0.4317,0.4153,0.4153,0.4102,0.3954,0.395,0.39,0.0,0.0,0.0,0.0,0.2775,0.257,0.2498,0.2344,0.2281,0.2323,0.2621,0.0,0.3608,0.3962,0.4132,0.4029,0.3815,0.0,0.0,0.0,0.0,0.0,0.0,0.0,0.0,0.0,0.0,0.0,0.3508,0.3564,0.3465,0.3177,0.2927,0.2792,0.213,0.1703,0.1674,0.1597,0.158,0.1622,0.1435,0.1277,0.1189,0.1003,0.0851,0.0807,0.0718,0.0652,0.0652,0.0652,0.0652,0.0607,0.0494,0.0315,0.0022,-0.0337,-0.0606,-0.0809,-0.1008,-0.1142,-0.1165,-0.1142,-0.1142,-0.1165,-0.1277,-0.1344,-0.1366,-0.1435,-0.1479,-0.1435,-0.1479,-0.1458,-0.1356,-0.1358,-0.1359,-0.1364,-0.1329,-0.1429,-0.1964,-0.2231,-0.247,1.0446,0.0,1.0189,1.0019,0.0,0.9548,0.94,0.9322,0.8958,0.8778,0.8778,0.8659,0.8501,0.8268,0.7809,0.7354,0.6864,0.6349,0.5809,0.5344,0.5038,0.4791,0.4605,0.4519,0.4491,0.4491,0.4491,0.445,0.4355,0.4328,0.4277,0.4083,0.4105,0.4031,0.3907,0.3829,0.3597,0.3202,0.3,0.2822,0.2691,0.2587,0.2511,0.2444,0.0,0.0,0.0,0.0,0.0,0.0,0.0,0.0,0.0,0.0,0.0,0.2907,0.3164,0.326,0.3164,0.3261,0.3655,0.4388,0.5566,0.5732,0.4507,0.4932,0.4716,0.3433,0.3423,0.307,0.1984,0.1761,0.1714,0.1734,0.1627,0.1511,0.1449,0.1344,0.1232,0.1165,0.1099,0.1055,0.1032,0.1055,0.1032,0.1009,0.0875,0.0718,0.0449,0.0045,-0.0337,-0.0652,-0.0852,-0.0985,-0.0985,-0.0941,-0.0898,-0.092,-0.1008,-0.1074,-0.1098,-0.1232,-0.1344,-0.1344,-0.1344,-0.1355,-0.1349,-0.13,-0.1245,-0.1282,-0.1274,-0.1354,-0.1695,-0.1933,-0.2197,1.0836,1.0445,1.0438,1.0241,0.9869,0.9816,0.9726,0.9682,0.0,0.0,0.0,0.8844,0.867,0.8444,0.8009,0.7582,0.7085,0.6512,0.6023,0.5618,0.5207,0.4918,0.4734,0.4643,0.4584,0.4532,0.4528,0.4515,0.4491,0.4491,0.4402,0.4271,0.426,0.4183,0.4035,0.3907,0.3674,0.3329,0.3267,0.3132,0.288,0.2866,0.2759,0.2587,0.2577,0.254,0.2413,0.2553,0.2691,0.2836,0.2805,0.2846,0.3018,0.3023,0.3027,0.3014,0.3154,0.324,0.3231,0.3394,0.3995,0.515,0.7224,0.766,0.581,0.6832,0.6565,0.4186,0.4751,0.4332,0.2265,0.1943,0.1876,0.1828,0.1844,0.1794,0.1658,0.1636,0.1569,0.1479,0.1457,0.1479,0.1457,0.1457,0.1435,0.1366,0.121,0.1031,0.0718,0.027,-0.018,-0.0539,-0.0695,-0.0762,-0.0761,-0.0628,-0.0584,-0.0562,-0.0695,-0.0807,-0.0873,-0.1053,-0.1232,-0.1277,-0.1277,-0.1276,-0.1316,-0.1253,-0.1189,-0.1265,-0.1274,-0.128,-0.1455,-0.1673,-0.1953,1.0858,1.0564,1.0595,1.0537,1.0452,1.0167,0.992,0.9708,0.9621,0.9559,0.9595,0.9559,0.9243,0.8724,0.8426,0.7919,0.7263,0.663,0.6164,0.0,0.5583,0.5264,0.4901,0.5029,0.4959,0.4696,0.4689,0.4617,0.4501,0.4491,0.4477,0.446,0.446,0.4358,0.419,0.4038,0.388,0.3704,0.3415,0.3265,0.3246,0.3099,0.2996,0.2856,0.2884,0.2787,0.2492,0.262,0.2674,0.2643,0.2635,0.2662,0.2731,0.2753,0.2717,0.2672,0.2645,0.2631,0.2621,0.2713,0.3157,0.4121,0.6154,0.7783,0.8758,0.8625,0.7794,0.6062,0.5237,0.4166,0.2499,0.2188,0.2096,0.1987,0.1966,0.1908,0.1794,0.1794,0.1772,0.1749,0.1749,0.1749,0.1749,0.1749,0.1682,0.1569,0.1412,0.1187,0.0763,0.0315,-0.009,-0.0337,-0.036,-0.0315,-0.0292,-0.0202,-0.0112,-0.009,-0.0292,-0.0472,-0.0516,-0.0739,-0.0963,-0.1098,-0.112,-0.112,-0.114,-0.1083,-0.1098,-0.1183,-0.1153,-0.1157,-0.1376,-0.1568,-0.1775,1.0989,1.0679,1.0763,1.0734,1.0579,1.0445,1.0311,1.0191,1.0191,0.9973,0.9722,0.9715,0.952,0.9172,0.8845,0.8406,0.7813,0.7216,0.6697,0.6218,0.5893,0.5555,0.5206,0.5182,0.5058,0.4816,0.4816,0.4735,0.4624,0.4585,0.4569,0.4494,0.4491,0.4392,0.4197,0.4153,0.4045,0.3914,0.3677,0.3489,0.3309,0.3219,0.3155,0.301,0.3037,0.2938,0.271,0.2787,0.2795,0.2697,0.2675,0.269,0.2755,0.2755,0.274,0.2709,0.269,0.2659,0.2659,0.3315,0.394,0.4555,0.6147,0.7462,0.8284,0.8618,0.767,0.5267,0.4868,0.4211,0.2617,0.238,0.2323,0.2166,0.2172,0.2105,0.2018,0.202,0.202,0.202,0.202,0.202,0.202,0.202,0.1953,0.1727,0.1524,0.121,0.0851,0.0561,0.027,0.0,-0.0022,0.0045,0.0112,0.0202,0.0292,0.0382,0.018,0.0,-0.0112,-0.0381,-0.065,-0.083,-0.0875,-0.0942,-0.1053,-0.0996,-0.1042,-0.1158,-0.117,-0.1201,-0.1362,-0.1611,-0.1989,1.1254,1.0889,1.1022,1.0922,1.068,1.0613,1.0586,1.0586,1.0586,1.0332,0.9943,0.9909,0.9794,0.9581,0.925,0.8817,0.8298,0.7731,0.7195,0.6697,0.6259,0.5884,0.5552,0.5428,0.5243,0.5034,0.4965,0.486,0.4755,0.4711,0.4641,0.4505,0.4491,0.4406,0.4274,0.4271,0.4196,0.4051,0.3955,0.3751,0.3417,0.3376,0.331,0.3204,0.3194,0.3145,0.3044,0.3034,0.3014,0.2933,0.2888,0.2867,0.2905,0.2905,0.2905,0.2867,0.2836,0.2784,0.2784,0.3595,0.4229,0.4511,0.5831,0.6531,0.6413,0.7453,0.7084,0.4683,0.4734,0.435,0.2899,0.2541,0.2491,0.2398,0.2402,0.2402,0.2372,0.2353,0.2342,0.2327,0.2298,0.2248,0.2225,0.2221,0.2087,0.1817,0.1524,0.121,0.0985,0.083,0.0629,0.045,0.0337,0.0382,0.0494,0.0584,0.0674,0.0787,0.0629,0.0449,0.0247,-0.0045,-0.036,-0.0562,-0.0652,-0.0741,-0.0941,-0.0942,-0.0953,-0.11,-0.1141,-0.1223,-0.1445,-0.1732,-0.2189,1.1657,1.1369,1.1355,1.1216,1.0935,1.072,1.0613,1.0613,1.0593,1.0573,1.0512,1.0519,1.0272,0.9864,0.9528,0.9071,0.848,0.7849,0.7389,0.7065,0.6696,0.6371,0.6006,0.5858,0.5672,0.5353,0.5178,0.5005,0.4867,0.4765,0.4644,0.4505,0.4491,0.4484,0.4467,0.4467,0.4399,0.418,0.416,0.4031,0.3765,0.3648,0.353,0.3461,0.3478,0.3464,0.3448,0.3456,0.341,0.3357,0.3327,0.3292,0.3251,0.3251,0.3194,0.3073,0.2908,0.2723,0.2561,0.263,0.2758,0.2851,0.4292,0.4604,0.3388,0.5049,0.5989,0.5131,0.5069,0.4324,0.2928,0.2687,0.2693,0.2663,0.2673,0.2711,0.2786,0.2846,0.2783,0.2685,0.2579,0.243,0.2366,0.2287,0.2123,0.1865,0.1563,0.1286,0.1104,0.0966,0.0876,0.0809,0.0742,0.0718,0.0829,0.0963,0.1008,0.103,0.094,0.0762,0.0538,0.0314,0.0022,-0.0292,-0.0472,-0.0561,-0.0696,-0.0742,-0.0807,-0.104,-0.1125,-0.118,-0.1547,-0.1836,-0.2184,1.1915,1.155,1.1648,1.1516,1.1243,1.1122,1.1069,1.1076,1.1076,1.1076,1.1076,1.1076,1.0783,1.0294,0.9938,0.9525,0.9049,0.8434,0.7902,0.7441,0.6985,0.6561,0.6181,0.5982,0.572,0.5437,0.53,0.5189,0.5012,0.4867,0.4748,0.4641,0.4596,0.458,0.4498,0.4491,0.4488,0.4514,0.4393,0.4363,0.4303,0.4018,0.3771,0.3648,0.3698,0.3686,0.3624,0.3618,0.3576,0.347,0.3382,0.332,0.3301,0.322,0.3162,0.3101,0.2911,0.2759,0.2639,0.2609,0.2609,0.263,0.3354,0.3499,0.2914,0.3738,0.4228,0.4138,0.3958,0.3518,0.2972,0.2881,0.2879,0.2876,0.2876,0.2899,0.2893,0.2976,0.2998,0.2955,0.2898,0.2837,0.275,0.2549,0.2263,0.1968,0.168,0.1465,0.1253,0.1117,0.1032,0.1009,0.0964,0.1008,0.1098,0.1165,0.121,0.1254,0.121,0.1053,0.0874,0.0651,0.0382,0.0022,-0.0202,-0.0382,-0.0562,-0.0674,-0.0763,-0.1004,-0.1225,-0.1332,-0.1594,-0.1835,-0.2097,1.2148,1.1847,1.1875,1.1785,1.1543,1.1422,1.143,1.143,1.143,1.143,1.143,1.143,1.1202,1.0796,1.0329,0.9924,0.9434,0.8797,0.822,0.7666,0.7143,0.6679,0.6247,0.6017,0.5756,0.5491,0.5422,0.5313,0.5103,0.5002,0.487,0.4772,0.4743,0.4722,0.4615,0.4629,0.4653,0.4732,0.4647,0.4628,0.4666,0.4431,0.418,0.392,0.3991,0.4001,0.3921,0.3913,0.3859,0.3726,0.363,0.3546,0.347,0.3366,0.3286,0.3229,0.3068,0.2907,0.2803,0.2787,0.2774,0.2804,0.2922,0.3034,0.3101,0.3123,0.3233,0.3461,0.3384,0.3384,0.3104,0.3072,0.3072,0.3094,0.3138,0.3148,0.3164,0.3267,0.3334,0.3298,0.3293,0.3201,0.3074,0.2786,0.2432,0.2102,0.187,0.1623,0.1397,0.1218,0.1118,0.1137,0.1107,0.1142,0.1277,0.1299,0.1344,0.1366,0.1321,0.1277,0.1165,0.092,0.0652,0.0247,0.0022,-0.0225,-0.0472,-0.0607,-0.0764,-0.1032,-0.1253,-0.1408,-0.1582,-0.1791,-0.1949,1.2482,1.2238,1.202,1.1877,1.1866,1.157,1.1415,1.1455,1.1429,1.1443,1.1435,1.1463,1.1389,1.1322,1.0748,1.0105,0.949,0.8819,0.823,0.7666,0.7143,0.6716,0.6387,0.6053,0.5789,0.555,0.5458,0.532,0.5113,0.5128,0.505,0.4911,0.4933,0.4908,0.4898,0.4906,0.4904,0.4967,0.4917,0.4842,0.4771,0.4938,0.4831,0.4439,0.4369,0.4401,0.4446,0.4465,0.4387,0.4243,0.4227,0.4101,0.3913,0.3847,0.3752,0.3588,0.3456,0.3256,0.3046,0.3008,0.2992,0.2998,0.3048,0.3129,0.3392,0.3309,0.3404,0.3614,0.4078,0.4055,0.3512,0.3296,0.3265,0.3373,0.35,0.3604,0.3726,0.3823,0.3881,0.3788,0.3708,0.3542,0.3173,0.2871,0.2589,0.2286,0.197,0.1712,0.1478,0.1291,0.1215,0.1203,0.1178,0.1166,0.1279,0.1358,0.1399,0.1428,0.1415,0.1399,0.1234,0.1053,0.0764,0.0472,0.0202,-0.0067,-0.036,-0.0584,-0.0763,-0.0986,-0.121,-0.1389,-0.1524,-0.1569,-0.1749,1.2783,1.2475,1.2228,1.2144,1.2138,1.2024,1.1984,1.1948,1.1984,1.1984,1.1991,1.1948,1.1891,1.1703,1.1255,1.057,0.9802,0.9064,0.8398,0.7713,0.7143,0.6679,0.6284,0.5987,0.5756,0.5491,0.5428,0.5368,0.532,0.5372,0.536,0.5266,0.5343,0.5415,0.5389,0.5291,0.5316,0.5498,0.5405,0.537,0.5398,0.5497,0.5422,0.5219,0.5061,0.4961,0.4879,0.4811,0.4713,0.4609,0.4429,0.4254,0.4166,0.399,0.388,0.3796,0.3622,0.3486,0.3394,0.3236,0.317,0.3258,0.335,0.3533,0.3806,0.3774,0.3867,0.431,0.4426,0.4362,0.411,0.3725,0.3518,0.362,0.3703,0.3829,0.4036,0.4218,0.4302,0.4259,0.4222,0.4034,0.364,0.3396,0.3077,0.2614,0.2331,0.2042,0.1741,0.1494,0.1335,0.1333,0.1296,0.1307,0.1355,0.1418,0.1471,0.1507,0.1536,0.1539,0.144,0.1378,0.1146,0.0756,0.0455,0.0091,-0.0206,-0.0637,-0.0793,-0.0991,-0.1217,-0.1299,-0.1435,-0.1502,-0.1658,1.29,1.2599,1.2378,1.2305,1.2305,1.2305,1.2305,1.2305,1.2305,1.2305,1.2305,1.2305,1.2184,1.1995,1.1607,1.1001,1.0228,0.9383,0.8578,0.7808,0.7261,0.6693,0.6238,0.5966,0.5707,0.5435,0.5395,0.5395,0.5425,0.5554,0.553,0.5471,0.5704,0.5833,0.5831,0.5791,0.5914,0.5997,0.594,0.594,0.5941,0.5982,0.5968,0.5905,0.5812,0.5611,0.5396,0.5269,0.519,0.5029,0.4772,0.4537,0.4372,0.4144,0.4016,0.395,0.3796,0.3713,0.371,0.3556,0.353,0.3687,0.3816,0.4047,0.4364,0.4361,0.4594,0.4857,0.4881,0.4736,0.4501,0.4155,0.3899,0.3892,0.3879,0.3993,0.427,0.4491,0.4653,0.4725,0.4697,0.4512,0.4159,0.3882,0.3461,0.2912,0.263,0.2329,0.1968,0.1658,0.1439,0.1436,0.1392,0.1381,0.1431,0.1488,0.1541,0.1574,0.16,0.163,0.1601,0.1584,0.1418,0.1034,0.0652,0.028,-0.014,-0.06,-0.0872,-0.105,-0.115,-0.1254,-0.1366,-0.1457,-0.1614,1.279,1.2599,1.2372,1.2305,1.2305,1.2305,1.2305,1.2305,1.2305,1.2305,1.2305,1.2305,1.2291,1.2204,1.1846,1.1346,1.0689,0.9719,0.885,0.8058,0.75,0.6892,0.6287,0.5996,0.5712,0.5419,0.5399,0.5395,0.5392,0.5554,0.5639,0.5647,0.5981,0.6168,0.6108,0.6463,0.6541,0.6461,0.6516,0.6449,0.6269,0.6337,0.6376,0.6416,0.6526,0.6389,0.5957,0.5883,0.5751,0.5586,0.5382,0.5061,0.4639,0.4436,0.4282,0.4173,0.4021,0.3976,0.3985,0.3986,0.4047,0.4205,0.4386,0.4571,0.4857,0.5102,0.5251,0.531,0.5288,0.5148,0.4798,0.456,0.4309,0.4052,0.4021,0.4187,0.4491,0.4767,0.5011,0.5199,0.5148,0.4991,0.4691,0.4273,0.3747,0.3213,0.2788,0.2419,0.2078,0.1763,0.155,0.1511,0.1521,0.1508,0.1531,0.1555,0.1596,0.164,0.1663,0.1689,0.1628,0.1591,0.1426,0.108,0.0609,0.0219,-0.0267,-0.0675,-0.0925,-0.1082,-0.1151,-0.1217,-0.1344,-0.1457,-0.1569,1.3119,1.2783,1.2599,1.2409,1.2305,1.2305,1.2305,1.2305,1.2305,1.2305,1.2305,1.2305,1.2305,1.2194,1.1892,1.1514,1.1175,1.0265,0.9347,0.8381,0.7846,0.7323,0.6773,0.6369,0.5972,0.559,0.544,0.5395,0.5465,0.5693,0.5789,0.5873,0.629,0.6655,0.6828,0.698,0.7078,0.7214,0.6997,0.6809,0.673,0.6646,0.663,0.6744,0.682,0.6764,0.6712,0.6375,0.6127,0.6005,0.5828,0.5548,0.523,0.5074,0.4907,0.4717,0.4646,0.4514,0.4424,0.4362,0.4385,0.4508,0.4668,0.4952,0.5272,0.5557,0.5704,0.5757,0.572,0.5532,0.5183,0.4904,0.4598,0.4193,0.4273,0.4491,0.4877,0.5285,0.5563,0.5595,0.5399,0.512,0.4822,0.4436,0.3941,0.3411,0.3021,0.2629,0.2233,0.1969,0.1795,0.1735,0.1687,0.1643,0.1671,0.1672,0.1694,0.1738,0.1759,0.1748,0.1684,0.1623,0.1428,0.1056,0.0587,0.0102,-0.038,-0.0726,-0.0963,-0.1136,-0.1231,-0.1319,-0.1378,-0.1463,-0.1563,1.3521,1.3083,1.2753,1.2526,1.2415,1.2335,1.2305,1.2305,1.2305,1.2305,1.2305,1.2305,1.2305,1.2231,1.1966,1.1669,1.1335,1.0775,0.9977,0.8969,0.828,0.7775,0.7303,0.6754,0.6332,0.5951,0.5813,0.5736,0.5716,0.6011,0.6148,0.6197,0.6708,0.7097,0.7326,0.7567,0.7786,0.785,0.7626,0.7425,0.7252,0.705,0.6958,0.6971,0.6982,0.7036,0.7133,0.6839,0.6597,0.6451,0.6192,0.5883,0.5584,0.5438,0.532,0.5128,0.5014,0.4907,0.4876,0.4787,0.4772,0.4867,0.5092,0.5315,0.5628,0.5882,0.6089,0.6126,0.6059,0.5864,0.5595,0.5238,0.4904,0.4581,0.455,0.4798,0.5207,0.5645,0.5891,0.5845,0.5622,0.5367,0.512,0.4684,0.4193,0.3719,0.3241,0.2852,0.2462,0.2155,0.2017,0.1878,0.181,0.1777,0.1789,0.1792,0.1792,0.1811,0.1831,0.1814,0.1744,0.1713,0.1595,0.1022,0.0534,-0.0027,-0.0507,-0.0809,-0.1076,-0.1201,-0.1346,-0.1364,-0.1432,-0.1435,-0.1524,1.4074,1.3521,1.2956,1.2742,1.2617,1.2469,1.2375,1.2305,1.2305,1.2305,1.2305,1.2305,1.2305,1.2268,1.2046,1.1781,1.1446,1.1186,1.0689,0.9863,0.9095,0.8416,0.7821,0.7138,0.6729,0.6495,0.6429,0.635,0.6264,0.6559,0.6637,0.6568,0.7118,0.7503,0.7629,0.8177,0.8324,0.8252,0.8306,0.8119,0.7748,0.7506,0.7303,0.7149,0.7133,0.7177,0.7225,0.7203,0.7128,0.6891,0.6535,0.6156,0.5779,0.5647,0.5591,0.5385,0.5176,0.5178,0.5246,0.5175,0.5127,0.5221,0.5512,0.5791,0.5814,0.6122,0.6365,0.6349,0.6305,0.6168,0.5978,0.565,0.5325,0.5128,0.4963,0.5101,0.554,0.5809,0.6005,0.6064,0.5868,0.5591,0.5508,0.5018,0.4494,0.3996,0.3463,0.3077,0.2689,0.2354,0.2099,0.1989,0.1878,0.1852,0.1824,0.1797,0.1797,0.1825,0.1852,0.1817,0.1753,0.1696,0.1528,0.097,0.0442,-0.0111,-0.0582,-0.0919,-0.1221,-0.1407,-0.1478,-0.1444,-0.1465,-0.149,-0.1583,1.4912,1.4225,1.4064,1.363,1.2986,1.2897,1.2655,1.2318,1.2311,1.2325,1.2305,1.2305,1.2305,1.2268,1.2083,1.1929,1.1744,1.1484,1.118,1.0738,1.0212,0.9173,0.8218,0.7751,0.7399,0.7094,0.6965,0.6821,0.6816,0.7055,0.7094,0.6988,0.7476,0.7774,0.7919,0.8327,0.8554,0.859,0.8456,0.8371,0.821,0.7873,0.7567,0.733,0.7321,0.7257,0.7193,0.7252,0.729,0.7209,0.6908,0.6653,0.6403,0.6261,0.6068,0.5835,0.5748,0.5641,0.5524,0.5483,0.5408,0.534,0.5603,0.5791,0.5822,0.6305,0.649,0.649,0.6549,0.6554,0.6228,0.6037,0.5845,0.5626,0.5458,0.5481,0.5786,0.6037,0.6146,0.6173,0.5927,0.5732,0.5485,0.5101,0.455,0.4107,0.3691,0.3302,0.2912,0.2607,0.2382,0.2099,0.1961,0.1906,0.1852,0.1825,0.1797,0.1797,0.1825,0.1824,0.1706,0.1595,0.1259,0.0811,0.039,-0.014,-0.0643,-0.108,-0.1339,-0.1587,-0.1618,-0.1608,-0.1568,-0.1589,-0.1683,1.5584,1.4979,1.463,1.4171,1.3673,1.339,1.3033,1.2675,1.2522,1.2405,1.2331,1.2305,1.2305,1.2268,1.2187,1.2077,1.1966,1.1744,1.1484,1.1186,1.0775,0.9868,0.886,0.8496,0.8263,0.7917,0.7775,0.7687,0.7658,0.7785,0.7815,0.7776,0.7991,0.8154,0.8276,0.8549,0.877,0.8839,0.871,0.8615,0.8528,0.8179,0.7833,0.7594,0.7481,0.7338,0.729,0.7359,0.7365,0.729,0.7149,0.6982,0.6793,0.6685,0.6495,0.6196,0.6114,0.595,0.5736,0.565,0.5513,0.5407,0.5603,0.5763,0.59,0.6332,0.662,0.6571,0.6766,0.6717,0.6554,0.6391,0.6228,0.6064,0.5927,0.5896,0.6,0.6119,0.6173,0.6091,0.5927,0.5713,0.5513,0.5073,0.4656,0.427,0.3913,0.3524,0.3163,0.2914,0.2635,0.2354,0.2099,0.2017,0.1962,0.1906,0.1824,0.1824,0.1797,0.1797,0.1713,0.1543,0.1206,0.0813,0.0336,-0.0168,-0.0645,-0.1093,-0.1392,-0.1594,-0.1692,-0.1722,-0.1679,-0.1653,-0.1749,1.6205,1.5746,1.5,1.4633,1.4455,1.3891,1.345,1.3133,1.2923,1.2661,1.2405,1.2325,1.2305,1.2305,1.2268,1.2187,1.2046,1.204,1.1863,1.1534,1.1116,1.0455,0.9834,0.9425,0.9125,0.8855,0.8808,0.8736,0.8648,0.8761,0.8711,0.8664,0.8715,0.8711,0.8779,0.8942,0.9062,0.9022,0.8967,0.8865,0.8709,0.8381,0.8101,0.7838,0.7524,0.7482,0.7493,0.7522,0.7446,0.7365,0.7338,0.7176,0.696,0.6933,0.6771,0.6468,0.6277,0.6091,0.5877,0.5759,0.5572,0.5489,0.5681,0.5822,0.5955,0.6386,0.6707,0.6707,0.6847,0.6874,0.6798,0.6603,0.6468,0.6359,0.6282,0.6173,0.6059,0.6119,0.6146,0.6005,0.5868,0.5599,0.5352,0.5073,0.4763,0.4408,0.4076,0.3777,0.3441,0.3193,0.2914,0.2635,0.241,0.2184,0.21,0.1987,0.1906,0.1824,0.1797,0.1797,0.1713,0.1543,0.1262,0.0897,0.0421,-0.0084,-0.0617,-0.1009,-0.1344,-0.1595,-0.1717,-0.1726,-0.173,-0.1721,-0.1778,1.7049,1.6467,1.6135,1.5569,1.4885,1.4503,1.4006,1.3432,1.3153,1.293,1.2681,1.2412,1.2318,1.2305,1.2305,1.2268,1.2257,1.2277,1.2232,1.2215,1.1721,1.152,1.1068,1.0498,0.9895,0.969,0.9652,0.9621,0.9611,0.9612,0.9654,0.958,0.9537,0.9478,0.931,0.9393,0.9446,0.9256,0.9087,0.8994,0.8922,0.8627,0.8359,0.811,0.7682,0.7592,0.7706,0.759,0.7553,0.7574,0.7494,0.7338,0.7117,0.7058,0.6923,0.6712,0.6468,0.6309,0.6119,0.5982,0.5845,0.5709,0.5814,0.5978,0.6123,0.6468,0.6739,0.6847,0.6982,0.7009,0.6901,0.6734,0.6652,0.6625,0.6463,0.6305,0.6173,0.6087,0.6032,0.5923,0.5654,0.5384,0.5274,0.4939,0.4688,0.4519,0.427,0.3971,0.3722,0.3471,0.3165,0.2858,0.2663,0.241,0.2127,0.2017,0.1906,0.1824,0.1796,0.1797,0.1741,0.1572,0.1318,0.0954,0.0533,0.0028,-0.0505,-0.0925,-0.1261,-0.1515,-0.1741,-0.1753,-0.1768,-0.1768,-0.1843,1.7578,1.7139,1.673,1.6211,1.565,1.5186,1.4557,1.3928,1.3629,1.3233,1.2829,1.2603,1.2476,1.2305,1.2311,1.2365,1.2569,1.2672,1.2781,1.2739,1.2421,1.2325,1.224,1.1656,1.1056,1.0581,1.0481,1.0481,1.0481,1.0475,1.0482,1.0423,1.0294,1.0099,0.9858,0.9808,0.9614,0.9473,0.9268,0.9145,0.9081,0.8888,0.8616,0.8437,0.8078,0.7938,0.7954,0.7888,0.7804,0.7764,0.7708,0.7574,0.7359,0.7273,0.7139,0.6923,0.6815,0.6576,0.6359,0.6173,0.6037,0.59,0.5978,0.6005,0.6168,0.6463,0.6707,0.682,0.6955,0.7063,0.7009,0.7009,0.695,0.6842,0.668,0.6468,0.6305,0.6059,0.5814,0.565,0.5321,0.5128,0.4936,0.4719,0.4632,0.4432,0.4325,0.4055,0.3885,0.3635,0.333,0.3079,0.2914,0.2635,0.2212,0.2017,0.188,0.1825,0.1797,0.1797,0.1769,0.16,0.1375,0.1038,0.0701,0.014,-0.0364,-0.0757,-0.115,-0.1487,-0.1685,-0.1769,-0.1794,-0.1785,-0.1917,1.7951,1.7659,1.7017,1.6607,1.6312,1.5718,1.4993,1.437,1.413,1.3599,1.3024,1.2884,1.2737,1.2512,1.2492,1.2612,1.2857,1.3033,1.312,1.3174,1.2962,1.2903,1.2863,1.258,1.2109,1.1413,1.1264,1.1239,1.1167,1.1186,1.1093,1.1094,1.0875,1.0647,1.0474,1.0106,0.9815,0.9693,0.9424,0.9274,0.9242,0.9081,0.8876,0.8709,0.85,0.8344,0.8248,0.8147,0.8023,0.7979,0.7919,0.7794,0.7628,0.7521,0.7386,0.7139,0.7085,0.6869,0.6576,0.6386,0.6223,0.6082,0.6109,0.6136,0.6245,0.6517,0.6707,0.6869,0.7004,0.7139,0.7139,0.7171,0.7176,0.7063,0.6837,0.662,0.6327,0.5978,0.5599,0.5325,0.5046,0.4825,0.466,0.4467,0.4436,0.4405,0.4273,0.4135,0.3968,0.3771,0.3466,0.3188,0.2996,0.2689,0.2268,0.2043,0.1906,0.1825,0.1797,0.1797,0.1797,0.1685,0.1487,0.1206,0.0841,0.0336,-0.0112,-0.0505,-0.0926,-0.1403,-0.1656,-0.1713,-0.1769,-0.1797,-0.1958,1.8112,1.7659,1.7212,1.6812,1.6353,1.5858,1.5289,1.467,1.4357,1.3953,1.346,1.324,1.31,1.3026,1.3053,1.3093,1.3133,1.3273,1.3353,1.346,1.3326,1.3247,1.3318,1.3072,1.2751,1.2563,1.2221,1.1891,1.1664,1.1589,1.1595,1.1583,1.1501,1.1315,1.0935,1.0592,1.0226,0.9882,0.9554,0.9379,0.928,0.9139,0.9037,0.8966,0.8777,0.8709,0.862,0.8352,0.8133,0.8207,0.8015,0.7898,0.7821,0.7708,0.7547,0.7333,0.7219,0.7058,0.6847,0.668,0.6544,0.6436,0.6436,0.6544,0.6598,0.6734,0.6869,0.7031,0.7171,0.7284,0.7257,0.7311,0.7176,0.6987,0.6793,0.6517,0.6109,0.57,0.5317,0.5046,0.4767,0.4519,0.438,0.4242,0.4215,0.4184,0.4132,0.4021,0.3882,0.3741,0.3574,0.3297,0.3077,0.2715,0.2294,0.2099,0.1933,0.1824,0.1797,0.1797,0.1797,0.1797,0.1628,0.1403,0.1122,0.0701,0.0252,-0.0224,-0.0673,-0.1094,-0.1375,-0.1656,-0.1713,-0.1769,-0.1936,1.8282,1.7829,1.7424,1.7057,1.6681,1.6162,1.5541,1.4929,1.4621,1.4145,1.3675,1.3447,1.33,1.3247,1.3206,1.328,1.3434,1.3614,1.3741,1.3821,1.3741,1.3632,1.364,1.3359,1.3153,1.2956,1.2702,1.2408,1.2106,1.2031,1.1985,1.2003,1.1929,1.1667,1.1332,1.0993,1.0574,1.0134,0.9775,0.9533,0.9388,0.9242,0.9183,0.9206,0.9099,0.9033,0.8949,0.8824,0.8497,0.8333,0.8171,0.8039,0.7922,0.7854,0.7708,0.7521,0.7434,0.7354,0.7198,0.7031,0.6864,0.6761,0.6734,0.6707,0.6734,0.682,0.6982,0.7192,0.7333,0.7392,0.7311,0.7371,0.723,0.6933,0.6722,0.6373,0.5946,0.5481,0.5128,0.4774,0.4436,0.4242,0.4159,0.4049,0.3965,0.3965,0.3993,0.391,0.3796,0.3685,0.3574,0.3241,0.2993,0.2659,0.2322,0.2155,0.1961,0.1852,0.1797,0.1797,0.1797,0.1797,0.1797,0.1684,0.1346,0.101,0.0561,0.0112,-0.0336,-0.0785,-0.115,-0.1431,-0.1628,-0.1768,-0.1934,1.8451,1.7959,1.7595,1.731,1.7017,1.6409,1.579,1.5208,1.4817,1.4351,1.3789,1.3721,1.3573,1.3447,1.3427,1.3527,1.3713,1.3981,1.4041,1.4048,1.4035,1.3935,1.3773,1.3626,1.3377,1.3032,1.2845,1.2732,1.2331,1.22,1.2199,1.2059,1.1972,1.1818,1.1556,1.1136,1.077,1.0367,1.0033,0.9781,0.9544,0.9408,0.9408,0.9478,0.9408,0.9295,0.9202,0.9089,0.8843,0.8585,0.8399,0.8249,0.8033,0.7985,0.7922,0.7768,0.7729,0.7649,0.7467,0.7279,0.7085,0.7031,0.6891,0.6815,0.6788,0.6869,0.7031,0.7327,0.7461,0.7494,0.7451,0.7524,0.7362,0.7061,0.6729,0.6369,0.5906,0.5445,0.4949,0.4553,0.4172,0.3971,0.3922,0.3858,0.3774,0.3802,0.383,0.3802,0.3719,0.366,0.3494,0.3132,0.2826,0.2547,0.2324,0.2183,0.1989,0.1824,0.1797,0.1797,0.1797,0.1797,0.1797,0.1769,0.1656,0.129,0.0869,0.0449,0.0,-0.0421,-0.0897,-0.1234,-0.1431,-0.1656,-0.1822,1.8451,1.8,1.7781,1.7456,1.7057,1.6558,1.5982,1.536,1.4901,1.4552,1.4226,1.4092,1.3988,1.3928,1.3928,1.3981,1.4028,1.4048,1.4088,1.4088,1.4082,1.3955,1.3695,1.3483,1.333,1.3012,1.2796,1.2466,1.2201,1.2158,1.2005,1.1838,1.1781,1.1632,1.1452,1.1186,1.077,1.0373,1.0045,0.9748,0.9532,0.9478,0.9478,0.9478,0.9472,0.9422,0.9364,0.9257,0.9047,0.8975,0.8758,0.8513,0.8297,0.8249,0.8111,0.7925,0.7762,0.7649,0.7559,0.7386,0.7252,0.7198,0.7101,0.6982,0.6975,0.704,0.7225,0.7467,0.7543,0.761,0.7701,0.7793,0.7589,0.7337,0.7062,0.6587,0.6061,0.5608,0.5062,0.456,0.4222,0.3913,0.3722,0.3677,0.361,0.3638,0.3666,0.3638,0.361,0.3524,0.3385,0.3051,0.28,0.2549,0.2324,0.2184,0.2018,0.1825,0.1797,0.1797,0.1797,0.1797,0.1797,0.1769,0.1685,0.1572,0.1178,0.0757,0.0364,-0.0056,-0.0477,-0.0897,-0.1262,-0.1486,-0.1682,1.8411,1.7959,1.7789,1.7538,1.7221,1.6648,1.6105,1.5526,1.4943,1.4608,1.4398,1.4208,1.4088,1.4088,1.4088,1.4082,1.4088,1.4088,1.4088,1.4088,1.4088,1.387,1.361,1.344,1.3264,1.293,1.268,1.2435,1.2157,1.2048,1.1961,1.1714,1.1669,1.1589,1.1409,1.1298,1.0985,1.0555,1.0136,0.9754,0.955,0.9478,0.9478,0.9478,0.9478,0.9478,0.948,0.9426,0.9239,0.9137,0.8957,0.8806,0.8608,0.8507,0.8447,0.8381,0.8317,0.8124,0.7794,0.7597,0.7468,0.7388,0.74,0.7405,0.7315,0.7359,0.7649,0.8172,0.8022,0.7992,0.8106,0.8184,0.7936,0.7688,0.7399,0.6854,0.6312,0.5816,0.5329,0.4807,0.4293,0.3958,0.368,0.356,0.3477,0.3385,0.3469,0.3527,0.3444,0.333,0.3163,0.2972,0.2775,0.2579,0.2354,0.2184,0.2046,0.188,0.1797,0.1797,0.1797,0.1797,0.1797,0.1797,0.1769,0.16,0.1375,0.1122,0.0757,0.0336,-0.0056,-0.0505,-0.0926,-0.129,-0.157,1.8451,1.808,1.7861,1.7627,1.7351,1.6812,1.627,1.5741,1.5151,1.4783,1.4531,1.4328,1.4166,1.4088,1.4088,1.4088,1.4088,1.4088,1.4088,1.4088,1.4046,1.3828,1.3568,1.3355,1.3173,1.2705,1.2723,1.2463,1.2158,1.2,1.1864,1.1577,1.1484,1.144,1.1366,1.1255,1.1059,1.0671,1.0154,0.9835,0.9622,0.9552,0.9522,0.9478,0.9478,0.9478,0.9478,0.9472,0.9372,0.9275,0.9215,0.9083,0.8854,0.88,0.8734,0.8668,0.8591,0.8483,0.8199,0.8021,0.7868,0.7816,0.7779,0.784,0.7769,0.7779,0.7939,0.8492,0.8381,0.8364,0.851,0.854,0.8366,0.8034,0.7694,0.7138,0.6593,0.6071,0.5472,0.4843,0.4359,0.4004,0.3741,0.3498,0.3354,0.3205,0.3246,0.3363,0.3307,0.3195,0.3051,0.2888,0.2749,0.2579,0.2352,0.2156,0.2018,0.1908,0.1825,0.1797,0.1797,0.1797,0.1797,0.1797,0.1797,0.1741,0.1572,0.1347,0.1122,0.0701,0.0252,-0.0168,-0.0561,-0.0982,-0.143,1.8571,1.8353,1.8072,1.7749,1.7392,1.7139,1.6648,1.6038,1.5567,1.52,1.4908,1.4573,1.4286,1.4166,1.4124,1.413,1.4088,1.4088,1.4088,1.4088,1.4046,1.3828,1.3568,1.3349,1.3179,1.279,1.2699,1.2536,1.2264,1.1978,1.1648,1.1221,1.1273,1.1186,1.1111,1.1062,1.0936,1.0587,1.0169,0.9918,0.9763,0.9625,0.9482,0.9502,0.949,0.9478,0.9478,0.9446,0.9428,0.9362,0.9325,0.931,0.9058,0.9046,0.8962,0.889,0.8842,0.8776,0.8651,0.8462,0.8422,0.8387,0.8322,0.8239,0.8242,0.8245,0.8386,0.8568,0.8628,0.864,0.8729,0.8758,0.8728,0.8435,0.8069,0.7605,0.6975,0.632,0.5693,0.4921,0.4439,0.4131,0.3766,0.3522,0.3316,0.3138,0.3239,0.3354,0.3243,0.3154,0.2972,0.283,0.2747,0.2549,0.2296,0.2128,0.2074,0.1936,0.1825,0.1797,0.1797,0.1797,0.1797,0.1825,0.1825,0.1797,0.1769,0.1654,0.1429,0.1009,0.0561,0.014,-0.0393,-0.0897,-0.1318,1.8772,1.8571,1.8362,1.7991,1.7578,1.7261,1.6853,1.636,1.5733,1.5193,1.4866,1.465,1.4482,1.4328,1.4286,1.4208,1.413,1.4088,1.4088,1.4088,1.4046,1.387,1.3652,1.344,1.3222,1.2966,1.2772,1.2457,1.2065,1.1968,1.1567,1.1236,1.1135,1.1005,1.0962,1.0801,1.0629,1.0405,1.0136,0.9945,0.9724,0.9561,0.9449,0.9449,0.9224,0.9195,0.9183,0.9189,0.9183,0.9215,0.9215,0.9197,0.9184,0.9198,0.917,0.9136,0.9118,0.9155,0.9083,0.8872,0.8664,0.8727,0.863,0.8579,0.8707,0.8734,0.8844,0.8961,0.9019,0.907,0.9159,0.9231,0.9139,0.8845,0.8468,0.7997,0.7366,0.6668,0.6,0.5311,0.4785,0.437,0.3943,0.3544,0.3329,0.3124,0.3231,0.3314,0.3216,0.314,0.2996,0.2849,0.2768,0.2586,0.2301,0.2204,0.2107,0.1973,0.1808,0.1807,0.1811,0.1797,0.1797,0.1825,0.1852,0.1878,0.1906,0.1962,0.1738,0.1346,0.0897,0.0449,-0.014,-0.0757,-0.1126,1.8891,1.8772,1.8571,1.8201,1.7789,1.7416,1.7098,1.673,1.6105,1.5484,1.4985,1.4943,1.4817,1.4608,1.444,1.4321,1.4208,1.4124,1.413,1.4088,1.4088,1.3913,1.3737,1.3519,1.3349,1.3143,1.2887,1.2583,1.2107,1.1974,1.1633,1.1327,1.1079,1.0931,1.0818,1.0619,1.0384,1.0259,1.0117,1.0018,0.9827,0.961,0.9456,0.9421,0.9249,0.9129,0.9083,0.9055,0.9055,0.9055,0.9055,0.9087,0.9172,0.9274,0.9338,0.9408,0.9478,0.9478,0.9402,0.9251,0.8974,0.9073,0.9046,0.9046,0.9093,0.9145,0.9203,0.9291,0.941,0.9478,0.9478,0.9448,0.9276,0.8945,0.879,0.8345,0.7665,0.6982,0.6375,0.5723,0.518,0.4599,0.3989,0.3575,0.3355,0.318,0.3262,0.3307,0.3241,0.3162,0.3107,0.2957,0.2836,0.2619,0.2373,0.2305,0.2234,0.1989,0.1868,0.1838,0.1831,0.1816,0.18,0.1797,0.188,0.1989,0.2015,0.2045,0.1906,0.1684,0.1178,0.0617,0.0196,-0.0393,-0.0794,1.8812,1.8962,1.878,1.8451,1.8031,1.7781,1.7456,1.7098,1.673,1.6237,1.565,1.5484,1.5235,1.5033,1.4692,1.4482,1.4321,1.4201,1.4124,1.4088,1.4124,1.3955,1.3822,1.3695,1.3568,1.3228,1.3021,1.2794,1.2228,1.2057,1.1745,1.134,1.1014,1.0775,1.0775,1.0588,1.0507,1.0435,1.0188,1.0073,0.9957,0.976,0.9581,0.9445,0.9304,0.9135,0.9039,0.891,0.8899,0.8894,0.8888,0.8952,0.9017,0.9145,0.9242,0.9338,0.944,0.9478,0.9466,0.9486,0.9418,0.9368,0.9319,0.9366,0.9434,0.9446,0.9414,0.944,0.9478,0.9478,0.9478,0.9478,0.9285,0.9087,0.8899,0.8571,0.7889,0.7269,0.6609,0.5984,0.5422,0.4818,0.4156,0.3626,0.3372,0.3261,0.3321,0.3322,0.3256,0.3188,0.3152,0.3015,0.2892,0.2716,0.2506,0.2465,0.236,0.2102,0.1954,0.1918,0.1886,0.1838,0.1822,0.1805,0.1906,0.2045,0.2099,0.2099,0.199,0.1878,0.1262,0.0757,0.0364,0.0,-0.0429,1.8931,1.9002,1.8922,1.8803,1.8594,1.8112,1.7749,1.7456,1.7098,1.664,1.6229,1.6105,1.5733,1.536,1.5103,1.4817,1.444,1.4356,1.4237,1.413,1.425,1.4237,1.4153,1.4033,1.3906,1.3701,1.3451,1.2952,1.2283,1.2166,1.1747,1.1279,1.0845,1.0562,1.0368,1.0218,1.0105,1.0094,0.9985,0.9947,0.9957,0.9759,0.9584,0.9474,0.9245,0.9052,0.8931,0.8799,0.8712,0.8695,0.8722,0.8765,0.8829,0.8958,0.9087,0.9242,0.9338,0.9408,0.9446,0.9472,0.9478,0.9478,0.9478,0.9478,0.9478,0.9478,0.9478,0.9478,0.9478,0.9478,0.9478,0.9478,0.935,0.9087,0.8861,0.8571,0.8014,0.7466,0.6843,0.6181,0.5587,0.496,0.4328,0.3794,0.3523,0.3357,0.3364,0.3369,0.3328,0.3226,0.3145,0.3034,0.2907,0.2739,0.2609,0.2507,0.2359,0.2119,0.1995,0.1928,0.1898,0.1905,0.1898,0.1907,0.2032,0.2128,0.2212,0.2268,0.224,0.2017,0.152,0.1101,0.0735,0.0343,-0.0116,1.8589,1.8794,1.8962,1.8953,1.8843,1.8402,1.8121,1.791,1.7668,1.7294,1.6927,1.6763,1.6435,1.594,1.5567,1.5311,1.4776,1.4566,1.4482,1.4334,1.4447,1.4482,1.4447,1.4356,1.4243,1.409,1.3741,1.3196,1.2557,1.2311,1.1778,1.1081,1.0663,1.0443,1.0218,1.0073,0.9922,0.9954,0.9927,0.9895,0.9863,0.9729,0.9574,0.9393,0.9161,0.8909,0.8777,0.8663,0.8509,0.8526,0.8538,0.856,0.8679,0.8802,0.8899,0.9087,0.9242,0.9344,0.9446,0.9478,0.9478,0.9478,0.9478,0.9478,0.9478,0.9478,0.9478,0.9478,0.9478,0.9478,0.9478,0.9478,0.9382,0.9151,0.892,0.863,0.8247,0.7694,0.7138,0.6478,0.5785,0.516,0.4498,0.4061,0.3668,0.3522,0.3407,0.3383,0.3357,0.3298,0.3212,0.3107,0.2984,0.2886,0.2688,0.2521,0.2323,0.2103,0.2042,0.2013,0.2057,0.2068,0.204,0.2046,0.2215,0.2375,0.2421,0.2437,0.2394,0.2294,0.2022,0.1569,0.1141,0.0697,0.0267,1.783,1.8399,1.8816,1.8825,1.87,1.866,1.8571,1.8393,1.8402,1.8112,1.7651,1.7424,1.7057,1.6566,1.6023,1.5609,1.536,1.4943,1.4782,1.472,1.4789,1.4775,1.4733,1.4684,1.4587,1.4331,1.4015,1.3521,1.291,1.2292,1.1619,1.099,1.0631,1.0406,1.0218,1.0035,0.9922,0.9884,0.9884,0.9884,0.9857,0.9707,0.9558,0.939,0.914,0.8898,0.8755,0.8634,0.8599,0.8573,0.8546,0.8521,0.8565,0.8684,0.8776,0.8899,0.9151,0.9344,0.9478,0.9478,0.9478,0.9478,0.9478,0.9478,0.9478,0.9478,0.9478,0.9478,0.9478,0.9478,0.9478,0.9478,0.944,0.9247,0.9081,0.8765,0.8447,0.7959,0.7433,0.6778,0.6119,0.5428,0.4631,0.4128,0.3892,0.3685,0.3538,0.3403,0.3383,0.3357,0.3285,0.3189,0.3099,0.3023,0.2837,0.2619,0.2447,0.2254,0.2175,0.2149,0.2196,0.2224,0.2199,0.2272,0.2458,0.2581,0.2646,0.2617,0.2565,0.2411,0.225,0.1918,0.1457,0.1101,0.0701,1.7132,1.7778,1.8053,1.8377,1.8674,1.87,1.866,1.8612,1.8612,1.8362,1.791,1.7838,1.7432,1.6689,1.6484,1.6105,1.5726,1.5455,1.5151,1.5088,1.5136,1.5009,1.4962,1.4948,1.4816,1.458,1.4209,1.3796,1.3104,1.2365,1.1659,1.1055,1.0738,1.0475,1.0255,1.0035,0.996,0.9884,0.9922,0.9884,0.9846,0.9695,0.9552,0.9425,0.9137,0.8926,0.8825,0.8669,0.8648,0.8587,0.8578,0.8569,0.8592,0.8619,0.8646,0.8926,0.9177,0.937,0.9478,0.9484,0.9514,0.9544,0.9532,0.9484,0.9478,0.9502,0.9502,0.9446,0.9478,0.9478,0.9478,0.9446,0.944,0.9312,0.9145,0.8861,0.8506,0.8084,0.7531,0.6876,0.6218,0.5524,0.4731,0.4428,0.4225,0.3894,0.3661,0.3493,0.336,0.3362,0.3295,0.3228,0.3192,0.3092,0.2989,0.2839,0.2614,0.2445,0.2357,0.2299,0.2332,0.2359,0.2382,0.2468,0.2643,0.2783,0.2899,0.2835,0.2734,0.2569,0.2395,0.2099,0.1762,0.1404,0.0967,1.6188,1.6832,1.7265,1.776,1.8213,1.8287,1.8287,1.8332,1.8638,1.8563,1.8201,1.8241,1.7838,1.7212,1.7009,1.6618,1.5932,1.5861,1.5594,1.5285,1.5493,1.5376,1.5271,1.5201,1.5177,1.4893,1.4566,1.4196,1.348,1.2614,1.1855,1.1484,1.0999,1.0706,1.0556,1.0331,1.0105,1.003,0.996,0.9922,0.9809,0.9657,0.9511,0.941,0.9075,0.8934,0.8894,0.8711,0.8657,0.8643,0.8678,0.8732,0.8725,0.8691,0.8827,0.9117,0.9281,0.9565,0.9775,0.9832,0.9835,0.9784,0.9739,0.9708,0.964,0.9598,0.9432,0.9318,0.9414,0.9478,0.9478,0.9446,0.944,0.9408,0.9151,0.8926,0.8538,0.8149,0.7526,0.6872,0.6214,0.5554,0.5057,0.4791,0.4459,0.4061,0.3761,0.3627,0.3426,0.3295,0.3261,0.3228,0.3192,0.3159,0.3058,0.2956,0.279,0.2622,0.2547,0.252,0.2527,0.2608,0.2677,0.2756,0.2793,0.2909,0.2993,0.2979,0.2867,0.2662,0.244,0.2183,0.1896,0.1567,0.112,1.5136,1.5749,1.6527,1.7133,1.7473,1.7517,1.7554,1.7648,1.8404,1.8625,1.8364,1.8563,1.8207,1.7518,1.73,1.683,1.6333,1.6119,1.5858,1.5358,1.5661,1.5628,1.5478,1.5588,1.5386,1.5201,1.4902,1.444,1.4015,1.3188,1.2415,1.204,1.1446,1.1111,1.0999,1.0625,1.0406,1.0218,1.0105,0.9997,0.9809,0.9587,0.9284,0.9246,0.8998,0.8718,0.8718,0.8692,0.8714,0.8719,0.879,0.8902,0.8901,0.8909,0.9113,0.9321,0.9456,0.9733,1.0009,1.0154,1.0161,1.0122,1.0078,0.9898,0.9734,0.9491,0.9256,0.9221,0.9303,0.9303,0.9312,0.9376,0.9408,0.9306,0.9145,0.8958,0.8732,0.8214,0.7526,0.6905,0.635,0.5723,0.5223,0.4924,0.4628,0.4195,0.3861,0.3694,0.3493,0.3328,0.3228,0.3192,0.3192,0.3159,0.3092,0.3023,0.2889,0.2788,0.2753,0.275,0.2758,0.2889,0.3025,0.3002,0.2977,0.2969,0.3013,0.299,0.2878,0.2598,0.2401,0.226,0.1975,0.1618,0.1239,1.4415,1.5375,1.6124,1.659,1.6834,1.6834,1.6939,1.7078,1.7462,1.7772,1.7983,1.8219,1.802,1.74,1.7304,1.6868,1.6393,1.6256,1.5975,1.5816,1.5915,1.5773,1.5475,1.5605,1.552,1.5263,1.4937,1.4655,1.4122,1.3462,1.2936,1.2636,1.2003,1.1552,1.1372,1.1005,1.0743,1.0481,1.0406,1.018,0.9916,0.9582,0.9284,0.9203,0.8975,0.8742,0.8718,0.8704,0.8699,0.8708,0.8861,0.9011,0.9106,0.9123,0.9344,0.9621,0.9691,0.9927,1.016,1.0318,1.0289,1.0143,1.0026,0.9828,0.9622,0.9311,0.9162,0.915,0.9122,0.9141,0.9192,0.9321,0.9391,0.9288,0.913,0.9007,0.8878,0.8214,0.7531,0.7007,0.6482,0.5987,0.5455,0.5057,0.4728,0.4361,0.3995,0.3727,0.3529,0.3328,0.3228,0.3192,0.3192,0.3159,0.3125,0.3092,0.2989,0.2956,0.2922,0.2956,0.2989,0.305,0.3109,0.3143,0.3144,0.3095,0.3051,0.2992,0.2836,0.2549,0.2385,0.2239,0.1885,0.1522,0.1198,1.3851,1.462,1.5274,1.5733,1.5963,1.6074,1.6184,1.6337,1.6687,1.696,1.7194,1.7561,1.7571,1.7089,1.7081,1.6771,1.6317,1.6371,1.609,1.5965,1.5984,1.5942,1.5804,1.5688,1.5546,1.5344,1.5141,1.4792,1.431,1.3949,1.355,1.3156,1.2519,1.2077,1.1824,1.1484,1.1111,1.0775,1.0775,1.0513,1.0175,0.9809,0.9506,0.9392,0.9165,0.8937,0.8861,0.8827,0.8784,0.8846,0.8993,0.9207,0.9346,0.9378,0.9551,0.9734,0.9858,0.9993,1.0265,1.0354,1.0319,1.0205,1.009,0.9977,0.9952,0.9669,0.9364,0.9339,0.9156,0.9169,0.9349,0.9456,0.9518,0.9484,0.9191,0.8931,0.8619,0.8117,0.7591,0.7134,0.6679,0.6284,0.5752,0.5223,0.4894,0.4492,0.4125,0.3825,0.3594,0.3362,0.3261,0.3192,0.3192,0.3192,0.3159,0.3159,0.3125,0.3092,0.3058,0.3092,0.3092,0.3159,0.319,0.3153,0.3153,0.3145,0.308,0.2958,0.2757,0.2496,0.2368,0.2214,0.1849,0.1445,0.1109,1.3419,1.3826,1.4369,1.4792,1.5133,1.5336,1.5468,1.5572,1.6058,1.6231,1.6291,1.6784,1.6877,1.6879,1.6795,1.6436,1.6249,1.6293,1.6117,1.5988,1.6034,1.6007,1.5963,1.5849,1.5708,1.5522,1.5319,1.5026,1.4669,1.4346,1.3985,1.3593,1.3229,1.2826,1.2489,1.2157,1.1818,1.1372,1.1186,1.0919,1.055,1.0143,0.9846,0.9625,0.944,0.9213,0.9065,0.8989,0.8865,0.8932,0.9064,0.9377,0.9543,0.9615,0.9761,0.9907,0.9986,1.018,1.0387,1.0484,1.0439,1.0398,1.0293,1.0169,1.011,0.9893,0.9588,0.9464,0.9319,0.9276,0.9456,0.9555,0.962,0.9592,0.9258,0.8874,0.8452,0.8043,0.7639,0.7236,0.6852,0.6457,0.5958,0.5428,0.5027,0.4628,0.4259,0.3992,0.3727,0.3426,0.3228,0.3192,0.3192,0.3192,0.3192,0.3192,0.3192,0.3192,0.3159,0.3159,0.3159,0.3058,0.3058,0.3058,0.3056,0.2995,0.2926,0.2792,0.2591,0.2433,0.2322,0.2188,0.1884,0.148,0.111,1.3186,1.3834,1.4253,1.4569,1.4748,1.4935,1.5106,1.5292,1.5537,1.5677,1.5764,1.5941,1.6192,1.6501,1.6447,1.6203,1.6009,1.6173,1.6192,1.6079,1.6096,1.6096,1.6035,1.5903,1.5797,1.5655,1.5505,1.5319,1.5026,1.4705,1.4461,1.4173,1.3826,1.3419,1.3046,1.2753,1.2415,1.1966,1.1595,1.1366,1.0887,1.0443,0.996,0.9733,0.9511,0.9251,0.9065,0.9027,0.8865,0.8899,0.9089,0.947,0.9702,0.9809,0.9915,0.9979,1.0064,1.0166,1.0351,1.04,1.0363,1.0255,1.0143,1.0105,0.9976,0.975,0.9622,0.9707,0.9552,0.946,0.9564,0.9561,0.9615,0.9547,0.928,0.8859,0.8456,0.8077,0.7702,0.7332,0.6924,0.649,0.6018,0.5549,0.5139,0.4703,0.4164,0.3902,0.3779,0.3491,0.3204,0.3216,0.3225,0.3192,0.3192,0.3192,0.3192,0.3192,0.3192,0.3125,0.3025,0.2855,0.2855,0.2889,0.2829,0.2733,0.2664,0.2656,0.2486,0.2325,0.2265,0.2119,0.1855,0.1595,0.1301]}]]